<?xml version="1.0" encoding="UTF-8" standalone="no" ?>
<gpx xmlns="http://www.topografix.com/GPX/1/1" xmlns:xsi="http://www.w3.org/2001/XMLSchema-instance" xsi:schemaLocation="http://www.topografix.com/GPX/1/1 http://www.topografix.com/GPX/1/1/gpx.xsd" version="1.1" creator="VisuGPX - https://www.visugpx.com">
  <metadata>
    <name>120816 M. G. P.</name>
    <desc><![CDATA[Mauron Guer Ploermel]]></desc>
  </metadata>
  <trk>
    <name><![CDATA[16-AOU-12 18:15:49]]></name>
    <trkseg>
      <trkpt lat="48.08657" lon="-2.27557">
        <ele>64.55</ele>
        <time>2012-08-16T11:44:06Z</time>
      </trkpt>
      <trkpt lat="48.08654" lon="-2.27544">
        <ele>62.14</ele>
        <time>2012-08-16T11:44:17Z</time>
      </trkpt>
      <trkpt lat="48.08612" lon="-2.27512">
        <ele>91.46</ele>
        <time>2012-08-16T11:44:36Z</time>
      </trkpt>
      <trkpt lat="48.0861" lon="-2.2752">
        <ele>100.11</ele>
        <time>2012-08-16T11:44:56Z</time>
      </trkpt>
      <trkpt lat="48.08609" lon="-2.2752">
        <ele>98.67</ele>
        <time>2012-08-16T11:45:11Z</time>
      </trkpt>
      <trkpt lat="48.0861" lon="-2.27519">
        <ele>97.71</ele>
        <time>2012-08-16T11:45:29Z</time>
      </trkpt>
      <trkpt lat="48.0861" lon="-2.27515">
        <ele>94.83</ele>
        <time>2012-08-16T11:45:47Z</time>
      </trkpt>
      <trkpt lat="48.08608" lon="-2.27515">
        <ele>95.31</ele>
        <time>2012-08-16T11:46:06Z</time>
      </trkpt>
      <trkpt lat="48.08608" lon="-2.27512">
        <ele>94.35</ele>
        <time>2012-08-16T11:46:25Z</time>
      </trkpt>
      <trkpt lat="48.08607" lon="-2.27512">
        <ele>92.9</ele>
        <time>2012-08-16T11:46:45Z</time>
      </trkpt>
      <trkpt lat="48.08608" lon="-2.27511">
        <ele>90.5</ele>
        <time>2012-08-16T11:47:02Z</time>
      </trkpt>
      <trkpt lat="48.08609" lon="-2.27511">
        <ele>90.02</ele>
        <time>2012-08-16T11:47:21Z</time>
      </trkpt>
      <trkpt lat="48.0861" lon="-2.27511">
        <ele>90.02</ele>
        <time>2012-08-16T11:47:40Z</time>
      </trkpt>
      <trkpt lat="48.08612" lon="-2.27513">
        <ele>90.5</ele>
        <time>2012-08-16T11:47:59Z</time>
      </trkpt>
      <trkpt lat="48.08612" lon="-2.27515">
        <ele>90.98</ele>
        <time>2012-08-16T11:48:20Z</time>
      </trkpt>
      <trkpt lat="48.08613" lon="-2.27515">
        <ele>90.5</ele>
        <time>2012-08-16T11:48:39Z</time>
      </trkpt>
      <trkpt lat="48.08614" lon="-2.27514">
        <ele>90.02</ele>
        <time>2012-08-16T11:48:57Z</time>
      </trkpt>
      <trkpt lat="48.08613" lon="-2.27514">
        <ele>90.5</ele>
        <time>2012-08-16T11:49:18Z</time>
      </trkpt>
      <trkpt lat="48.08613" lon="-2.27514">
        <ele>90.98</ele>
        <time>2012-08-16T11:49:33Z</time>
      </trkpt>
      <trkpt lat="48.08613" lon="-2.27514">
        <ele>90.98</ele>
        <time>2012-08-16T11:49:37Z</time>
      </trkpt>
      <trkpt lat="48.08613" lon="-2.27514">
        <ele>91.46</ele>
        <time>2012-08-16T11:49:49Z</time>
      </trkpt>
      <trkpt lat="48.08612" lon="-2.27513">
        <ele>90.98</ele>
        <time>2012-08-16T11:49:58Z</time>
      </trkpt>
      <trkpt lat="48.08612" lon="-2.27512">
        <ele>90.98</ele>
        <time>2012-08-16T11:50:20Z</time>
      </trkpt>
      <trkpt lat="48.08612" lon="-2.27512">
        <ele>90.5</ele>
        <time>2012-08-16T11:50:33Z</time>
      </trkpt>
      <trkpt lat="48.08612" lon="-2.27512">
        <ele>90.5</ele>
        <time>2012-08-16T11:50:42Z</time>
      </trkpt>
      <trkpt lat="48.08614" lon="-2.27512">
        <ele>89.54</ele>
        <time>2012-08-16T11:50:47Z</time>
      </trkpt>
      <trkpt lat="48.08614" lon="-2.27512">
        <ele>88.1</ele>
        <time>2012-08-16T11:50:55Z</time>
      </trkpt>
      <trkpt lat="48.08611" lon="-2.27518">
        <ele>85.21</ele>
        <time>2012-08-16T11:51:00Z</time>
      </trkpt>
      <trkpt lat="48.08609" lon="-2.27518">
        <ele>82.33</ele>
        <time>2012-08-16T11:51:03Z</time>
      </trkpt>
      <trkpt lat="48.08605" lon="-2.27512">
        <ele>79.45</ele>
        <time>2012-08-16T11:51:07Z</time>
      </trkpt>
      <trkpt lat="48.0859" lon="-2.27501">
        <ele>77.04</ele>
        <time>2012-08-16T11:51:15Z</time>
      </trkpt>
      <trkpt lat="48.08575" lon="-2.27494">
        <ele>76.56</ele>
        <time>2012-08-16T11:51:22Z</time>
      </trkpt>
      <trkpt lat="48.08569" lon="-2.2749">
        <ele>76.08</ele>
        <time>2012-08-16T11:51:25Z</time>
      </trkpt>
      <trkpt lat="48.08556" lon="-2.27491">
        <ele>75.6</ele>
        <time>2012-08-16T11:51:31Z</time>
      </trkpt>
      <trkpt lat="48.08552" lon="-2.27496">
        <ele>75.12</ele>
        <time>2012-08-16T11:51:33Z</time>
      </trkpt>
      <trkpt lat="48.08548" lon="-2.27515">
        <ele>76.56</ele>
        <time>2012-08-16T11:51:41Z</time>
      </trkpt>
      <trkpt lat="48.08546" lon="-2.27526">
        <ele>75.6</ele>
        <time>2012-08-16T11:51:48Z</time>
      </trkpt>
      <trkpt lat="48.08545" lon="-2.27526">
        <ele>75.12</ele>
        <time>2012-08-16T11:51:57Z</time>
      </trkpt>
      <trkpt lat="48.08546" lon="-2.27526">
        <ele>74.16</ele>
        <time>2012-08-16T11:52:10Z</time>
      </trkpt>
      <trkpt lat="48.08546" lon="-2.27527">
        <ele>73.68</ele>
        <time>2012-08-16T11:52:25Z</time>
      </trkpt>
      <trkpt lat="48.08544" lon="-2.27531">
        <ele>73.68</ele>
        <time>2012-08-16T11:52:34Z</time>
      </trkpt>
      <trkpt lat="48.08538" lon="-2.27546">
        <ele>73.2</ele>
        <time>2012-08-16T11:52:40Z</time>
      </trkpt>
      <trkpt lat="48.08529" lon="-2.27566">
        <ele>72.72</ele>
        <time>2012-08-16T11:52:47Z</time>
      </trkpt>
      <trkpt lat="48.08524" lon="-2.27589">
        <ele>72.24</ele>
        <time>2012-08-16T11:52:52Z</time>
      </trkpt>
      <trkpt lat="48.08508" lon="-2.27598">
        <ele>72.24</ele>
        <time>2012-08-16T11:52:57Z</time>
      </trkpt>
      <trkpt lat="48.08504" lon="-2.27596">
        <ele>72.24</ele>
        <time>2012-08-16T11:52:58Z</time>
      </trkpt>
      <trkpt lat="48.085" lon="-2.27594">
        <ele>72.24</ele>
        <time>2012-08-16T11:52:59Z</time>
      </trkpt>
      <trkpt lat="48.08487" lon="-2.27588">
        <ele>72.24</ele>
        <time>2012-08-16T11:53:02Z</time>
      </trkpt>
      <trkpt lat="48.08482" lon="-2.27585">
        <ele>71.76</ele>
        <time>2012-08-16T11:53:03Z</time>
      </trkpt>
      <trkpt lat="48.08457" lon="-2.27573">
        <ele>70.79</ele>
        <time>2012-08-16T11:53:08Z</time>
      </trkpt>
      <trkpt lat="48.08448" lon="-2.27569">
        <ele>68.39</ele>
        <time>2012-08-16T11:53:11Z</time>
      </trkpt>
      <trkpt lat="48.08449" lon="-2.27559">
        <ele>67.43</ele>
        <time>2012-08-16T11:53:14Z</time>
      </trkpt>
      <trkpt lat="48.08455" lon="-2.27535">
        <ele>66.95</ele>
        <time>2012-08-16T11:53:20Z</time>
      </trkpt>
      <trkpt lat="48.08451" lon="-2.27521">
        <ele>66.95</ele>
        <time>2012-08-16T11:53:24Z</time>
      </trkpt>
      <trkpt lat="48.08425" lon="-2.27506">
        <ele>66.47</ele>
        <time>2012-08-16T11:53:31Z</time>
      </trkpt>
      <trkpt lat="48.08415" lon="-2.27499">
        <ele>66.47</ele>
        <time>2012-08-16T11:53:33Z</time>
      </trkpt>
      <trkpt lat="48.0841" lon="-2.27496">
        <ele>66.95</ele>
        <time>2012-08-16T11:53:34Z</time>
      </trkpt>
      <trkpt lat="48.08405" lon="-2.27493">
        <ele>67.43</ele>
        <time>2012-08-16T11:53:35Z</time>
      </trkpt>
      <trkpt lat="48.08387" lon="-2.27482">
        <ele>67.43</ele>
        <time>2012-08-16T11:53:39Z</time>
      </trkpt>
      <trkpt lat="48.08382" lon="-2.27479">
        <ele>67.43</ele>
        <time>2012-08-16T11:53:40Z</time>
      </trkpt>
      <trkpt lat="48.08371" lon="-2.27475">
        <ele>67.43</ele>
        <time>2012-08-16T11:53:42Z</time>
      </trkpt>
      <trkpt lat="48.08366" lon="-2.27472">
        <ele>66.95</ele>
        <time>2012-08-16T11:53:43Z</time>
      </trkpt>
      <trkpt lat="48.08319" lon="-2.27445">
        <ele>65.99</ele>
        <time>2012-08-16T11:53:51Z</time>
      </trkpt>
      <trkpt lat="48.08312" lon="-2.27443">
        <ele>65.51</ele>
        <time>2012-08-16T11:53:52Z</time>
      </trkpt>
      <trkpt lat="48.08305" lon="-2.27445">
        <ele>65.03</ele>
        <time>2012-08-16T11:53:53Z</time>
      </trkpt>
      <trkpt lat="48.08299" lon="-2.27451">
        <ele>64.55</ele>
        <time>2012-08-16T11:53:54Z</time>
      </trkpt>
      <trkpt lat="48.08295" lon="-2.27458">
        <ele>64.55</ele>
        <time>2012-08-16T11:53:55Z</time>
      </trkpt>
      <trkpt lat="48.08291" lon="-2.27466">
        <ele>64.07</ele>
        <time>2012-08-16T11:53:56Z</time>
      </trkpt>
      <trkpt lat="48.08287" lon="-2.27472">
        <ele>64.07</ele>
        <time>2012-08-16T11:53:57Z</time>
      </trkpt>
      <trkpt lat="48.08283" lon="-2.27477">
        <ele>64.07</ele>
        <time>2012-08-16T11:53:58Z</time>
      </trkpt>
      <trkpt lat="48.08255" lon="-2.27518">
        <ele>65.03</ele>
        <time>2012-08-16T11:54:06Z</time>
      </trkpt>
      <trkpt lat="48.08252" lon="-2.27521">
        <ele>65.99</ele>
        <time>2012-08-16T11:54:07Z</time>
      </trkpt>
      <trkpt lat="48.08248" lon="-2.27523">
        <ele>65.99</ele>
        <time>2012-08-16T11:54:08Z</time>
      </trkpt>
      <trkpt lat="48.08244" lon="-2.27523">
        <ele>66.47</ele>
        <time>2012-08-16T11:54:09Z</time>
      </trkpt>
      <trkpt lat="48.08241" lon="-2.27522">
        <ele>66.47</ele>
        <time>2012-08-16T11:54:10Z</time>
      </trkpt>
      <trkpt lat="48.08238" lon="-2.27518">
        <ele>66.47</ele>
        <time>2012-08-16T11:54:11Z</time>
      </trkpt>
      <trkpt lat="48.08235" lon="-2.27513">
        <ele>66.47</ele>
        <time>2012-08-16T11:54:12Z</time>
      </trkpt>
      <trkpt lat="48.08232" lon="-2.27508">
        <ele>66.47</ele>
        <time>2012-08-16T11:54:13Z</time>
      </trkpt>
      <trkpt lat="48.08227" lon="-2.27497">
        <ele>66.47</ele>
        <time>2012-08-16T11:54:15Z</time>
      </trkpt>
      <trkpt lat="48.08222" lon="-2.27484">
        <ele>65.51</ele>
        <time>2012-08-16T11:54:17Z</time>
      </trkpt>
      <trkpt lat="48.08221" lon="-2.27438">
        <ele>65.03</ele>
        <time>2012-08-16T11:54:23Z</time>
      </trkpt>
      <trkpt lat="48.08223" lon="-2.2743">
        <ele>64.55</ele>
        <time>2012-08-16T11:54:24Z</time>
      </trkpt>
      <trkpt lat="48.08232" lon="-2.27404">
        <ele>63.58</ele>
        <time>2012-08-16T11:54:27Z</time>
      </trkpt>
      <trkpt lat="48.08236" lon="-2.27363">
        <ele>62.62</ele>
        <time>2012-08-16T11:54:31Z</time>
      </trkpt>
      <trkpt lat="48.08228" lon="-2.27274">
        <ele>61.66</ele>
        <time>2012-08-16T11:54:40Z</time>
      </trkpt>
      <trkpt lat="48.08221" lon="-2.27195">
        <ele>61.18</ele>
        <time>2012-08-16T11:54:49Z</time>
      </trkpt>
      <trkpt lat="48.08213" lon="-2.27116">
        <ele>62.14</ele>
        <time>2012-08-16T11:54:59Z</time>
      </trkpt>
      <trkpt lat="48.08204" lon="-2.27027">
        <ele>64.55</ele>
        <time>2012-08-16T11:55:11Z</time>
      </trkpt>
      <trkpt lat="48.08195" lon="-2.2697">
        <ele>66.95</ele>
        <time>2012-08-16T11:55:20Z</time>
      </trkpt>
      <trkpt lat="48.08183" lon="-2.2692">
        <ele>67.91</ele>
        <time>2012-08-16T11:55:29Z</time>
      </trkpt>
      <trkpt lat="48.08176" lon="-2.26899">
        <ele>67.91</ele>
        <time>2012-08-16T11:55:33Z</time>
      </trkpt>
      <trkpt lat="48.08153" lon="-2.26844">
        <ele>68.39</ele>
        <time>2012-08-16T11:55:44Z</time>
      </trkpt>
      <trkpt lat="48.08133" lon="-2.26805">
        <ele>69.83</ele>
        <time>2012-08-16T11:55:54Z</time>
      </trkpt>
      <trkpt lat="48.08113" lon="-2.26772">
        <ele>71.27</ele>
        <time>2012-08-16T11:56:05Z</time>
      </trkpt>
      <trkpt lat="48.08096" lon="-2.26745">
        <ele>73.2</ele>
        <time>2012-08-16T11:56:14Z</time>
      </trkpt>
      <trkpt lat="48.08081" lon="-2.26723">
        <ele>74.64</ele>
        <time>2012-08-16T11:56:22Z</time>
      </trkpt>
      <trkpt lat="48.08065" lon="-2.26698">
        <ele>75.12</ele>
        <time>2012-08-16T11:56:31Z</time>
      </trkpt>
      <trkpt lat="48.08046" lon="-2.26667">
        <ele>75.6</ele>
        <time>2012-08-16T11:56:41Z</time>
      </trkpt>
      <trkpt lat="48.08024" lon="-2.2663">
        <ele>77.04</ele>
        <time>2012-08-16T11:56:52Z</time>
      </trkpt>
      <trkpt lat="48.08005" lon="-2.26603">
        <ele>78</ele>
        <time>2012-08-16T11:57:01Z</time>
      </trkpt>
      <trkpt lat="48.07979" lon="-2.26563">
        <ele>79.93</ele>
        <time>2012-08-16T11:57:14Z</time>
      </trkpt>
      <trkpt lat="48.07959" lon="-2.26531">
        <ele>81.37</ele>
        <time>2012-08-16T11:57:24Z</time>
      </trkpt>
      <trkpt lat="48.07932" lon="-2.26488">
        <ele>82.81</ele>
        <time>2012-08-16T11:57:38Z</time>
      </trkpt>
      <trkpt lat="48.07909" lon="-2.26452">
        <ele>83.29</ele>
        <time>2012-08-16T11:57:48Z</time>
      </trkpt>
      <trkpt lat="48.07881" lon="-2.26408">
        <ele>82.33</ele>
        <time>2012-08-16T11:57:58Z</time>
      </trkpt>
      <trkpt lat="48.07846" lon="-2.26354">
        <ele>80.89</ele>
        <time>2012-08-16T11:58:09Z</time>
      </trkpt>
      <trkpt lat="48.07817" lon="-2.26299">
        <ele>80.41</ele>
        <time>2012-08-16T11:58:18Z</time>
      </trkpt>
      <trkpt lat="48.07802" lon="-2.26252">
        <ele>80.89</ele>
        <time>2012-08-16T11:58:26Z</time>
      </trkpt>
      <trkpt lat="48.07785" lon="-2.26188">
        <ele>81.85</ele>
        <time>2012-08-16T11:58:37Z</time>
      </trkpt>
      <trkpt lat="48.07765" lon="-2.26115">
        <ele>84.25</ele>
        <time>2012-08-16T11:58:50Z</time>
      </trkpt>
      <trkpt lat="48.07745" lon="-2.26043">
        <ele>86.66</ele>
        <time>2012-08-16T11:59:03Z</time>
      </trkpt>
      <trkpt lat="48.07729" lon="-2.25986">
        <ele>88.1</ele>
        <time>2012-08-16T11:59:14Z</time>
      </trkpt>
      <trkpt lat="48.07711" lon="-2.25922">
        <ele>88.1</ele>
        <time>2012-08-16T11:59:26Z</time>
      </trkpt>
      <trkpt lat="48.07695" lon="-2.25866">
        <ele>88.1</ele>
        <time>2012-08-16T11:59:36Z</time>
      </trkpt>
      <trkpt lat="48.07676" lon="-2.25801">
        <ele>88.58</ele>
        <time>2012-08-16T11:59:48Z</time>
      </trkpt>
      <trkpt lat="48.07672" lon="-2.25791">
        <ele>87.62</ele>
        <time>2012-08-16T11:59:52Z</time>
      </trkpt>
      <trkpt lat="48.07672" lon="-2.25791">
        <ele>88.1</ele>
        <time>2012-08-16T12:00:00Z</time>
      </trkpt>
      <trkpt lat="48.07672" lon="-2.25791">
        <ele>88.1</ele>
        <time>2012-08-16T12:00:13Z</time>
      </trkpt>
      <trkpt lat="48.07672" lon="-2.25792">
        <ele>88.58</ele>
        <time>2012-08-16T12:00:28Z</time>
      </trkpt>
      <trkpt lat="48.07672" lon="-2.25791">
        <ele>88.1</ele>
        <time>2012-08-16T12:00:35Z</time>
      </trkpt>
      <trkpt lat="48.07672" lon="-2.2579">
        <ele>88.1</ele>
        <time>2012-08-16T12:00:50Z</time>
      </trkpt>
      <trkpt lat="48.07672" lon="-2.25791">
        <ele>88.58</ele>
        <time>2012-08-16T12:01:02Z</time>
      </trkpt>
      <trkpt lat="48.07672" lon="-2.25791">
        <ele>89.06</ele>
        <time>2012-08-16T12:01:16Z</time>
      </trkpt>
      <trkpt lat="48.07673" lon="-2.25791">
        <ele>88.58</ele>
        <time>2012-08-16T12:01:31Z</time>
      </trkpt>
      <trkpt lat="48.07673" lon="-2.25791">
        <ele>88.58</ele>
        <time>2012-08-16T12:01:42Z</time>
      </trkpt>
      <trkpt lat="48.0767" lon="-2.25775">
        <ele>88.58</ele>
        <time>2012-08-16T12:01:49Z</time>
      </trkpt>
      <trkpt lat="48.0766" lon="-2.2574">
        <ele>87.62</ele>
        <time>2012-08-16T12:01:57Z</time>
      </trkpt>
      <trkpt lat="48.07644" lon="-2.25685">
        <ele>86.18</ele>
        <time>2012-08-16T12:02:06Z</time>
      </trkpt>
      <trkpt lat="48.07627" lon="-2.25625">
        <ele>84.25</ele>
        <time>2012-08-16T12:02:15Z</time>
      </trkpt>
      <trkpt lat="48.07607" lon="-2.25553">
        <ele>83.29</ele>
        <time>2012-08-16T12:02:25Z</time>
      </trkpt>
      <trkpt lat="48.07586" lon="-2.25478">
        <ele>83.29</ele>
        <time>2012-08-16T12:02:35Z</time>
      </trkpt>
      <trkpt lat="48.07563" lon="-2.25397">
        <ele>82.33</ele>
        <time>2012-08-16T12:02:45Z</time>
      </trkpt>
      <trkpt lat="48.07546" lon="-2.25339">
        <ele>81.85</ele>
        <time>2012-08-16T12:02:52Z</time>
      </trkpt>
      <trkpt lat="48.07526" lon="-2.25271">
        <ele>81.37</ele>
        <time>2012-08-16T12:03:01Z</time>
      </trkpt>
      <trkpt lat="48.07508" lon="-2.25206">
        <ele>83.29</ele>
        <time>2012-08-16T12:03:11Z</time>
      </trkpt>
      <trkpt lat="48.07489" lon="-2.2514">
        <ele>84.25</ele>
        <time>2012-08-16T12:03:22Z</time>
      </trkpt>
      <trkpt lat="48.0747" lon="-2.25075">
        <ele>85.21</ele>
        <time>2012-08-16T12:03:33Z</time>
      </trkpt>
      <trkpt lat="48.07456" lon="-2.25026">
        <ele>85.69</ele>
        <time>2012-08-16T12:03:41Z</time>
      </trkpt>
      <trkpt lat="48.07452" lon="-2.25008">
        <ele>86.18</ele>
        <time>2012-08-16T12:03:44Z</time>
      </trkpt>
      <trkpt lat="48.07444" lon="-2.24983">
        <ele>86.18</ele>
        <time>2012-08-16T12:03:48Z</time>
      </trkpt>
      <trkpt lat="48.07422" lon="-2.24903">
        <ele>85.69</ele>
        <time>2012-08-16T12:03:59Z</time>
      </trkpt>
      <trkpt lat="48.07402" lon="-2.24824">
        <ele>84.73</ele>
        <time>2012-08-16T12:04:09Z</time>
      </trkpt>
      <trkpt lat="48.07383" lon="-2.24757">
        <ele>82.81</ele>
        <time>2012-08-16T12:04:17Z</time>
      </trkpt>
      <trkpt lat="48.07356" lon="-2.24653">
        <ele>79.45</ele>
        <time>2012-08-16T12:04:28Z</time>
      </trkpt>
      <trkpt lat="48.07338" lon="-2.24587">
        <ele>78</ele>
        <time>2012-08-16T12:04:35Z</time>
      </trkpt>
      <trkpt lat="48.07316" lon="-2.24512">
        <ele>76.08</ele>
        <time>2012-08-16T12:04:44Z</time>
      </trkpt>
      <trkpt lat="48.07299" lon="-2.24439">
        <ele>75.6</ele>
        <time>2012-08-16T12:04:53Z</time>
      </trkpt>
      <trkpt lat="48.07281" lon="-2.24357">
        <ele>75.6</ele>
        <time>2012-08-16T12:05:04Z</time>
      </trkpt>
      <trkpt lat="48.07265" lon="-2.24283">
        <ele>75.6</ele>
        <time>2012-08-16T12:05:14Z</time>
      </trkpt>
      <trkpt lat="48.07246" lon="-2.24205">
        <ele>76.08</ele>
        <time>2012-08-16T12:05:24Z</time>
      </trkpt>
      <trkpt lat="48.07224" lon="-2.24117">
        <ele>75.12</ele>
        <time>2012-08-16T12:05:35Z</time>
      </trkpt>
      <trkpt lat="48.07202" lon="-2.24045">
        <ele>74.64</ele>
        <time>2012-08-16T12:05:44Z</time>
      </trkpt>
      <trkpt lat="48.07179" lon="-2.23973">
        <ele>73.68</ele>
        <time>2012-08-16T12:05:54Z</time>
      </trkpt>
      <trkpt lat="48.07153" lon="-2.23892">
        <ele>72.72</ele>
        <time>2012-08-16T12:06:05Z</time>
      </trkpt>
      <trkpt lat="48.07132" lon="-2.23826">
        <ele>71.76</ele>
        <time>2012-08-16T12:06:14Z</time>
      </trkpt>
      <trkpt lat="48.07116" lon="-2.23774">
        <ele>71.27</ele>
        <time>2012-08-16T12:06:21Z</time>
      </trkpt>
      <trkpt lat="48.07092" lon="-2.23706">
        <ele>70.79</ele>
        <time>2012-08-16T12:06:30Z</time>
      </trkpt>
      <trkpt lat="48.07061" lon="-2.2361">
        <ele>71.76</ele>
        <time>2012-08-16T12:06:43Z</time>
      </trkpt>
      <trkpt lat="48.07039" lon="-2.23539">
        <ele>71.76</ele>
        <time>2012-08-16T12:06:53Z</time>
      </trkpt>
      <trkpt lat="48.07018" lon="-2.23477">
        <ele>71.76</ele>
        <time>2012-08-16T12:07:02Z</time>
      </trkpt>
      <trkpt lat="48.06998" lon="-2.23416">
        <ele>71.27</ele>
        <time>2012-08-16T12:07:11Z</time>
      </trkpt>
      <trkpt lat="48.06976" lon="-2.23348">
        <ele>71.27</ele>
        <time>2012-08-16T12:07:21Z</time>
      </trkpt>
      <trkpt lat="48.06955" lon="-2.23286">
        <ele>70.79</ele>
        <time>2012-08-16T12:07:30Z</time>
      </trkpt>
      <trkpt lat="48.06937" lon="-2.23224">
        <ele>70.79</ele>
        <time>2012-08-16T12:07:39Z</time>
      </trkpt>
      <trkpt lat="48.06918" lon="-2.23163">
        <ele>70.31</ele>
        <time>2012-08-16T12:07:48Z</time>
      </trkpt>
      <trkpt lat="48.06893" lon="-2.23085">
        <ele>70.79</ele>
        <time>2012-08-16T12:08:00Z</time>
      </trkpt>
      <trkpt lat="48.06889" lon="-2.23071">
        <ele>70.79</ele>
        <time>2012-08-16T12:08:02Z</time>
      </trkpt>
      <trkpt lat="48.06869" lon="-2.23014">
        <ele>70.31</ele>
        <time>2012-08-16T12:08:11Z</time>
      </trkpt>
      <trkpt lat="48.06852" lon="-2.22963">
        <ele>69.35</ele>
        <time>2012-08-16T12:08:19Z</time>
      </trkpt>
      <trkpt lat="48.0683" lon="-2.22899">
        <ele>69.35</ele>
        <time>2012-08-16T12:08:29Z</time>
      </trkpt>
      <trkpt lat="48.06809" lon="-2.22837">
        <ele>69.35</ele>
        <time>2012-08-16T12:08:39Z</time>
      </trkpt>
      <trkpt lat="48.068" lon="-2.22808">
        <ele>69.83</ele>
        <time>2012-08-16T12:08:44Z</time>
      </trkpt>
      <trkpt lat="48.06782" lon="-2.22747">
        <ele>71.76</ele>
        <time>2012-08-16T12:08:55Z</time>
      </trkpt>
      <trkpt lat="48.06763" lon="-2.22685">
        <ele>75.6</ele>
        <time>2012-08-16T12:09:06Z</time>
      </trkpt>
      <trkpt lat="48.06745" lon="-2.22627">
        <ele>76.56</ele>
        <time>2012-08-16T12:09:16Z</time>
      </trkpt>
      <trkpt lat="48.06725" lon="-2.22572">
        <ele>78.48</ele>
        <time>2012-08-16T12:09:26Z</time>
      </trkpt>
      <trkpt lat="48.0671" lon="-2.22526">
        <ele>79.93</ele>
        <time>2012-08-16T12:09:35Z</time>
      </trkpt>
      <trkpt lat="48.06693" lon="-2.22469">
        <ele>80.41</ele>
        <time>2012-08-16T12:09:46Z</time>
      </trkpt>
      <trkpt lat="48.0668" lon="-2.22427">
        <ele>81.37</ele>
        <time>2012-08-16T12:09:55Z</time>
      </trkpt>
      <trkpt lat="48.06664" lon="-2.22382">
        <ele>82.33</ele>
        <time>2012-08-16T12:10:05Z</time>
      </trkpt>
      <trkpt lat="48.06663" lon="-2.22378">
        <ele>82.81</ele>
        <time>2012-08-16T12:10:06Z</time>
      </trkpt>
      <trkpt lat="48.06669" lon="-2.22365">
        <ele>82.81</ele>
        <time>2012-08-16T12:10:11Z</time>
      </trkpt>
      <trkpt lat="48.06669" lon="-2.22366">
        <ele>83.29</ele>
        <time>2012-08-16T12:10:17Z</time>
      </trkpt>
      <trkpt lat="48.06669" lon="-2.22366">
        <ele>83.77</ele>
        <time>2012-08-16T12:10:25Z</time>
      </trkpt>
      <trkpt lat="48.06668" lon="-2.22365">
        <ele>85.69</ele>
        <time>2012-08-16T12:10:43Z</time>
      </trkpt>
      <trkpt lat="48.06668" lon="-2.22365">
        <ele>85.69</ele>
        <time>2012-08-16T12:11:05Z</time>
      </trkpt>
      <trkpt lat="48.06668" lon="-2.22366">
        <ele>86.18</ele>
        <time>2012-08-16T12:11:25Z</time>
      </trkpt>
      <trkpt lat="48.06668" lon="-2.22366">
        <ele>86.18</ele>
        <time>2012-08-16T12:11:38Z</time>
      </trkpt>
      <trkpt lat="48.06667" lon="-2.22366">
        <ele>85.69</ele>
        <time>2012-08-16T12:11:43Z</time>
      </trkpt>
      <trkpt lat="48.06667" lon="-2.22366">
        <ele>85.69</ele>
        <time>2012-08-16T12:11:45Z</time>
      </trkpt>
      <trkpt lat="48.06663" lon="-2.22359">
        <ele>85.21</ele>
        <time>2012-08-16T12:11:51Z</time>
      </trkpt>
      <trkpt lat="48.06657" lon="-2.2235">
        <ele>84.73</ele>
        <time>2012-08-16T12:11:57Z</time>
      </trkpt>
      <trkpt lat="48.06645" lon="-2.22322">
        <ele>83.77</ele>
        <time>2012-08-16T12:12:04Z</time>
      </trkpt>
      <trkpt lat="48.06633" lon="-2.22281">
        <ele>83.77</ele>
        <time>2012-08-16T12:12:13Z</time>
      </trkpt>
      <trkpt lat="48.06621" lon="-2.22242">
        <ele>83.29</ele>
        <time>2012-08-16T12:12:21Z</time>
      </trkpt>
      <trkpt lat="48.066" lon="-2.22178">
        <ele>82.81</ele>
        <time>2012-08-16T12:12:31Z</time>
      </trkpt>
      <trkpt lat="48.06578" lon="-2.22112">
        <ele>81.37</ele>
        <time>2012-08-16T12:12:40Z</time>
      </trkpt>
      <trkpt lat="48.06556" lon="-2.22043">
        <ele>80.41</ele>
        <time>2012-08-16T12:12:49Z</time>
      </trkpt>
      <trkpt lat="48.06528" lon="-2.21958">
        <ele>78.97</ele>
        <time>2012-08-16T12:12:59Z</time>
      </trkpt>
      <trkpt lat="48.0651" lon="-2.21898">
        <ele>78.97</ele>
        <time>2012-08-16T12:13:07Z</time>
      </trkpt>
      <trkpt lat="48.06487" lon="-2.21827">
        <ele>78.97</ele>
        <time>2012-08-16T12:13:17Z</time>
      </trkpt>
      <trkpt lat="48.06467" lon="-2.21765">
        <ele>79.45</ele>
        <time>2012-08-16T12:13:27Z</time>
      </trkpt>
      <trkpt lat="48.06449" lon="-2.217">
        <ele>80.41</ele>
        <time>2012-08-16T12:13:38Z</time>
      </trkpt>
      <trkpt lat="48.06442" lon="-2.21638">
        <ele>82.33</ele>
        <time>2012-08-16T12:13:48Z</time>
      </trkpt>
      <trkpt lat="48.06439" lon="-2.21555">
        <ele>83.29</ele>
        <time>2012-08-16T12:14:01Z</time>
      </trkpt>
      <trkpt lat="48.06438" lon="-2.21468">
        <ele>83.77</ele>
        <time>2012-08-16T12:14:14Z</time>
      </trkpt>
      <trkpt lat="48.06438" lon="-2.21411">
        <ele>84.73</ele>
        <time>2012-08-16T12:14:23Z</time>
      </trkpt>
      <trkpt lat="48.06437" lon="-2.21319">
        <ele>84.25</ele>
        <time>2012-08-16T12:14:38Z</time>
      </trkpt>
      <trkpt lat="48.06436" lon="-2.21253">
        <ele>85.21</ele>
        <time>2012-08-16T12:14:49Z</time>
      </trkpt>
      <trkpt lat="48.06436" lon="-2.21193">
        <ele>85.21</ele>
        <time>2012-08-16T12:14:59Z</time>
      </trkpt>
      <trkpt lat="48.06435" lon="-2.21144">
        <ele>86.18</ele>
        <time>2012-08-16T12:15:08Z</time>
      </trkpt>
      <trkpt lat="48.06434" lon="-2.21107">
        <ele>87.14</ele>
        <time>2012-08-16T12:15:16Z</time>
      </trkpt>
      <trkpt lat="48.06434" lon="-2.21062">
        <ele>89.06</ele>
        <time>2012-08-16T12:15:26Z</time>
      </trkpt>
      <trkpt lat="48.06433" lon="-2.21014">
        <ele>91.46</ele>
        <time>2012-08-16T12:15:37Z</time>
      </trkpt>
      <trkpt lat="48.06432" lon="-2.20975">
        <ele>92.9</ele>
        <time>2012-08-16T12:15:47Z</time>
      </trkpt>
      <trkpt lat="48.06431" lon="-2.20922">
        <ele>95.31</ele>
        <time>2012-08-16T12:16:01Z</time>
      </trkpt>
      <trkpt lat="48.06431" lon="-2.2088">
        <ele>98.19</ele>
        <time>2012-08-16T12:16:11Z</time>
      </trkpt>
      <trkpt lat="48.06431" lon="-2.20828">
        <ele>100.11</ele>
        <time>2012-08-16T12:16:25Z</time>
      </trkpt>
      <trkpt lat="48.0643" lon="-2.20794">
        <ele>101.56</ele>
        <time>2012-08-16T12:16:34Z</time>
      </trkpt>
      <trkpt lat="48.0643" lon="-2.20759">
        <ele>102.04</ele>
        <time>2012-08-16T12:16:43Z</time>
      </trkpt>
      <trkpt lat="48.06427" lon="-2.20721">
        <ele>103</ele>
        <time>2012-08-16T12:16:52Z</time>
      </trkpt>
      <trkpt lat="48.06419" lon="-2.20705">
        <ele>103.48</ele>
        <time>2012-08-16T12:16:57Z</time>
      </trkpt>
      <trkpt lat="48.06396" lon="-2.20691">
        <ele>103.96</ele>
        <time>2012-08-16T12:17:04Z</time>
      </trkpt>
      <trkpt lat="48.06376" lon="-2.2067">
        <ele>104.44</ele>
        <time>2012-08-16T12:17:11Z</time>
      </trkpt>
      <trkpt lat="48.06371" lon="-2.20641">
        <ele>104.92</ele>
        <time>2012-08-16T12:17:17Z</time>
      </trkpt>
      <trkpt lat="48.06375" lon="-2.20597">
        <ele>105.88</ele>
        <time>2012-08-16T12:17:26Z</time>
      </trkpt>
      <trkpt lat="48.06373" lon="-2.2056">
        <ele>107.32</ele>
        <time>2012-08-16T12:17:34Z</time>
      </trkpt>
      <trkpt lat="48.0636" lon="-2.20551">
        <ele>108.29</ele>
        <time>2012-08-16T12:17:39Z</time>
      </trkpt>
      <trkpt lat="48.06341" lon="-2.20548">
        <ele>106.84</ele>
        <time>2012-08-16T12:17:44Z</time>
      </trkpt>
      <trkpt lat="48.06299" lon="-2.2054">
        <ele>104.44</ele>
        <time>2012-08-16T12:17:54Z</time>
      </trkpt>
      <trkpt lat="48.0629" lon="-2.20536">
        <ele>103.96</ele>
        <time>2012-08-16T12:17:56Z</time>
      </trkpt>
      <trkpt lat="48.0624" lon="-2.20528">
        <ele>102.52</ele>
        <time>2012-08-16T12:18:07Z</time>
      </trkpt>
      <trkpt lat="48.062" lon="-2.20521">
        <ele>101.08</ele>
        <time>2012-08-16T12:18:14Z</time>
      </trkpt>
      <trkpt lat="48.06144" lon="-2.20509">
        <ele>98.19</ele>
        <time>2012-08-16T12:18:22Z</time>
      </trkpt>
      <trkpt lat="48.06091" lon="-2.20499">
        <ele>94.83</ele>
        <time>2012-08-16T12:18:29Z</time>
      </trkpt>
      <trkpt lat="48.05995" lon="-2.2048">
        <ele>89.54</ele>
        <time>2012-08-16T12:18:41Z</time>
      </trkpt>
      <trkpt lat="48.05906" lon="-2.20458">
        <ele>85.21</ele>
        <time>2012-08-16T12:18:52Z</time>
      </trkpt>
      <trkpt lat="48.05861" lon="-2.20448">
        <ele>84.25</ele>
        <time>2012-08-16T12:18:59Z</time>
      </trkpt>
      <trkpt lat="48.0585" lon="-2.20447">
        <ele>83.77</ele>
        <time>2012-08-16T12:19:01Z</time>
      </trkpt>
      <trkpt lat="48.05788" lon="-2.20434">
        <ele>83.77</ele>
        <time>2012-08-16T12:19:13Z</time>
      </trkpt>
      <trkpt lat="48.05743" lon="-2.2042">
        <ele>85.21</ele>
        <time>2012-08-16T12:19:24Z</time>
      </trkpt>
      <trkpt lat="48.05709" lon="-2.20401">
        <ele>85.69</ele>
        <time>2012-08-16T12:19:33Z</time>
      </trkpt>
      <trkpt lat="48.05688" lon="-2.20386">
        <ele>86.66</ele>
        <time>2012-08-16T12:19:39Z</time>
      </trkpt>
      <trkpt lat="48.05653" lon="-2.20371">
        <ele>87.62</ele>
        <time>2012-08-16T12:19:49Z</time>
      </trkpt>
      <trkpt lat="48.05626" lon="-2.20359">
        <ele>90.5</ele>
        <time>2012-08-16T12:19:59Z</time>
      </trkpt>
      <trkpt lat="48.05603" lon="-2.20341">
        <ele>92.9</ele>
        <time>2012-08-16T12:20:08Z</time>
      </trkpt>
      <trkpt lat="48.05581" lon="-2.2032">
        <ele>96.27</ele>
        <time>2012-08-16T12:20:18Z</time>
      </trkpt>
      <trkpt lat="48.0556" lon="-2.20299">
        <ele>98.19</ele>
        <time>2012-08-16T12:20:29Z</time>
      </trkpt>
      <trkpt lat="48.05541" lon="-2.20279">
        <ele>101.56</ele>
        <time>2012-08-16T12:20:40Z</time>
      </trkpt>
      <trkpt lat="48.0552" lon="-2.20264">
        <ele>103.48</ele>
        <time>2012-08-16T12:20:50Z</time>
      </trkpt>
      <trkpt lat="48.05511" lon="-2.2025">
        <ele>103.96</ele>
        <time>2012-08-16T12:20:56Z</time>
      </trkpt>
      <trkpt lat="48.05494" lon="-2.20231">
        <ele>103.96</ele>
        <time>2012-08-16T12:21:04Z</time>
      </trkpt>
      <trkpt lat="48.05475" lon="-2.20212">
        <ele>104.92</ele>
        <time>2012-08-16T12:21:13Z</time>
      </trkpt>
      <trkpt lat="48.05456" lon="-2.20184">
        <ele>105.4</ele>
        <time>2012-08-16T12:21:22Z</time>
      </trkpt>
      <trkpt lat="48.05428" lon="-2.2014">
        <ele>104.44</ele>
        <time>2012-08-16T12:21:31Z</time>
      </trkpt>
      <trkpt lat="48.05399" lon="-2.20092">
        <ele>102.52</ele>
        <time>2012-08-16T12:21:39Z</time>
      </trkpt>
      <trkpt lat="48.05366" lon="-2.20041">
        <ele>101.08</ele>
        <time>2012-08-16T12:21:47Z</time>
      </trkpt>
      <trkpt lat="48.05343" lon="-2.20006">
        <ele>99.63</ele>
        <time>2012-08-16T12:21:54Z</time>
      </trkpt>
      <trkpt lat="48.0533" lon="-2.19989">
        <ele>99.15</ele>
        <time>2012-08-16T12:22:01Z</time>
      </trkpt>
      <trkpt lat="48.05315" lon="-2.19966">
        <ele>100.6</ele>
        <time>2012-08-16T12:22:11Z</time>
      </trkpt>
      <trkpt lat="48.05293" lon="-2.19949">
        <ele>102.52</ele>
        <time>2012-08-16T12:22:21Z</time>
      </trkpt>
      <trkpt lat="48.0527" lon="-2.19943">
        <ele>105.4</ele>
        <time>2012-08-16T12:22:31Z</time>
      </trkpt>
      <trkpt lat="48.05253" lon="-2.19941">
        <ele>107.32</ele>
        <time>2012-08-16T12:22:39Z</time>
      </trkpt>
      <trkpt lat="48.05238" lon="-2.19936">
        <ele>109.25</ele>
        <time>2012-08-16T12:22:46Z</time>
      </trkpt>
      <trkpt lat="48.05218" lon="-2.1993">
        <ele>110.21</ele>
        <time>2012-08-16T12:22:55Z</time>
      </trkpt>
      <trkpt lat="48.05194" lon="-2.19924">
        <ele>111.65</ele>
        <time>2012-08-16T12:23:05Z</time>
      </trkpt>
      <trkpt lat="48.05175" lon="-2.1991">
        <ele>112.61</ele>
        <time>2012-08-16T12:23:14Z</time>
      </trkpt>
      <trkpt lat="48.05153" lon="-2.19886">
        <ele>115.01</ele>
        <time>2012-08-16T12:23:24Z</time>
      </trkpt>
      <trkpt lat="48.05135" lon="-2.19867">
        <ele>115.5</ele>
        <time>2012-08-16T12:23:32Z</time>
      </trkpt>
      <trkpt lat="48.05109" lon="-2.19835">
        <ele>115.5</ele>
        <time>2012-08-16T12:23:41Z</time>
      </trkpt>
      <trkpt lat="48.05104" lon="-2.19828">
        <ele>115.5</ele>
        <time>2012-08-16T12:23:43Z</time>
      </trkpt>
      <trkpt lat="48.05084" lon="-2.19809">
        <ele>115.5</ele>
        <time>2012-08-16T12:23:50Z</time>
      </trkpt>
      <trkpt lat="48.0507" lon="-2.19788">
        <ele>115.5</ele>
        <time>2012-08-16T12:23:58Z</time>
      </trkpt>
      <trkpt lat="48.05052" lon="-2.19769">
        <ele>115.01</ele>
        <time>2012-08-16T12:24:06Z</time>
      </trkpt>
      <trkpt lat="48.05034" lon="-2.19746">
        <ele>115.98</ele>
        <time>2012-08-16T12:24:15Z</time>
      </trkpt>
      <trkpt lat="48.05015" lon="-2.19725">
        <ele>116.94</ele>
        <time>2012-08-16T12:24:23Z</time>
      </trkpt>
      <trkpt lat="48.04992" lon="-2.197">
        <ele>116.94</ele>
        <time>2012-08-16T12:24:33Z</time>
      </trkpt>
      <trkpt lat="48.04973" lon="-2.19676">
        <ele>117.42</ele>
        <time>2012-08-16T12:24:42Z</time>
      </trkpt>
      <trkpt lat="48.04952" lon="-2.19651">
        <ele>119.34</ele>
        <time>2012-08-16T12:24:52Z</time>
      </trkpt>
      <trkpt lat="48.04929" lon="-2.19623">
        <ele>119.82</ele>
        <time>2012-08-16T12:25:03Z</time>
      </trkpt>
      <trkpt lat="48.0491" lon="-2.19602">
        <ele>120.78</ele>
        <time>2012-08-16T12:25:12Z</time>
      </trkpt>
      <trkpt lat="48.04886" lon="-2.19581">
        <ele>121.26</ele>
        <time>2012-08-16T12:25:22Z</time>
      </trkpt>
      <trkpt lat="48.04858" lon="-2.19561">
        <ele>121.74</ele>
        <time>2012-08-16T12:25:33Z</time>
      </trkpt>
      <trkpt lat="48.04832" lon="-2.19543">
        <ele>123.19</ele>
        <time>2012-08-16T12:25:44Z</time>
      </trkpt>
      <trkpt lat="48.04806" lon="-2.19525">
        <ele>125.11</ele>
        <time>2012-08-16T12:25:55Z</time>
      </trkpt>
      <trkpt lat="48.04779" lon="-2.19505">
        <ele>127.03</ele>
        <time>2012-08-16T12:26:07Z</time>
      </trkpt>
      <trkpt lat="48.04746" lon="-2.19481">
        <ele>129.92</ele>
        <time>2012-08-16T12:26:22Z</time>
      </trkpt>
      <trkpt lat="48.04718" lon="-2.19466">
        <ele>132.32</ele>
        <time>2012-08-16T12:26:35Z</time>
      </trkpt>
      <trkpt lat="48.04689" lon="-2.19458">
        <ele>134.24</ele>
        <time>2012-08-16T12:26:48Z</time>
      </trkpt>
      <trkpt lat="48.04664" lon="-2.1945">
        <ele>136.64</ele>
        <time>2012-08-16T12:26:59Z</time>
      </trkpt>
      <trkpt lat="48.04635" lon="-2.19442">
        <ele>137.61</ele>
        <time>2012-08-16T12:27:12Z</time>
      </trkpt>
      <trkpt lat="48.04608" lon="-2.19436">
        <ele>139.53</ele>
        <time>2012-08-16T12:27:24Z</time>
      </trkpt>
      <trkpt lat="48.04582" lon="-2.19436">
        <ele>140.49</ele>
        <time>2012-08-16T12:27:35Z</time>
      </trkpt>
      <trkpt lat="48.0455" lon="-2.19441">
        <ele>142.41</ele>
        <time>2012-08-16T12:27:48Z</time>
      </trkpt>
      <trkpt lat="48.04523" lon="-2.19446">
        <ele>143.85</ele>
        <time>2012-08-16T12:28:00Z</time>
      </trkpt>
      <trkpt lat="48.04499" lon="-2.19448">
        <ele>145.3</ele>
        <time>2012-08-16T12:28:10Z</time>
      </trkpt>
      <trkpt lat="48.04475" lon="-2.19448">
        <ele>145.78</ele>
        <time>2012-08-16T12:28:20Z</time>
      </trkpt>
      <trkpt lat="48.04449" lon="-2.19443">
        <ele>146.74</ele>
        <time>2012-08-16T12:28:31Z</time>
      </trkpt>
      <trkpt lat="48.04426" lon="-2.19437">
        <ele>148.18</ele>
        <time>2012-08-16T12:28:41Z</time>
      </trkpt>
      <trkpt lat="48.04395" lon="-2.19431">
        <ele>150.1</ele>
        <time>2012-08-16T12:28:54Z</time>
      </trkpt>
      <trkpt lat="48.04363" lon="-2.19429">
        <ele>151.54</ele>
        <time>2012-08-16T12:29:07Z</time>
      </trkpt>
      <trkpt lat="48.0433" lon="-2.19435">
        <ele>152.03</ele>
        <time>2012-08-16T12:29:20Z</time>
      </trkpt>
      <trkpt lat="48.04304" lon="-2.19442">
        <ele>152.99</ele>
        <time>2012-08-16T12:29:30Z</time>
      </trkpt>
      <trkpt lat="48.04275" lon="-2.1946">
        <ele>153.47</ele>
        <time>2012-08-16T12:29:42Z</time>
      </trkpt>
      <trkpt lat="48.04253" lon="-2.19477">
        <ele>155.39</ele>
        <time>2012-08-16T12:29:52Z</time>
      </trkpt>
      <trkpt lat="48.04227" lon="-2.19499">
        <ele>156.83</ele>
        <time>2012-08-16T12:30:04Z</time>
      </trkpt>
      <trkpt lat="48.04205" lon="-2.19514">
        <ele>158.27</ele>
        <time>2012-08-16T12:30:13Z</time>
      </trkpt>
      <trkpt lat="48.04179" lon="-2.19523">
        <ele>159.24</ele>
        <time>2012-08-16T12:30:23Z</time>
      </trkpt>
      <trkpt lat="48.04153" lon="-2.19525">
        <ele>159.72</ele>
        <time>2012-08-16T12:30:33Z</time>
      </trkpt>
      <trkpt lat="48.04125" lon="-2.19527">
        <ele>160.68</ele>
        <time>2012-08-16T12:30:44Z</time>
      </trkpt>
      <trkpt lat="48.04097" lon="-2.19528">
        <ele>161.16</ele>
        <time>2012-08-16T12:30:54Z</time>
      </trkpt>
      <trkpt lat="48.04066" lon="-2.19529">
        <ele>161.64</ele>
        <time>2012-08-16T12:31:06Z</time>
      </trkpt>
      <trkpt lat="48.04038" lon="-2.1953">
        <ele>163.08</ele>
        <time>2012-08-16T12:31:17Z</time>
      </trkpt>
      <trkpt lat="48.04012" lon="-2.19531">
        <ele>164.52</ele>
        <time>2012-08-16T12:31:27Z</time>
      </trkpt>
      <trkpt lat="48.03985" lon="-2.19526">
        <ele>165</ele>
        <time>2012-08-16T12:31:37Z</time>
      </trkpt>
      <trkpt lat="48.03955" lon="-2.19507">
        <ele>165.96</ele>
        <time>2012-08-16T12:31:48Z</time>
      </trkpt>
      <trkpt lat="48.03935" lon="-2.19486">
        <ele>166.93</ele>
        <time>2012-08-16T12:31:57Z</time>
      </trkpt>
      <trkpt lat="48.03915" lon="-2.19455">
        <ele>168.37</ele>
        <time>2012-08-16T12:32:08Z</time>
      </trkpt>
      <trkpt lat="48.03896" lon="-2.19429">
        <ele>169.81</ele>
        <time>2012-08-16T12:32:18Z</time>
      </trkpt>
      <trkpt lat="48.03868" lon="-2.19402">
        <ele>171.73</ele>
        <time>2012-08-16T12:32:31Z</time>
      </trkpt>
      <trkpt lat="48.03837" lon="-2.19387">
        <ele>173.66</ele>
        <time>2012-08-16T12:32:44Z</time>
      </trkpt>
      <trkpt lat="48.03805" lon="-2.19371">
        <ele>176.06</ele>
        <time>2012-08-16T12:32:57Z</time>
      </trkpt>
      <trkpt lat="48.03775" lon="-2.19356">
        <ele>178.46</ele>
        <time>2012-08-16T12:33:09Z</time>
      </trkpt>
      <trkpt lat="48.03748" lon="-2.19343">
        <ele>179.9</ele>
        <time>2012-08-16T12:33:21Z</time>
      </trkpt>
      <trkpt lat="48.03722" lon="-2.19334">
        <ele>181.83</ele>
        <time>2012-08-16T12:33:31Z</time>
      </trkpt>
      <trkpt lat="48.03694" lon="-2.19327">
        <ele>183.27</ele>
        <time>2012-08-16T12:33:41Z</time>
      </trkpt>
      <trkpt lat="48.03659" lon="-2.19321">
        <ele>184.23</ele>
        <time>2012-08-16T12:33:52Z</time>
      </trkpt>
      <trkpt lat="48.03634" lon="-2.19315">
        <ele>183.27</ele>
        <time>2012-08-16T12:34:01Z</time>
      </trkpt>
      <trkpt lat="48.03611" lon="-2.19307">
        <ele>182.79</ele>
        <time>2012-08-16T12:34:08Z</time>
      </trkpt>
      <trkpt lat="48.03586" lon="-2.19288">
        <ele>182.31</ele>
        <time>2012-08-16T12:34:15Z</time>
      </trkpt>
      <trkpt lat="48.03577" lon="-2.19277">
        <ele>181.35</ele>
        <time>2012-08-16T12:34:18Z</time>
      </trkpt>
      <trkpt lat="48.0355" lon="-2.19224">
        <ele>180.87</ele>
        <time>2012-08-16T12:34:27Z</time>
      </trkpt>
      <trkpt lat="48.03522" lon="-2.1917">
        <ele>179.9</ele>
        <time>2012-08-16T12:34:35Z</time>
      </trkpt>
      <trkpt lat="48.03488" lon="-2.19103">
        <ele>178.94</ele>
        <time>2012-08-16T12:34:45Z</time>
      </trkpt>
      <trkpt lat="48.03451" lon="-2.1903">
        <ele>177.5</ele>
        <time>2012-08-16T12:34:55Z</time>
      </trkpt>
      <trkpt lat="48.03413" lon="-2.18955">
        <ele>177.02</ele>
        <time>2012-08-16T12:35:05Z</time>
      </trkpt>
      <trkpt lat="48.03383" lon="-2.18899">
        <ele>176.06</ele>
        <time>2012-08-16T12:35:13Z</time>
      </trkpt>
      <trkpt lat="48.03354" lon="-2.18838">
        <ele>175.58</ele>
        <time>2012-08-16T12:35:22Z</time>
      </trkpt>
      <trkpt lat="48.03339" lon="-2.18805">
        <ele>174.62</ele>
        <time>2012-08-16T12:35:27Z</time>
      </trkpt>
      <trkpt lat="48.03324" lon="-2.18768">
        <ele>174.62</ele>
        <time>2012-08-16T12:35:32Z</time>
      </trkpt>
      <trkpt lat="48.033" lon="-2.18699">
        <ele>172.69</ele>
        <time>2012-08-16T12:35:40Z</time>
      </trkpt>
      <trkpt lat="48.03266" lon="-2.18642">
        <ele>170.77</ele>
        <time>2012-08-16T12:35:47Z</time>
      </trkpt>
      <trkpt lat="48.03237" lon="-2.1859">
        <ele>170.29</ele>
        <time>2012-08-16T12:35:54Z</time>
      </trkpt>
      <trkpt lat="48.03224" lon="-2.18559">
        <ele>170.77</ele>
        <time>2012-08-16T12:35:58Z</time>
      </trkpt>
      <trkpt lat="48.03186" lon="-2.18494">
        <ele>171.25</ele>
        <time>2012-08-16T12:36:09Z</time>
      </trkpt>
      <trkpt lat="48.03177" lon="-2.18475">
        <ele>170.77</ele>
        <time>2012-08-16T12:36:12Z</time>
      </trkpt>
      <trkpt lat="48.03147" lon="-2.1842">
        <ele>171.25</ele>
        <time>2012-08-16T12:36:21Z</time>
      </trkpt>
      <trkpt lat="48.03117" lon="-2.18362">
        <ele>170.77</ele>
        <time>2012-08-16T12:36:31Z</time>
      </trkpt>
      <trkpt lat="48.03082" lon="-2.18301">
        <ele>171.73</ele>
        <time>2012-08-16T12:36:42Z</time>
      </trkpt>
      <trkpt lat="48.0306" lon="-2.18257">
        <ele>172.69</ele>
        <time>2012-08-16T12:36:49Z</time>
      </trkpt>
      <trkpt lat="48.03034" lon="-2.18199">
        <ele>173.17</ele>
        <time>2012-08-16T12:36:58Z</time>
      </trkpt>
      <trkpt lat="48.03013" lon="-2.18157">
        <ele>173.17</ele>
        <time>2012-08-16T12:37:06Z</time>
      </trkpt>
      <trkpt lat="48.02988" lon="-2.1812">
        <ele>172.69</ele>
        <time>2012-08-16T12:37:15Z</time>
      </trkpt>
      <trkpt lat="48.02969" lon="-2.18091">
        <ele>172.21</ele>
        <time>2012-08-16T12:37:21Z</time>
      </trkpt>
      <trkpt lat="48.02953" lon="-2.18055">
        <ele>171.73</ele>
        <time>2012-08-16T12:37:25Z</time>
      </trkpt>
      <trkpt lat="48.02939" lon="-2.18049">
        <ele>170.29</ele>
        <time>2012-08-16T12:37:30Z</time>
      </trkpt>
      <trkpt lat="48.02935" lon="-2.18045">
        <ele>170.29</ele>
        <time>2012-08-16T12:37:35Z</time>
      </trkpt>
      <trkpt lat="48.02934" lon="-2.18044">
        <ele>166.45</ele>
        <time>2012-08-16T12:37:48Z</time>
      </trkpt>
      <trkpt lat="48.0293" lon="-2.18045">
        <ele>162.6</ele>
        <time>2012-08-16T12:38:05Z</time>
      </trkpt>
      <trkpt lat="48.02932" lon="-2.18045">
        <ele>164.52</ele>
        <time>2012-08-16T12:38:18Z</time>
      </trkpt>
      <trkpt lat="48.02932" lon="-2.18046">
        <ele>163.56</ele>
        <time>2012-08-16T12:38:32Z</time>
      </trkpt>
      <trkpt lat="48.02932" lon="-2.18046">
        <ele>163.08</ele>
        <time>2012-08-16T12:38:45Z</time>
      </trkpt>
      <trkpt lat="48.02933" lon="-2.18046">
        <ele>164.04</ele>
        <time>2012-08-16T12:38:58Z</time>
      </trkpt>
      <trkpt lat="48.02933" lon="-2.18044">
        <ele>164.04</ele>
        <time>2012-08-16T12:39:13Z</time>
      </trkpt>
      <trkpt lat="48.02933" lon="-2.18043">
        <ele>163.56</ele>
        <time>2012-08-16T12:39:26Z</time>
      </trkpt>
      <trkpt lat="48.02933" lon="-2.18043">
        <ele>163.56</ele>
        <time>2012-08-16T12:39:30Z</time>
      </trkpt>
      <trkpt lat="48.02933" lon="-2.18043">
        <ele>163.08</ele>
        <time>2012-08-16T12:39:39Z</time>
      </trkpt>
      <trkpt lat="48.02934" lon="-2.18042">
        <ele>163.08</ele>
        <time>2012-08-16T12:39:49Z</time>
      </trkpt>
      <trkpt lat="48.02934" lon="-2.18042">
        <ele>163.08</ele>
        <time>2012-08-16T12:39:50Z</time>
      </trkpt>
      <trkpt lat="48.02936" lon="-2.18034">
        <ele>163.08</ele>
        <time>2012-08-16T12:39:55Z</time>
      </trkpt>
      <trkpt lat="48.02927" lon="-2.18007">
        <ele>163.56</ele>
        <time>2012-08-16T12:40:03Z</time>
      </trkpt>
      <trkpt lat="48.02912" lon="-2.17977">
        <ele>164.52</ele>
        <time>2012-08-16T12:40:11Z</time>
      </trkpt>
      <trkpt lat="48.02898" lon="-2.17941">
        <ele>165.48</ele>
        <time>2012-08-16T12:40:20Z</time>
      </trkpt>
      <trkpt lat="48.02885" lon="-2.17898">
        <ele>165.96</ele>
        <time>2012-08-16T12:40:30Z</time>
      </trkpt>
      <trkpt lat="48.02862" lon="-2.17872">
        <ele>165.96</ele>
        <time>2012-08-16T12:40:37Z</time>
      </trkpt>
      <trkpt lat="48.02845" lon="-2.17836">
        <ele>165.96</ele>
        <time>2012-08-16T12:40:45Z</time>
      </trkpt>
      <trkpt lat="48.02826" lon="-2.17794">
        <ele>165</ele>
        <time>2012-08-16T12:40:54Z</time>
      </trkpt>
      <trkpt lat="48.02806" lon="-2.17749">
        <ele>165</ele>
        <time>2012-08-16T12:41:03Z</time>
      </trkpt>
      <trkpt lat="48.02779" lon="-2.17704">
        <ele>165</ele>
        <time>2012-08-16T12:41:12Z</time>
      </trkpt>
      <trkpt lat="48.02741" lon="-2.17668">
        <ele>166.45</ele>
        <time>2012-08-16T12:41:20Z</time>
      </trkpt>
      <trkpt lat="48.02714" lon="-2.17616">
        <ele>165.96</ele>
        <time>2012-08-16T12:41:29Z</time>
      </trkpt>
      <trkpt lat="48.0267" lon="-2.17547">
        <ele>165</ele>
        <time>2012-08-16T12:41:40Z</time>
      </trkpt>
      <trkpt lat="48.02627" lon="-2.17472">
        <ele>165</ele>
        <time>2012-08-16T12:41:52Z</time>
      </trkpt>
      <trkpt lat="48.02586" lon="-2.17399">
        <ele>165.48</ele>
        <time>2012-08-16T12:42:04Z</time>
      </trkpt>
      <trkpt lat="48.02553" lon="-2.1734">
        <ele>166.45</ele>
        <time>2012-08-16T12:42:14Z</time>
      </trkpt>
      <trkpt lat="48.02531" lon="-2.17315">
        <ele>165.96</ele>
        <time>2012-08-16T12:42:20Z</time>
      </trkpt>
      <trkpt lat="48.02494" lon="-2.17299">
        <ele>164.52</ele>
        <time>2012-08-16T12:42:27Z</time>
      </trkpt>
      <trkpt lat="48.02489" lon="-2.17298">
        <ele>164.52</ele>
        <time>2012-08-16T12:42:28Z</time>
      </trkpt>
      <trkpt lat="48.02437" lon="-2.17281">
        <ele>163.08</ele>
        <time>2012-08-16T12:42:38Z</time>
      </trkpt>
      <trkpt lat="48.02385" lon="-2.17261">
        <ele>163.08</ele>
        <time>2012-08-16T12:42:48Z</time>
      </trkpt>
      <trkpt lat="48.02332" lon="-2.17242">
        <ele>162.12</ele>
        <time>2012-08-16T12:42:58Z</time>
      </trkpt>
      <trkpt lat="48.02258" lon="-2.17212">
        <ele>160.68</ele>
        <time>2012-08-16T12:43:12Z</time>
      </trkpt>
      <trkpt lat="48.02213" lon="-2.17194">
        <ele>160.68</ele>
        <time>2012-08-16T12:43:21Z</time>
      </trkpt>
      <trkpt lat="48.02171" lon="-2.17166">
        <ele>161.16</ele>
        <time>2012-08-16T12:43:29Z</time>
      </trkpt>
      <trkpt lat="48.02132" lon="-2.17122">
        <ele>160.68</ele>
        <time>2012-08-16T12:43:36Z</time>
      </trkpt>
      <trkpt lat="48.02097" lon="-2.17101">
        <ele>159.24</ele>
        <time>2012-08-16T12:43:41Z</time>
      </trkpt>
      <trkpt lat="48.0205" lon="-2.17098">
        <ele>157.31</ele>
        <time>2012-08-16T12:43:48Z</time>
      </trkpt>
      <trkpt lat="48.02013" lon="-2.17096">
        <ele>156.35</ele>
        <time>2012-08-16T12:43:55Z</time>
      </trkpt>
      <trkpt lat="48.01979" lon="-2.17097">
        <ele>156.35</ele>
        <time>2012-08-16T12:44:03Z</time>
      </trkpt>
      <trkpt lat="48.01959" lon="-2.17091">
        <ele>157.31</ele>
        <time>2012-08-16T12:44:09Z</time>
      </trkpt>
      <trkpt lat="48.0193" lon="-2.17081">
        <ele>158.27</ele>
        <time>2012-08-16T12:44:20Z</time>
      </trkpt>
      <trkpt lat="48.01898" lon="-2.17064">
        <ele>160.2</ele>
        <time>2012-08-16T12:44:31Z</time>
      </trkpt>
      <trkpt lat="48.01869" lon="-2.17051">
        <ele>160.68</ele>
        <time>2012-08-16T12:44:40Z</time>
      </trkpt>
      <trkpt lat="48.01819" lon="-2.17031">
        <ele>162.12</ele>
        <time>2012-08-16T12:44:55Z</time>
      </trkpt>
      <trkpt lat="48.01783" lon="-2.17018">
        <ele>164.52</ele>
        <time>2012-08-16T12:45:05Z</time>
      </trkpt>
      <trkpt lat="48.01751" lon="-2.17007">
        <ele>164.52</ele>
        <time>2012-08-16T12:45:14Z</time>
      </trkpt>
      <trkpt lat="48.01714" lon="-2.16993">
        <ele>164.04</ele>
        <time>2012-08-16T12:45:24Z</time>
      </trkpt>
      <trkpt lat="48.01663" lon="-2.16975">
        <ele>164.52</ele>
        <time>2012-08-16T12:45:36Z</time>
      </trkpt>
      <trkpt lat="48.01608" lon="-2.16955">
        <ele>163.56</ele>
        <time>2012-08-16T12:45:48Z</time>
      </trkpt>
      <trkpt lat="48.0156" lon="-2.16938">
        <ele>163.56</ele>
        <time>2012-08-16T12:45:58Z</time>
      </trkpt>
      <trkpt lat="48.01517" lon="-2.16923">
        <ele>163.56</ele>
        <time>2012-08-16T12:46:08Z</time>
      </trkpt>
      <trkpt lat="48.01474" lon="-2.16908">
        <ele>163.08</ele>
        <time>2012-08-16T12:46:17Z</time>
      </trkpt>
      <trkpt lat="48.0147" lon="-2.16906">
        <ele>163.08</ele>
        <time>2012-08-16T12:46:18Z</time>
      </trkpt>
      <trkpt lat="48.01451" lon="-2.16911">
        <ele>162.6</ele>
        <time>2012-08-16T12:46:22Z</time>
      </trkpt>
      <trkpt lat="48.01435" lon="-2.16908">
        <ele>162.6</ele>
        <time>2012-08-16T12:46:26Z</time>
      </trkpt>
      <trkpt lat="48.01418" lon="-2.1689">
        <ele>162.6</ele>
        <time>2012-08-16T12:46:31Z</time>
      </trkpt>
      <trkpt lat="48.01367" lon="-2.16871">
        <ele>162.12</ele>
        <time>2012-08-16T12:46:43Z</time>
      </trkpt>
      <trkpt lat="48.01316" lon="-2.16852">
        <ele>161.16</ele>
        <time>2012-08-16T12:46:55Z</time>
      </trkpt>
      <trkpt lat="48.01281" lon="-2.16839">
        <ele>160.2</ele>
        <time>2012-08-16T12:47:04Z</time>
      </trkpt>
      <trkpt lat="48.0124" lon="-2.16817">
        <ele>159.72</ele>
        <time>2012-08-16T12:47:15Z</time>
      </trkpt>
      <trkpt lat="48.01212" lon="-2.16808">
        <ele>159.24</ele>
        <time>2012-08-16T12:47:23Z</time>
      </trkpt>
      <trkpt lat="48.01171" lon="-2.16822">
        <ele>158.75</ele>
        <time>2012-08-16T12:47:32Z</time>
      </trkpt>
      <trkpt lat="48.01133" lon="-2.16837">
        <ele>159.24</ele>
        <time>2012-08-16T12:47:40Z</time>
      </trkpt>
      <trkpt lat="48.0107" lon="-2.16839">
        <ele>159.24</ele>
        <time>2012-08-16T12:47:52Z</time>
      </trkpt>
      <trkpt lat="48.01011" lon="-2.16838">
        <ele>158.27</ele>
        <time>2012-08-16T12:48:02Z</time>
      </trkpt>
      <trkpt lat="48.00945" lon="-2.16838">
        <ele>157.31</ele>
        <time>2012-08-16T12:48:12Z</time>
      </trkpt>
      <trkpt lat="48.0087" lon="-2.16841">
        <ele>155.39</ele>
        <time>2012-08-16T12:48:23Z</time>
      </trkpt>
      <trkpt lat="48.00809" lon="-2.16848">
        <ele>156.83</ele>
        <time>2012-08-16T12:48:34Z</time>
      </trkpt>
      <trkpt lat="48.00762" lon="-2.16845">
        <ele>158.75</ele>
        <time>2012-08-16T12:48:44Z</time>
      </trkpt>
      <trkpt lat="48.00709" lon="-2.16836">
        <ele>160.68</ele>
        <time>2012-08-16T12:48:56Z</time>
      </trkpt>
      <trkpt lat="48.00653" lon="-2.16826">
        <ele>162.12</ele>
        <time>2012-08-16T12:49:09Z</time>
      </trkpt>
      <trkpt lat="48.00602" lon="-2.1682">
        <ele>163.08</ele>
        <time>2012-08-16T12:49:21Z</time>
      </trkpt>
      <trkpt lat="48.00539" lon="-2.16807">
        <ele>163.56</ele>
        <time>2012-08-16T12:49:35Z</time>
      </trkpt>
      <trkpt lat="48.00481" lon="-2.16794">
        <ele>163.08</ele>
        <time>2012-08-16T12:49:47Z</time>
      </trkpt>
      <trkpt lat="48.00439" lon="-2.16775">
        <ele>163.08</ele>
        <time>2012-08-16T12:49:56Z</time>
      </trkpt>
      <trkpt lat="48.00394" lon="-2.16755">
        <ele>163.08</ele>
        <time>2012-08-16T12:50:06Z</time>
      </trkpt>
      <trkpt lat="48.00345" lon="-2.16735">
        <ele>163.08</ele>
        <time>2012-08-16T12:50:16Z</time>
      </trkpt>
      <trkpt lat="48.00292" lon="-2.16708">
        <ele>163.08</ele>
        <time>2012-08-16T12:50:27Z</time>
      </trkpt>
      <trkpt lat="48.00235" lon="-2.16694">
        <ele>164.04</ele>
        <time>2012-08-16T12:50:39Z</time>
      </trkpt>
      <trkpt lat="48.00182" lon="-2.16686">
        <ele>165</ele>
        <time>2012-08-16T12:50:50Z</time>
      </trkpt>
      <trkpt lat="48.00124" lon="-2.16681">
        <ele>165.96</ele>
        <time>2012-08-16T12:51:01Z</time>
      </trkpt>
      <trkpt lat="48.00062" lon="-2.16684">
        <ele>165.96</ele>
        <time>2012-08-16T12:51:14Z</time>
      </trkpt>
      <trkpt lat="48.00039" lon="-2.16684">
        <ele>166.45</ele>
        <time>2012-08-16T12:51:19Z</time>
      </trkpt>
      <trkpt lat="47.99995" lon="-2.16682">
        <ele>166.93</ele>
        <time>2012-08-16T12:51:30Z</time>
      </trkpt>
      <trkpt lat="47.99961" lon="-2.1668">
        <ele>166.93</ele>
        <time>2012-08-16T12:51:38Z</time>
      </trkpt>
      <trkpt lat="47.99951" lon="-2.16681">
        <ele>166.45</ele>
        <time>2012-08-16T12:51:40Z</time>
      </trkpt>
      <trkpt lat="47.99907" lon="-2.16707">
        <ele>166.45</ele>
        <time>2012-08-16T12:51:49Z</time>
      </trkpt>
      <trkpt lat="47.99867" lon="-2.16739">
        <ele>166.45</ele>
        <time>2012-08-16T12:51:57Z</time>
      </trkpt>
      <trkpt lat="47.99828" lon="-2.16787">
        <ele>165.48</ele>
        <time>2012-08-16T12:52:06Z</time>
      </trkpt>
      <trkpt lat="47.99796" lon="-2.16843">
        <ele>164.52</ele>
        <time>2012-08-16T12:52:15Z</time>
      </trkpt>
      <trkpt lat="47.99763" lon="-2.16899">
        <ele>163.56</ele>
        <time>2012-08-16T12:52:23Z</time>
      </trkpt>
      <trkpt lat="47.99722" lon="-2.16957">
        <ele>162.12</ele>
        <time>2012-08-16T12:52:32Z</time>
      </trkpt>
      <trkpt lat="47.99678" lon="-2.17002">
        <ele>160.2</ele>
        <time>2012-08-16T12:52:40Z</time>
      </trkpt>
      <trkpt lat="47.99631" lon="-2.17073">
        <ele>157.79</ele>
        <time>2012-08-16T12:52:50Z</time>
      </trkpt>
      <trkpt lat="47.99592" lon="-2.17121">
        <ele>156.83</ele>
        <time>2012-08-16T12:52:58Z</time>
      </trkpt>
      <trkpt lat="47.99535" lon="-2.17167">
        <ele>155.39</ele>
        <time>2012-08-16T12:53:09Z</time>
      </trkpt>
      <trkpt lat="47.99488" lon="-2.17205">
        <ele>153.95</ele>
        <time>2012-08-16T12:53:18Z</time>
      </trkpt>
      <trkpt lat="47.99437" lon="-2.17248">
        <ele>152.51</ele>
        <time>2012-08-16T12:53:26Z</time>
      </trkpt>
      <trkpt lat="47.99412" lon="-2.17268">
        <ele>151.06</ele>
        <time>2012-08-16T12:53:30Z</time>
      </trkpt>
      <trkpt lat="47.99358" lon="-2.17282">
        <ele>149.14</ele>
        <time>2012-08-16T12:53:38Z</time>
      </trkpt>
      <trkpt lat="47.99323" lon="-2.17304">
        <ele>147.7</ele>
        <time>2012-08-16T12:53:44Z</time>
      </trkpt>
      <trkpt lat="47.99276" lon="-2.17349">
        <ele>145.78</ele>
        <time>2012-08-16T12:53:52Z</time>
      </trkpt>
      <trkpt lat="47.99233" lon="-2.1741">
        <ele>143.37</ele>
        <time>2012-08-16T12:53:59Z</time>
      </trkpt>
      <trkpt lat="47.99181" lon="-2.17498">
        <ele>139.53</ele>
        <time>2012-08-16T12:54:08Z</time>
      </trkpt>
      <trkpt lat="47.99158" lon="-2.1753">
        <ele>137.61</ele>
        <time>2012-08-16T12:54:13Z</time>
      </trkpt>
      <trkpt lat="47.99133" lon="-2.1755">
        <ele>136.64</ele>
        <time>2012-08-16T12:54:18Z</time>
      </trkpt>
      <trkpt lat="47.99112" lon="-2.17556">
        <ele>136.16</ele>
        <time>2012-08-16T12:54:22Z</time>
      </trkpt>
      <trkpt lat="47.99061" lon="-2.17547">
        <ele>135.2</ele>
        <time>2012-08-16T12:54:31Z</time>
      </trkpt>
      <trkpt lat="47.99011" lon="-2.17532">
        <ele>135.68</ele>
        <time>2012-08-16T12:54:40Z</time>
      </trkpt>
      <trkpt lat="47.98946" lon="-2.17513">
        <ele>136.16</ele>
        <time>2012-08-16T12:54:52Z</time>
      </trkpt>
      <trkpt lat="47.98891" lon="-2.17495">
        <ele>135.68</ele>
        <time>2012-08-16T12:55:02Z</time>
      </trkpt>
      <trkpt lat="47.98838" lon="-2.17478">
        <ele>135.68</ele>
        <time>2012-08-16T12:55:11Z</time>
      </trkpt>
      <trkpt lat="47.98786" lon="-2.17462">
        <ele>136.64</ele>
        <time>2012-08-16T12:55:20Z</time>
      </trkpt>
      <trkpt lat="47.98743" lon="-2.17448">
        <ele>137.61</ele>
        <time>2012-08-16T12:55:27Z</time>
      </trkpt>
      <trkpt lat="47.98695" lon="-2.17434">
        <ele>139.05</ele>
        <time>2012-08-16T12:55:36Z</time>
      </trkpt>
      <trkpt lat="47.9868" lon="-2.17433">
        <ele>139.53</ele>
        <time>2012-08-16T12:55:39Z</time>
      </trkpt>
      <trkpt lat="47.98657" lon="-2.17441">
        <ele>140.01</ele>
        <time>2012-08-16T12:55:44Z</time>
      </trkpt>
      <trkpt lat="47.98617" lon="-2.17468">
        <ele>140.49</ele>
        <time>2012-08-16T12:55:53Z</time>
      </trkpt>
      <trkpt lat="47.98579" lon="-2.175">
        <ele>140.49</ele>
        <time>2012-08-16T12:56:02Z</time>
      </trkpt>
      <trkpt lat="47.98539" lon="-2.17533">
        <ele>139.53</ele>
        <time>2012-08-16T12:56:10Z</time>
      </trkpt>
      <trkpt lat="47.98492" lon="-2.17574">
        <ele>137.61</ele>
        <time>2012-08-16T12:56:18Z</time>
      </trkpt>
      <trkpt lat="47.98446" lon="-2.17616">
        <ele>136.16</ele>
        <time>2012-08-16T12:56:25Z</time>
      </trkpt>
      <trkpt lat="47.98416" lon="-2.1762">
        <ele>136.16</ele>
        <time>2012-08-16T12:56:29Z</time>
      </trkpt>
      <trkpt lat="47.98405" lon="-2.17605">
        <ele>136.16</ele>
        <time>2012-08-16T12:56:31Z</time>
      </trkpt>
      <trkpt lat="47.98392" lon="-2.17584">
        <ele>136.16</ele>
        <time>2012-08-16T12:56:33Z</time>
      </trkpt>
      <trkpt lat="47.98347" lon="-2.17554">
        <ele>136.64</ele>
        <time>2012-08-16T12:56:38Z</time>
      </trkpt>
      <trkpt lat="47.98328" lon="-2.17577">
        <ele>136.16</ele>
        <time>2012-08-16T12:56:41Z</time>
      </trkpt>
      <trkpt lat="47.98312" lon="-2.17627">
        <ele>134.24</ele>
        <time>2012-08-16T12:56:46Z</time>
      </trkpt>
      <trkpt lat="47.98313" lon="-2.17638">
        <ele>134.24</ele>
        <time>2012-08-16T12:56:47Z</time>
      </trkpt>
      <trkpt lat="47.98312" lon="-2.17741">
        <ele>133.28</ele>
        <time>2012-08-16T12:56:56Z</time>
      </trkpt>
      <trkpt lat="47.98304" lon="-2.1783">
        <ele>133.28</ele>
        <time>2012-08-16T12:57:04Z</time>
      </trkpt>
      <trkpt lat="47.98294" lon="-2.17902">
        <ele>133.28</ele>
        <time>2012-08-16T12:57:10Z</time>
      </trkpt>
      <trkpt lat="47.98292" lon="-2.17939">
        <ele>133.28</ele>
        <time>2012-08-16T12:57:13Z</time>
      </trkpt>
      <trkpt lat="47.98276" lon="-2.17979">
        <ele>132.8</ele>
        <time>2012-08-16T12:57:18Z</time>
      </trkpt>
      <trkpt lat="47.98261" lon="-2.1797">
        <ele>132.32</ele>
        <time>2012-08-16T12:57:21Z</time>
      </trkpt>
      <trkpt lat="47.98248" lon="-2.17931">
        <ele>132.32</ele>
        <time>2012-08-16T12:57:25Z</time>
      </trkpt>
      <trkpt lat="47.98229" lon="-2.17854">
        <ele>131.84</ele>
        <time>2012-08-16T12:57:32Z</time>
      </trkpt>
      <trkpt lat="47.98204" lon="-2.17826">
        <ele>131.36</ele>
        <time>2012-08-16T12:57:36Z</time>
      </trkpt>
      <trkpt lat="47.98175" lon="-2.1783">
        <ele>130.4</ele>
        <time>2012-08-16T12:57:39Z</time>
      </trkpt>
      <trkpt lat="47.98158" lon="-2.17841">
        <ele>130.4</ele>
        <time>2012-08-16T12:57:41Z</time>
      </trkpt>
      <trkpt lat="47.98101" lon="-2.17917">
        <ele>128.47</ele>
        <time>2012-08-16T12:57:49Z</time>
      </trkpt>
      <trkpt lat="47.9809" lon="-2.17932">
        <ele>127.03</ele>
        <time>2012-08-16T12:57:51Z</time>
      </trkpt>
      <trkpt lat="47.9807" lon="-2.17947">
        <ele>120.3</ele>
        <time>2012-08-16T12:57:55Z</time>
      </trkpt>
      <trkpt lat="47.98039" lon="-2.17946">
        <ele>116.46</ele>
        <time>2012-08-16T12:58:02Z</time>
      </trkpt>
      <trkpt lat="47.98018" lon="-2.17942">
        <ele>114.53</ele>
        <time>2012-08-16T12:58:07Z</time>
      </trkpt>
      <trkpt lat="47.97994" lon="-2.17936">
        <ele>112.13</ele>
        <time>2012-08-16T12:58:13Z</time>
      </trkpt>
      <trkpt lat="47.97955" lon="-2.17926">
        <ele>109.25</ele>
        <time>2012-08-16T12:58:23Z</time>
      </trkpt>
      <trkpt lat="47.97925" lon="-2.17916">
        <ele>107.81</ele>
        <time>2012-08-16T12:58:32Z</time>
      </trkpt>
      <trkpt lat="47.97899" lon="-2.17908">
        <ele>106.84</ele>
        <time>2012-08-16T12:58:41Z</time>
      </trkpt>
      <trkpt lat="47.97874" lon="-2.17899">
        <ele>107.81</ele>
        <time>2012-08-16T12:58:51Z</time>
      </trkpt>
      <trkpt lat="47.97871" lon="-2.17898">
        <ele>107.81</ele>
        <time>2012-08-16T12:58:52Z</time>
      </trkpt>
      <trkpt lat="47.97854" lon="-2.17894">
        <ele>108.29</ele>
        <time>2012-08-16T12:58:59Z</time>
      </trkpt>
      <trkpt lat="47.97837" lon="-2.17894">
        <ele>107.81</ele>
        <time>2012-08-16T12:59:06Z</time>
      </trkpt>
      <trkpt lat="47.97824" lon="-2.179">
        <ele>107.81</ele>
        <time>2012-08-16T12:59:13Z</time>
      </trkpt>
      <trkpt lat="47.97809" lon="-2.17908">
        <ele>107.32</ele>
        <time>2012-08-16T12:59:22Z</time>
      </trkpt>
      <trkpt lat="47.97799" lon="-2.17914">
        <ele>111.65</ele>
        <time>2012-08-16T12:59:28Z</time>
      </trkpt>
      <trkpt lat="47.97779" lon="-2.17916">
        <ele>112.61</ele>
        <time>2012-08-16T12:59:38Z</time>
      </trkpt>
      <trkpt lat="47.97764" lon="-2.1791">
        <ele>115.01</ele>
        <time>2012-08-16T12:59:45Z</time>
      </trkpt>
      <trkpt lat="47.97747" lon="-2.17902">
        <ele>116.46</ele>
        <time>2012-08-16T12:59:53Z</time>
      </trkpt>
      <trkpt lat="47.97732" lon="-2.17891">
        <ele>117.42</ele>
        <time>2012-08-16T13:00:03Z</time>
      </trkpt>
      <trkpt lat="47.97718" lon="-2.17883">
        <ele>117.42</ele>
        <time>2012-08-16T13:00:10Z</time>
      </trkpt>
      <trkpt lat="47.97702" lon="-2.17873">
        <ele>118.86</ele>
        <time>2012-08-16T13:00:16Z</time>
      </trkpt>
      <trkpt lat="47.97682" lon="-2.17855">
        <ele>120.78</ele>
        <time>2012-08-16T13:00:24Z</time>
      </trkpt>
      <trkpt lat="47.97658" lon="-2.17834">
        <ele>120.78</ele>
        <time>2012-08-16T13:00:32Z</time>
      </trkpt>
      <trkpt lat="47.97633" lon="-2.17812">
        <ele>119.82</ele>
        <time>2012-08-16T13:00:39Z</time>
      </trkpt>
      <trkpt lat="47.9761" lon="-2.17794">
        <ele>119.82</ele>
        <time>2012-08-16T13:00:46Z</time>
      </trkpt>
      <trkpt lat="47.97587" lon="-2.17772">
        <ele>120.78</ele>
        <time>2012-08-16T13:00:53Z</time>
      </trkpt>
      <trkpt lat="47.97558" lon="-2.17747">
        <ele>122.71</ele>
        <time>2012-08-16T13:01:01Z</time>
      </trkpt>
      <trkpt lat="47.97526" lon="-2.17717">
        <ele>123.67</ele>
        <time>2012-08-16T13:01:10Z</time>
      </trkpt>
      <trkpt lat="47.97503" lon="-2.17699">
        <ele>125.59</ele>
        <time>2012-08-16T13:01:16Z</time>
      </trkpt>
      <trkpt lat="47.97477" lon="-2.17674">
        <ele>124.63</ele>
        <time>2012-08-16T13:01:24Z</time>
      </trkpt>
      <trkpt lat="47.97433" lon="-2.17632">
        <ele>125.59</ele>
        <time>2012-08-16T13:01:36Z</time>
      </trkpt>
      <trkpt lat="47.97399" lon="-2.17597">
        <ele>124.15</ele>
        <time>2012-08-16T13:01:46Z</time>
      </trkpt>
      <trkpt lat="47.97388" lon="-2.17587">
        <ele>124.63</ele>
        <time>2012-08-16T13:01:49Z</time>
      </trkpt>
      <trkpt lat="47.97363" lon="-2.17554">
        <ele>124.63</ele>
        <time>2012-08-16T13:01:57Z</time>
      </trkpt>
      <trkpt lat="47.97328" lon="-2.17503">
        <ele>124.15</ele>
        <time>2012-08-16T13:02:07Z</time>
      </trkpt>
      <trkpt lat="47.97307" lon="-2.1746">
        <ele>123.19</ele>
        <time>2012-08-16T13:02:14Z</time>
      </trkpt>
      <trkpt lat="47.97304" lon="-2.17454">
        <ele>123.19</ele>
        <time>2012-08-16T13:02:15Z</time>
      </trkpt>
      <trkpt lat="47.97292" lon="-2.17425">
        <ele>122.71</ele>
        <time>2012-08-16T13:02:20Z</time>
      </trkpt>
      <trkpt lat="47.97277" lon="-2.17393">
        <ele>122.71</ele>
        <time>2012-08-16T13:02:26Z</time>
      </trkpt>
      <trkpt lat="47.9726" lon="-2.17363">
        <ele>122.22</ele>
        <time>2012-08-16T13:02:32Z</time>
      </trkpt>
      <trkpt lat="47.97227" lon="-2.17337">
        <ele>122.71</ele>
        <time>2012-08-16T13:02:41Z</time>
      </trkpt>
      <trkpt lat="47.97198" lon="-2.17314">
        <ele>123.67</ele>
        <time>2012-08-16T13:02:51Z</time>
      </trkpt>
      <trkpt lat="47.97168" lon="-2.17293">
        <ele>124.15</ele>
        <time>2012-08-16T13:03:01Z</time>
      </trkpt>
      <trkpt lat="47.97142" lon="-2.17274">
        <ele>125.59</ele>
        <time>2012-08-16T13:03:10Z</time>
      </trkpt>
      <trkpt lat="47.9712" lon="-2.17256">
        <ele>125.59</ele>
        <time>2012-08-16T13:03:18Z</time>
      </trkpt>
      <trkpt lat="47.971" lon="-2.17233">
        <ele>127.03</ele>
        <time>2012-08-16T13:03:26Z</time>
      </trkpt>
      <trkpt lat="47.97073" lon="-2.17213">
        <ele>127.03</ele>
        <time>2012-08-16T13:03:36Z</time>
      </trkpt>
      <trkpt lat="47.97061" lon="-2.17198">
        <ele>127.03</ele>
        <time>2012-08-16T13:03:42Z</time>
      </trkpt>
      <trkpt lat="47.97062" lon="-2.1716">
        <ele>128.95</ele>
        <time>2012-08-16T13:03:50Z</time>
      </trkpt>
      <trkpt lat="47.97068" lon="-2.17119">
        <ele>130.4</ele>
        <time>2012-08-16T13:03:59Z</time>
      </trkpt>
      <trkpt lat="47.97079" lon="-2.17075">
        <ele>131.84</ele>
        <time>2012-08-16T13:04:08Z</time>
      </trkpt>
      <trkpt lat="47.97092" lon="-2.17028">
        <ele>133.76</ele>
        <time>2012-08-16T13:04:17Z</time>
      </trkpt>
      <trkpt lat="47.97098" lon="-2.17011">
        <ele>132.8</ele>
        <time>2012-08-16T13:04:20Z</time>
      </trkpt>
      <trkpt lat="47.971" lon="-2.17006">
        <ele>132.32</ele>
        <time>2012-08-16T13:04:21Z</time>
      </trkpt>
      <trkpt lat="47.97113" lon="-2.1697">
        <ele>130.4</ele>
        <time>2012-08-16T13:04:27Z</time>
      </trkpt>
      <trkpt lat="47.97123" lon="-2.16945">
        <ele>129.92</ele>
        <time>2012-08-16T13:04:31Z</time>
      </trkpt>
      <trkpt lat="47.97126" lon="-2.16938">
        <ele>129.92</ele>
        <time>2012-08-16T13:04:32Z</time>
      </trkpt>
      <trkpt lat="47.97132" lon="-2.16924">
        <ele>129.43</ele>
        <time>2012-08-16T13:04:34Z</time>
      </trkpt>
      <trkpt lat="47.97146" lon="-2.16893">
        <ele>128.47</ele>
        <time>2012-08-16T13:04:38Z</time>
      </trkpt>
      <trkpt lat="47.97148" lon="-2.16883">
        <ele>127.99</ele>
        <time>2012-08-16T13:04:39Z</time>
      </trkpt>
      <trkpt lat="47.97148" lon="-2.16874">
        <ele>127.51</ele>
        <time>2012-08-16T13:04:40Z</time>
      </trkpt>
      <trkpt lat="47.97145" lon="-2.16865">
        <ele>127.03</ele>
        <time>2012-08-16T13:04:41Z</time>
      </trkpt>
      <trkpt lat="47.97139" lon="-2.16858">
        <ele>126.55</ele>
        <time>2012-08-16T13:04:42Z</time>
      </trkpt>
      <trkpt lat="47.97103" lon="-2.16825">
        <ele>124.63</ele>
        <time>2012-08-16T13:04:48Z</time>
      </trkpt>
      <trkpt lat="47.97067" lon="-2.16793">
        <ele>122.71</ele>
        <time>2012-08-16T13:04:54Z</time>
      </trkpt>
      <trkpt lat="47.97044" lon="-2.16751">
        <ele>120.78</ele>
        <time>2012-08-16T13:04:59Z</time>
      </trkpt>
      <trkpt lat="47.97012" lon="-2.16716">
        <ele>119.34</ele>
        <time>2012-08-16T13:05:04Z</time>
      </trkpt>
      <trkpt lat="47.96988" lon="-2.16702">
        <ele>117.9</ele>
        <time>2012-08-16T13:05:07Z</time>
      </trkpt>
      <trkpt lat="47.96945" lon="-2.16684">
        <ele>115.5</ele>
        <time>2012-08-16T13:05:12Z</time>
      </trkpt>
      <trkpt lat="47.96909" lon="-2.16644">
        <ele>113.57</ele>
        <time>2012-08-16T13:05:17Z</time>
      </trkpt>
      <trkpt lat="47.96903" lon="-2.16633">
        <ele>113.09</ele>
        <time>2012-08-16T13:05:18Z</time>
      </trkpt>
      <trkpt lat="47.96876" lon="-2.16554">
        <ele>110.21</ele>
        <time>2012-08-16T13:05:24Z</time>
      </trkpt>
      <trkpt lat="47.96843" lon="-2.16436">
        <ele>105.88</ele>
        <time>2012-08-16T13:05:32Z</time>
      </trkpt>
      <trkpt lat="47.96804" lon="-2.16332">
        <ele>101.08</ele>
        <time>2012-08-16T13:05:39Z</time>
      </trkpt>
      <trkpt lat="47.96736" lon="-2.16174">
        <ele>94.35</ele>
        <time>2012-08-16T13:05:50Z</time>
      </trkpt>
      <trkpt lat="47.96681" lon="-2.16053">
        <ele>89.54</ele>
        <time>2012-08-16T13:05:59Z</time>
      </trkpt>
      <trkpt lat="47.96638" lon="-2.15994">
        <ele>87.62</ele>
        <time>2012-08-16T13:06:05Z</time>
      </trkpt>
      <trkpt lat="47.96572" lon="-2.15926">
        <ele>85.69</ele>
        <time>2012-08-16T13:06:14Z</time>
      </trkpt>
      <trkpt lat="47.96517" lon="-2.15859">
        <ele>84.25</ele>
        <time>2012-08-16T13:06:23Z</time>
      </trkpt>
      <trkpt lat="47.96469" lon="-2.15779">
        <ele>82.81</ele>
        <time>2012-08-16T13:06:32Z</time>
      </trkpt>
      <trkpt lat="47.96429" lon="-2.15685">
        <ele>81.85</ele>
        <time>2012-08-16T13:06:41Z</time>
      </trkpt>
      <trkpt lat="47.96394" lon="-2.15591">
        <ele>80.41</ele>
        <time>2012-08-16T13:06:50Z</time>
      </trkpt>
      <trkpt lat="47.96372" lon="-2.15535">
        <ele>82.33</ele>
        <time>2012-08-16T13:06:57Z</time>
      </trkpt>
      <trkpt lat="47.96355" lon="-2.15487">
        <ele>84.73</ele>
        <time>2012-08-16T13:07:05Z</time>
      </trkpt>
      <trkpt lat="47.9634" lon="-2.15433">
        <ele>86.66</ele>
        <time>2012-08-16T13:07:15Z</time>
      </trkpt>
      <trkpt lat="47.96334" lon="-2.15393">
        <ele>88.1</ele>
        <time>2012-08-16T13:07:23Z</time>
      </trkpt>
      <trkpt lat="47.96326" lon="-2.15336">
        <ele>88.58</ele>
        <time>2012-08-16T13:07:34Z</time>
      </trkpt>
      <trkpt lat="47.96317" lon="-2.15275">
        <ele>89.06</ele>
        <time>2012-08-16T13:07:45Z</time>
      </trkpt>
      <trkpt lat="47.96312" lon="-2.15252">
        <ele>89.06</ele>
        <time>2012-08-16T13:07:51Z</time>
      </trkpt>
      <trkpt lat="47.96312" lon="-2.15252">
        <ele>89.54</ele>
        <time>2012-08-16T13:07:58Z</time>
      </trkpt>
      <trkpt lat="47.96309" lon="-2.15254">
        <ele>90.98</ele>
        <time>2012-08-16T13:08:12Z</time>
      </trkpt>
      <trkpt lat="47.96307" lon="-2.15253">
        <ele>90.98</ele>
        <time>2012-08-16T13:08:30Z</time>
      </trkpt>
      <trkpt lat="47.96305" lon="-2.15256">
        <ele>90.5</ele>
        <time>2012-08-16T13:08:47Z</time>
      </trkpt>
      <trkpt lat="47.96306" lon="-2.15257">
        <ele>90.98</ele>
        <time>2012-08-16T13:09:03Z</time>
      </trkpt>
      <trkpt lat="47.96306" lon="-2.15256">
        <ele>90.02</ele>
        <time>2012-08-16T13:09:20Z</time>
      </trkpt>
      <trkpt lat="47.96309" lon="-2.15255">
        <ele>88.58</ele>
        <time>2012-08-16T13:09:36Z</time>
      </trkpt>
      <trkpt lat="47.9631" lon="-2.15254">
        <ele>88.58</ele>
        <time>2012-08-16T13:09:53Z</time>
      </trkpt>
      <trkpt lat="47.96311" lon="-2.15254">
        <ele>88.1</ele>
        <time>2012-08-16T13:10:08Z</time>
      </trkpt>
      <trkpt lat="47.9631" lon="-2.15253">
        <ele>88.58</ele>
        <time>2012-08-16T13:10:21Z</time>
      </trkpt>
      <trkpt lat="47.9631" lon="-2.15252">
        <ele>88.1</ele>
        <time>2012-08-16T13:10:31Z</time>
      </trkpt>
      <trkpt lat="47.96309" lon="-2.15253">
        <ele>89.06</ele>
        <time>2012-08-16T13:10:46Z</time>
      </trkpt>
      <trkpt lat="47.96308" lon="-2.15254">
        <ele>89.54</ele>
        <time>2012-08-16T13:10:59Z</time>
      </trkpt>
      <trkpt lat="47.96309" lon="-2.15253">
        <ele>89.54</ele>
        <time>2012-08-16T13:11:11Z</time>
      </trkpt>
      <trkpt lat="47.96309" lon="-2.15253">
        <ele>89.54</ele>
        <time>2012-08-16T13:11:27Z</time>
      </trkpt>
      <trkpt lat="47.96308" lon="-2.15253">
        <ele>89.54</ele>
        <time>2012-08-16T13:11:40Z</time>
      </trkpt>
      <trkpt lat="47.96309" lon="-2.15253">
        <ele>90.02</ele>
        <time>2012-08-16T13:11:57Z</time>
      </trkpt>
      <trkpt lat="47.96309" lon="-2.15249">
        <ele>90.5</ele>
        <time>2012-08-16T13:12:05Z</time>
      </trkpt>
      <trkpt lat="47.96309" lon="-2.15246">
        <ele>90.5</ele>
        <time>2012-08-16T13:12:07Z</time>
      </trkpt>
      <trkpt lat="47.96305" lon="-2.15222">
        <ele>90.98</ele>
        <time>2012-08-16T13:12:15Z</time>
      </trkpt>
      <trkpt lat="47.96301" lon="-2.15181">
        <ele>91.46</ele>
        <time>2012-08-16T13:12:23Z</time>
      </trkpt>
      <trkpt lat="47.96295" lon="-2.15132">
        <ele>90.98</ele>
        <time>2012-08-16T13:12:30Z</time>
      </trkpt>
      <trkpt lat="47.96285" lon="-2.15075">
        <ele>91.46</ele>
        <time>2012-08-16T13:12:37Z</time>
      </trkpt>
      <trkpt lat="47.96278" lon="-2.15029">
        <ele>90.98</ele>
        <time>2012-08-16T13:12:42Z</time>
      </trkpt>
      <trkpt lat="47.96261" lon="-2.14982">
        <ele>90.5</ele>
        <time>2012-08-16T13:12:47Z</time>
      </trkpt>
      <trkpt lat="47.96224" lon="-2.1494">
        <ele>89.54</ele>
        <time>2012-08-16T13:12:53Z</time>
      </trkpt>
      <trkpt lat="47.96158" lon="-2.14897">
        <ele>89.54</ele>
        <time>2012-08-16T13:13:02Z</time>
      </trkpt>
      <trkpt lat="47.96095" lon="-2.14857">
        <ele>89.06</ele>
        <time>2012-08-16T13:13:10Z</time>
      </trkpt>
      <trkpt lat="47.96061" lon="-2.14835">
        <ele>88.58</ele>
        <time>2012-08-16T13:13:14Z</time>
      </trkpt>
      <trkpt lat="47.96025" lon="-2.14836">
        <ele>87.14</ele>
        <time>2012-08-16T13:13:18Z</time>
      </trkpt>
      <trkpt lat="47.95976" lon="-2.14853">
        <ele>84.73</ele>
        <time>2012-08-16T13:13:24Z</time>
      </trkpt>
      <trkpt lat="47.95949" lon="-2.14846">
        <ele>82.33</ele>
        <time>2012-08-16T13:13:29Z</time>
      </trkpt>
      <trkpt lat="47.95933" lon="-2.14823">
        <ele>80.41</ele>
        <time>2012-08-16T13:13:34Z</time>
      </trkpt>
      <trkpt lat="47.9593" lon="-2.14818">
        <ele>80.41</ele>
        <time>2012-08-16T13:13:35Z</time>
      </trkpt>
      <trkpt lat="47.95912" lon="-2.14745">
        <ele>78.48</ele>
        <time>2012-08-16T13:13:45Z</time>
      </trkpt>
      <trkpt lat="47.959" lon="-2.14687">
        <ele>77.04</ele>
        <time>2012-08-16T13:13:52Z</time>
      </trkpt>
      <trkpt lat="47.95893" lon="-2.14655">
        <ele>76.08</ele>
        <time>2012-08-16T13:13:56Z</time>
      </trkpt>
      <trkpt lat="47.95884" lon="-2.14625">
        <ele>74.16</ele>
        <time>2012-08-16T13:14:00Z</time>
      </trkpt>
      <trkpt lat="47.95859" lon="-2.14577">
        <ele>71.76</ele>
        <time>2012-08-16T13:14:07Z</time>
      </trkpt>
      <trkpt lat="47.95816" lon="-2.14524">
        <ele>71.27</ele>
        <time>2012-08-16T13:14:17Z</time>
      </trkpt>
      <trkpt lat="47.9578" lon="-2.1451">
        <ele>70.79</ele>
        <time>2012-08-16T13:14:24Z</time>
      </trkpt>
      <trkpt lat="47.95751" lon="-2.14521">
        <ele>71.27</ele>
        <time>2012-08-16T13:14:30Z</time>
      </trkpt>
      <trkpt lat="47.95702" lon="-2.14564">
        <ele>71.27</ele>
        <time>2012-08-16T13:14:43Z</time>
      </trkpt>
      <trkpt lat="47.95663" lon="-2.14593">
        <ele>71.76</ele>
        <time>2012-08-16T13:14:53Z</time>
      </trkpt>
      <trkpt lat="47.95621" lon="-2.14608">
        <ele>72.72</ele>
        <time>2012-08-16T13:15:03Z</time>
      </trkpt>
      <trkpt lat="47.95596" lon="-2.14606">
        <ele>73.68</ele>
        <time>2012-08-16T13:15:10Z</time>
      </trkpt>
      <trkpt lat="47.95566" lon="-2.14598">
        <ele>74.16</ele>
        <time>2012-08-16T13:15:20Z</time>
      </trkpt>
      <trkpt lat="47.95533" lon="-2.14587">
        <ele>75.12</ele>
        <time>2012-08-16T13:15:31Z</time>
      </trkpt>
      <trkpt lat="47.95509" lon="-2.14573">
        <ele>75.6</ele>
        <time>2012-08-16T13:15:40Z</time>
      </trkpt>
      <trkpt lat="47.95493" lon="-2.14551">
        <ele>75.6</ele>
        <time>2012-08-16T13:15:49Z</time>
      </trkpt>
      <trkpt lat="47.95482" lon="-2.14522">
        <ele>77.04</ele>
        <time>2012-08-16T13:15:58Z</time>
      </trkpt>
      <trkpt lat="47.95474" lon="-2.14485">
        <ele>79.93</ele>
        <time>2012-08-16T13:16:07Z</time>
      </trkpt>
      <trkpt lat="47.95471" lon="-2.14455">
        <ele>80.89</ele>
        <time>2012-08-16T13:16:15Z</time>
      </trkpt>
      <trkpt lat="47.95471" lon="-2.1442">
        <ele>82.81</ele>
        <time>2012-08-16T13:16:24Z</time>
      </trkpt>
      <trkpt lat="47.95471" lon="-2.1439">
        <ele>83.77</ele>
        <time>2012-08-16T13:16:32Z</time>
      </trkpt>
      <trkpt lat="47.95465" lon="-2.14357">
        <ele>85.69</ele>
        <time>2012-08-16T13:16:41Z</time>
      </trkpt>
      <trkpt lat="47.95453" lon="-2.14326">
        <ele>87.14</ele>
        <time>2012-08-16T13:16:50Z</time>
      </trkpt>
      <trkpt lat="47.9544" lon="-2.14304">
        <ele>89.06</ele>
        <time>2012-08-16T13:16:58Z</time>
      </trkpt>
      <trkpt lat="47.95422" lon="-2.14287">
        <ele>89.54</ele>
        <time>2012-08-16T13:17:06Z</time>
      </trkpt>
      <trkpt lat="47.954" lon="-2.14262">
        <ele>90.98</ele>
        <time>2012-08-16T13:17:16Z</time>
      </trkpt>
      <trkpt lat="47.95385" lon="-2.14233">
        <ele>91.94</ele>
        <time>2012-08-16T13:17:25Z</time>
      </trkpt>
      <trkpt lat="47.95375" lon="-2.14201">
        <ele>91.94</ele>
        <time>2012-08-16T13:17:34Z</time>
      </trkpt>
      <trkpt lat="47.95368" lon="-2.14168">
        <ele>91.46</ele>
        <time>2012-08-16T13:17:42Z</time>
      </trkpt>
      <trkpt lat="47.9536" lon="-2.14128">
        <ele>90.98</ele>
        <time>2012-08-16T13:17:51Z</time>
      </trkpt>
      <trkpt lat="47.95349" lon="-2.14075">
        <ele>90.02</ele>
        <time>2012-08-16T13:18:02Z</time>
      </trkpt>
      <trkpt lat="47.95341" lon="-2.14034">
        <ele>90.02</ele>
        <time>2012-08-16T13:18:10Z</time>
      </trkpt>
      <trkpt lat="47.9533" lon="-2.13992">
        <ele>90.02</ele>
        <time>2012-08-16T13:18:19Z</time>
      </trkpt>
      <trkpt lat="47.95324" lon="-2.13958">
        <ele>89.54</ele>
        <time>2012-08-16T13:18:28Z</time>
      </trkpt>
      <trkpt lat="47.95316" lon="-2.13928">
        <ele>90.02</ele>
        <time>2012-08-16T13:18:36Z</time>
      </trkpt>
      <trkpt lat="47.95306" lon="-2.13896">
        <ele>91.46</ele>
        <time>2012-08-16T13:18:45Z</time>
      </trkpt>
      <trkpt lat="47.95296" lon="-2.13867">
        <ele>92.9</ele>
        <time>2012-08-16T13:18:53Z</time>
      </trkpt>
      <trkpt lat="47.95283" lon="-2.13832">
        <ele>93.87</ele>
        <time>2012-08-16T13:19:03Z</time>
      </trkpt>
      <trkpt lat="47.95271" lon="-2.13794">
        <ele>95.79</ele>
        <time>2012-08-16T13:19:14Z</time>
      </trkpt>
      <trkpt lat="47.95257" lon="-2.13757">
        <ele>98.19</ele>
        <time>2012-08-16T13:19:25Z</time>
      </trkpt>
      <trkpt lat="47.95242" lon="-2.13716">
        <ele>100.11</ele>
        <time>2012-08-16T13:19:37Z</time>
      </trkpt>
      <trkpt lat="47.95229" lon="-2.13682">
        <ele>101.08</ele>
        <time>2012-08-16T13:19:47Z</time>
      </trkpt>
      <trkpt lat="47.95216" lon="-2.13658">
        <ele>101.56</ele>
        <time>2012-08-16T13:19:55Z</time>
      </trkpt>
      <trkpt lat="47.95199" lon="-2.13629">
        <ele>102.52</ele>
        <time>2012-08-16T13:20:05Z</time>
      </trkpt>
      <trkpt lat="47.95181" lon="-2.13606">
        <ele>102.52</ele>
        <time>2012-08-16T13:20:14Z</time>
      </trkpt>
      <trkpt lat="47.95162" lon="-2.13582">
        <ele>102.52</ele>
        <time>2012-08-16T13:20:24Z</time>
      </trkpt>
      <trkpt lat="47.95142" lon="-2.13565">
        <ele>103</ele>
        <time>2012-08-16T13:20:33Z</time>
      </trkpt>
      <trkpt lat="47.95112" lon="-2.13548">
        <ele>103.96</ele>
        <time>2012-08-16T13:20:44Z</time>
      </trkpt>
      <trkpt lat="47.95084" lon="-2.13537">
        <ele>104.44</ele>
        <time>2012-08-16T13:20:54Z</time>
      </trkpt>
      <trkpt lat="47.95058" lon="-2.13532">
        <ele>106.36</ele>
        <time>2012-08-16T13:21:03Z</time>
      </trkpt>
      <trkpt lat="47.95026" lon="-2.13529">
        <ele>106.84</ele>
        <time>2012-08-16T13:21:15Z</time>
      </trkpt>
      <trkpt lat="47.94997" lon="-2.13525">
        <ele>106.36</ele>
        <time>2012-08-16T13:21:25Z</time>
      </trkpt>
      <trkpt lat="47.94964" lon="-2.13521">
        <ele>105.4</ele>
        <time>2012-08-16T13:21:36Z</time>
      </trkpt>
      <trkpt lat="47.94933" lon="-2.13516">
        <ele>104.44</ele>
        <time>2012-08-16T13:21:46Z</time>
      </trkpt>
      <trkpt lat="47.94901" lon="-2.13513">
        <ele>105.4</ele>
        <time>2012-08-16T13:21:55Z</time>
      </trkpt>
      <trkpt lat="47.94873" lon="-2.13507">
        <ele>108.77</ele>
        <time>2012-08-16T13:22:05Z</time>
      </trkpt>
      <trkpt lat="47.94847" lon="-2.13499">
        <ele>109.73</ele>
        <time>2012-08-16T13:22:15Z</time>
      </trkpt>
      <trkpt lat="47.94823" lon="-2.13485">
        <ele>113.09</ele>
        <time>2012-08-16T13:22:25Z</time>
      </trkpt>
      <trkpt lat="47.94797" lon="-2.13463">
        <ele>116.46</ele>
        <time>2012-08-16T13:22:34Z</time>
      </trkpt>
      <trkpt lat="47.94764" lon="-2.13431">
        <ele>117.9</ele>
        <time>2012-08-16T13:22:44Z</time>
      </trkpt>
      <trkpt lat="47.94727" lon="-2.13392">
        <ele>118.86</ele>
        <time>2012-08-16T13:22:54Z</time>
      </trkpt>
      <trkpt lat="47.94689" lon="-2.13354">
        <ele>119.34</ele>
        <time>2012-08-16T13:23:03Z</time>
      </trkpt>
      <trkpt lat="47.94657" lon="-2.13319">
        <ele>120.78</ele>
        <time>2012-08-16T13:23:12Z</time>
      </trkpt>
      <trkpt lat="47.94616" lon="-2.1328">
        <ele>122.22</ele>
        <time>2012-08-16T13:23:23Z</time>
      </trkpt>
      <trkpt lat="47.94578" lon="-2.13249">
        <ele>121.74</ele>
        <time>2012-08-16T13:23:32Z</time>
      </trkpt>
      <trkpt lat="47.94546" lon="-2.13223">
        <ele>121.26</ele>
        <time>2012-08-16T13:23:39Z</time>
      </trkpt>
      <trkpt lat="47.94503" lon="-2.13192">
        <ele>119.82</ele>
        <time>2012-08-16T13:23:48Z</time>
      </trkpt>
      <trkpt lat="47.94463" lon="-2.13164">
        <ele>118.38</ele>
        <time>2012-08-16T13:23:57Z</time>
      </trkpt>
      <trkpt lat="47.94421" lon="-2.13137">
        <ele>118.86</ele>
        <time>2012-08-16T13:24:06Z</time>
      </trkpt>
      <trkpt lat="47.94412" lon="-2.13132">
        <ele>118.86</ele>
        <time>2012-08-16T13:24:08Z</time>
      </trkpt>
      <trkpt lat="47.94368" lon="-2.13126">
        <ele>117.9</ele>
        <time>2012-08-16T13:24:18Z</time>
      </trkpt>
      <trkpt lat="47.94359" lon="-2.13125">
        <ele>117.9</ele>
        <time>2012-08-16T13:24:20Z</time>
      </trkpt>
      <trkpt lat="47.9434" lon="-2.13127">
        <ele>117.42</ele>
        <time>2012-08-16T13:24:24Z</time>
      </trkpt>
      <trkpt lat="47.94288" lon="-2.13156">
        <ele>116.46</ele>
        <time>2012-08-16T13:24:35Z</time>
      </trkpt>
      <trkpt lat="47.94271" lon="-2.13167">
        <ele>115.98</ele>
        <time>2012-08-16T13:24:38Z</time>
      </trkpt>
      <trkpt lat="47.94227" lon="-2.1319">
        <ele>114.05</ele>
        <time>2012-08-16T13:24:45Z</time>
      </trkpt>
      <trkpt lat="47.94167" lon="-2.13227">
        <ele>111.17</ele>
        <time>2012-08-16T13:24:54Z</time>
      </trkpt>
      <trkpt lat="47.94114" lon="-2.13261">
        <ele>109.25</ele>
        <time>2012-08-16T13:25:02Z</time>
      </trkpt>
      <trkpt lat="47.94067" lon="-2.13289">
        <ele>108.29</ele>
        <time>2012-08-16T13:25:09Z</time>
      </trkpt>
      <trkpt lat="47.94053" lon="-2.13296">
        <ele>107.81</ele>
        <time>2012-08-16T13:25:11Z</time>
      </trkpt>
      <trkpt lat="47.94003" lon="-2.13327">
        <ele>105.88</ele>
        <time>2012-08-16T13:25:18Z</time>
      </trkpt>
      <trkpt lat="47.93973" lon="-2.13323">
        <ele>104.44</ele>
        <time>2012-08-16T13:25:22Z</time>
      </trkpt>
      <trkpt lat="47.93911" lon="-2.13289">
        <ele>102.52</ele>
        <time>2012-08-16T13:25:30Z</time>
      </trkpt>
      <trkpt lat="47.93864" lon="-2.13253">
        <ele>99.63</ele>
        <time>2012-08-16T13:25:37Z</time>
      </trkpt>
      <trkpt lat="47.9382" lon="-2.1321">
        <ele>97.71</ele>
        <time>2012-08-16T13:25:45Z</time>
      </trkpt>
      <trkpt lat="47.93786" lon="-2.13176">
        <ele>97.71</ele>
        <time>2012-08-16T13:25:52Z</time>
      </trkpt>
      <trkpt lat="47.93758" lon="-2.13149">
        <ele>96.75</ele>
        <time>2012-08-16T13:25:58Z</time>
      </trkpt>
      <trkpt lat="47.93739" lon="-2.13128">
        <ele>97.23</ele>
        <time>2012-08-16T13:26:02Z</time>
      </trkpt>
      <trkpt lat="47.93707" lon="-2.13099">
        <ele>95.79</ele>
        <time>2012-08-16T13:26:08Z</time>
      </trkpt>
      <trkpt lat="47.93656" lon="-2.13059">
        <ele>93.87</ele>
        <time>2012-08-16T13:26:17Z</time>
      </trkpt>
      <trkpt lat="47.93623" lon="-2.13034">
        <ele>92.9</ele>
        <time>2012-08-16T13:26:23Z</time>
      </trkpt>
      <trkpt lat="47.93574" lon="-2.13019">
        <ele>90.5</ele>
        <time>2012-08-16T13:26:31Z</time>
      </trkpt>
      <trkpt lat="47.93506" lon="-2.12998">
        <ele>88.58</ele>
        <time>2012-08-16T13:26:42Z</time>
      </trkpt>
      <trkpt lat="47.93466" lon="-2.12971">
        <ele>88.58</ele>
        <time>2012-08-16T13:26:49Z</time>
      </trkpt>
      <trkpt lat="47.93406" lon="-2.12922">
        <ele>88.1</ele>
        <time>2012-08-16T13:27:00Z</time>
      </trkpt>
      <trkpt lat="47.93365" lon="-2.12889">
        <ele>87.62</ele>
        <time>2012-08-16T13:27:08Z</time>
      </trkpt>
      <trkpt lat="47.93315" lon="-2.12848">
        <ele>88.1</ele>
        <time>2012-08-16T13:27:18Z</time>
      </trkpt>
      <trkpt lat="47.93264" lon="-2.12811">
        <ele>87.14</ele>
        <time>2012-08-16T13:27:28Z</time>
      </trkpt>
      <trkpt lat="47.93222" lon="-2.12785">
        <ele>87.62</ele>
        <time>2012-08-16T13:27:36Z</time>
      </trkpt>
      <trkpt lat="47.93174" lon="-2.12766">
        <ele>88.58</ele>
        <time>2012-08-16T13:27:45Z</time>
      </trkpt>
      <trkpt lat="47.93117" lon="-2.12755">
        <ele>89.06</ele>
        <time>2012-08-16T13:27:56Z</time>
      </trkpt>
      <trkpt lat="47.9307" lon="-2.12751">
        <ele>89.54</ele>
        <time>2012-08-16T13:28:06Z</time>
      </trkpt>
      <trkpt lat="47.93061" lon="-2.12751">
        <ele>90.02</ele>
        <time>2012-08-16T13:28:08Z</time>
      </trkpt>
      <trkpt lat="47.93052" lon="-2.12753">
        <ele>90.02</ele>
        <time>2012-08-16T13:28:10Z</time>
      </trkpt>
      <trkpt lat="47.93039" lon="-2.12754">
        <ele>90.02</ele>
        <time>2012-08-16T13:28:13Z</time>
      </trkpt>
      <trkpt lat="47.93022" lon="-2.12759">
        <ele>90.02</ele>
        <time>2012-08-16T13:28:17Z</time>
      </trkpt>
      <trkpt lat="47.92998" lon="-2.12761">
        <ele>90.02</ele>
        <time>2012-08-16T13:28:23Z</time>
      </trkpt>
      <trkpt lat="47.92994" lon="-2.12756">
        <ele>90.02</ele>
        <time>2012-08-16T13:28:24Z</time>
      </trkpt>
      <trkpt lat="47.92989" lon="-2.12747">
        <ele>90.5</ele>
        <time>2012-08-16T13:28:26Z</time>
      </trkpt>
      <trkpt lat="47.92974" lon="-2.12735">
        <ele>90.98</ele>
        <time>2012-08-16T13:28:30Z</time>
      </trkpt>
      <trkpt lat="47.92932" lon="-2.12719">
        <ele>92.42</ele>
        <time>2012-08-16T13:28:40Z</time>
      </trkpt>
      <trkpt lat="47.92889" lon="-2.12709">
        <ele>94.35</ele>
        <time>2012-08-16T13:28:50Z</time>
      </trkpt>
      <trkpt lat="47.92844" lon="-2.127">
        <ele>95.31</ele>
        <time>2012-08-16T13:29:00Z</time>
      </trkpt>
      <trkpt lat="47.92795" lon="-2.12691">
        <ele>95.31</ele>
        <time>2012-08-16T13:29:10Z</time>
      </trkpt>
      <trkpt lat="47.92755" lon="-2.12684">
        <ele>95.31</ele>
        <time>2012-08-16T13:29:18Z</time>
      </trkpt>
      <trkpt lat="47.92694" lon="-2.12675">
        <ele>93.39</ele>
        <time>2012-08-16T13:29:29Z</time>
      </trkpt>
      <trkpt lat="47.92647" lon="-2.12667">
        <ele>92.9</ele>
        <time>2012-08-16T13:29:37Z</time>
      </trkpt>
      <trkpt lat="47.92587" lon="-2.12658">
        <ele>91.46</ele>
        <time>2012-08-16T13:29:47Z</time>
      </trkpt>
      <trkpt lat="47.92529" lon="-2.12647">
        <ele>89.54</ele>
        <time>2012-08-16T13:29:57Z</time>
      </trkpt>
      <trkpt lat="47.92479" lon="-2.12637">
        <ele>89.06</ele>
        <time>2012-08-16T13:30:06Z</time>
      </trkpt>
      <trkpt lat="47.92436" lon="-2.12616">
        <ele>88.58</ele>
        <time>2012-08-16T13:30:14Z</time>
      </trkpt>
      <trkpt lat="47.92391" lon="-2.12593">
        <ele>88.58</ele>
        <time>2012-08-16T13:30:23Z</time>
      </trkpt>
      <trkpt lat="47.92356" lon="-2.12576">
        <ele>88.58</ele>
        <time>2012-08-16T13:30:31Z</time>
      </trkpt>
      <trkpt lat="47.92316" lon="-2.12556">
        <ele>89.54</ele>
        <time>2012-08-16T13:30:41Z</time>
      </trkpt>
      <trkpt lat="47.92276" lon="-2.12535">
        <ele>89.06</ele>
        <time>2012-08-16T13:30:51Z</time>
      </trkpt>
      <trkpt lat="47.92232" lon="-2.12514">
        <ele>88.58</ele>
        <time>2012-08-16T13:31:01Z</time>
      </trkpt>
      <trkpt lat="47.92187" lon="-2.12494">
        <ele>88.1</ele>
        <time>2012-08-16T13:31:11Z</time>
      </trkpt>
      <trkpt lat="47.92138" lon="-2.12473">
        <ele>88.1</ele>
        <time>2012-08-16T13:31:22Z</time>
      </trkpt>
      <trkpt lat="47.92084" lon="-2.12455">
        <ele>88.58</ele>
        <time>2012-08-16T13:31:34Z</time>
      </trkpt>
      <trkpt lat="47.92037" lon="-2.12439">
        <ele>87.62</ele>
        <time>2012-08-16T13:31:43Z</time>
      </trkpt>
      <trkpt lat="47.91973" lon="-2.12417">
        <ele>86.18</ele>
        <time>2012-08-16T13:31:54Z</time>
      </trkpt>
      <trkpt lat="47.9192" lon="-2.12395">
        <ele>84.25</ele>
        <time>2012-08-16T13:32:02Z</time>
      </trkpt>
      <trkpt lat="47.91849" lon="-2.12362">
        <ele>83.29</ele>
        <time>2012-08-16T13:32:14Z</time>
      </trkpt>
      <trkpt lat="47.91793" lon="-2.12331">
        <ele>82.81</ele>
        <time>2012-08-16T13:32:25Z</time>
      </trkpt>
      <trkpt lat="47.9174" lon="-2.12304">
        <ele>82.81</ele>
        <time>2012-08-16T13:32:36Z</time>
      </trkpt>
      <trkpt lat="47.917" lon="-2.1229">
        <ele>83.29</ele>
        <time>2012-08-16T13:32:45Z</time>
      </trkpt>
      <trkpt lat="47.91655" lon="-2.12277">
        <ele>85.21</ele>
        <time>2012-08-16T13:32:55Z</time>
      </trkpt>
      <trkpt lat="47.91608" lon="-2.12274">
        <ele>86.66</ele>
        <time>2012-08-16T13:33:06Z</time>
      </trkpt>
      <trkpt lat="47.91572" lon="-2.12283">
        <ele>87.14</ele>
        <time>2012-08-16T13:33:14Z</time>
      </trkpt>
      <trkpt lat="47.91537" lon="-2.12298">
        <ele>86.66</ele>
        <time>2012-08-16T13:33:21Z</time>
      </trkpt>
      <trkpt lat="47.91487" lon="-2.12317">
        <ele>85.69</ele>
        <time>2012-08-16T13:33:30Z</time>
      </trkpt>
      <trkpt lat="47.91441" lon="-2.12327">
        <ele>84.73</ele>
        <time>2012-08-16T13:33:37Z</time>
      </trkpt>
      <trkpt lat="47.91375" lon="-2.12333">
        <ele>82.33</ele>
        <time>2012-08-16T13:33:45Z</time>
      </trkpt>
      <trkpt lat="47.91299" lon="-2.12341">
        <ele>78.97</ele>
        <time>2012-08-16T13:33:53Z</time>
      </trkpt>
      <trkpt lat="47.9122" lon="-2.12351">
        <ele>75.12</ele>
        <time>2012-08-16T13:34:01Z</time>
      </trkpt>
      <trkpt lat="47.91181" lon="-2.12369">
        <ele>71.76</ele>
        <time>2012-08-16T13:34:05Z</time>
      </trkpt>
      <trkpt lat="47.91145" lon="-2.12416">
        <ele>66.95</ele>
        <time>2012-08-16T13:34:10Z</time>
      </trkpt>
      <trkpt lat="47.91125" lon="-2.12424">
        <ele>65.03</ele>
        <time>2012-08-16T13:34:13Z</time>
      </trkpt>
      <trkpt lat="47.91108" lon="-2.12406">
        <ele>65.03</ele>
        <time>2012-08-16T13:34:16Z</time>
      </trkpt>
      <trkpt lat="47.91087" lon="-2.12383">
        <ele>63.1</ele>
        <time>2012-08-16T13:34:20Z</time>
      </trkpt>
      <trkpt lat="47.91074" lon="-2.12376">
        <ele>62.62</ele>
        <time>2012-08-16T13:34:22Z</time>
      </trkpt>
      <trkpt lat="47.91039" lon="-2.12371">
        <ele>61.66</ele>
        <time>2012-08-16T13:34:27Z</time>
      </trkpt>
      <trkpt lat="47.90978" lon="-2.12377">
        <ele>60.7</ele>
        <time>2012-08-16T13:34:36Z</time>
      </trkpt>
      <trkpt lat="47.9092" lon="-2.12382">
        <ele>60.7</ele>
        <time>2012-08-16T13:34:45Z</time>
      </trkpt>
      <trkpt lat="47.90851" lon="-2.12383">
        <ele>61.66</ele>
        <time>2012-08-16T13:34:54Z</time>
      </trkpt>
      <trkpt lat="47.90803" lon="-2.12383">
        <ele>60.7</ele>
        <time>2012-08-16T13:35:00Z</time>
      </trkpt>
      <trkpt lat="47.90754" lon="-2.12403">
        <ele>59.26</ele>
        <time>2012-08-16T13:35:06Z</time>
      </trkpt>
      <trkpt lat="47.90711" lon="-2.12425">
        <ele>57.34</ele>
        <time>2012-08-16T13:35:12Z</time>
      </trkpt>
      <trkpt lat="47.9069" lon="-2.12428">
        <ele>56.86</ele>
        <time>2012-08-16T13:35:15Z</time>
      </trkpt>
      <trkpt lat="47.90662" lon="-2.12426">
        <ele>55.89</ele>
        <time>2012-08-16T13:35:21Z</time>
      </trkpt>
      <trkpt lat="47.90648" lon="-2.1242">
        <ele>54.93</ele>
        <time>2012-08-16T13:35:24Z</time>
      </trkpt>
      <trkpt lat="47.90619" lon="-2.12408">
        <ele>53.01</ele>
        <time>2012-08-16T13:35:31Z</time>
      </trkpt>
      <trkpt lat="47.90607" lon="-2.12406">
        <ele>52.53</ele>
        <time>2012-08-16T13:35:36Z</time>
      </trkpt>
      <trkpt lat="47.906" lon="-2.12428">
        <ele>51.57</ele>
        <time>2012-08-16T13:35:42Z</time>
      </trkpt>
      <trkpt lat="47.90593" lon="-2.12478">
        <ele>50.13</ele>
        <time>2012-08-16T13:35:50Z</time>
      </trkpt>
      <trkpt lat="47.90584" lon="-2.12535">
        <ele>49.65</ele>
        <time>2012-08-16T13:35:59Z</time>
      </trkpt>
      <trkpt lat="47.90581" lon="-2.12547">
        <ele>49.16</ele>
        <time>2012-08-16T13:36:01Z</time>
      </trkpt>
      <trkpt lat="47.90578" lon="-2.12588">
        <ele>48.2</ele>
        <time>2012-08-16T13:36:08Z</time>
      </trkpt>
      <trkpt lat="47.90576" lon="-2.126">
        <ele>48.2</ele>
        <time>2012-08-16T13:36:10Z</time>
      </trkpt>
      <trkpt lat="47.90575" lon="-2.12619">
        <ele>47.72</ele>
        <time>2012-08-16T13:36:13Z</time>
      </trkpt>
      <trkpt lat="47.90572" lon="-2.12655">
        <ele>45.8</ele>
        <time>2012-08-16T13:36:19Z</time>
      </trkpt>
      <trkpt lat="47.90572" lon="-2.12693">
        <ele>45.32</ele>
        <time>2012-08-16T13:36:26Z</time>
      </trkpt>
      <trkpt lat="47.90575" lon="-2.1273">
        <ele>44.36</ele>
        <time>2012-08-16T13:36:33Z</time>
      </trkpt>
      <trkpt lat="47.90573" lon="-2.12779">
        <ele>40.99</ele>
        <time>2012-08-16T13:36:41Z</time>
      </trkpt>
      <trkpt lat="47.90576" lon="-2.1283">
        <ele>41.47</ele>
        <time>2012-08-16T13:36:48Z</time>
      </trkpt>
      <trkpt lat="47.90579" lon="-2.12893">
        <ele>42.44</ele>
        <time>2012-08-16T13:36:56Z</time>
      </trkpt>
      <trkpt lat="47.90579" lon="-2.12909">
        <ele>42.92</ele>
        <time>2012-08-16T13:36:58Z</time>
      </trkpt>
      <trkpt lat="47.90582" lon="-2.12981">
        <ele>44.36</ele>
        <time>2012-08-16T13:37:07Z</time>
      </trkpt>
      <trkpt lat="47.90586" lon="-2.13024">
        <ele>46.28</ele>
        <time>2012-08-16T13:37:13Z</time>
      </trkpt>
      <trkpt lat="47.9059" lon="-2.13103">
        <ele>48.2</ele>
        <time>2012-08-16T13:37:22Z</time>
      </trkpt>
      <trkpt lat="47.90589" lon="-2.13132">
        <ele>46.28</ele>
        <time>2012-08-16T13:37:25Z</time>
      </trkpt>
      <trkpt lat="47.9059" lon="-2.13149">
        <ele>45.8</ele>
        <time>2012-08-16T13:37:27Z</time>
      </trkpt>
      <trkpt lat="47.90593" lon="-2.13239">
        <ele>43.88</ele>
        <time>2012-08-16T13:37:37Z</time>
      </trkpt>
      <trkpt lat="47.90592" lon="-2.13309">
        <ele>38.59</ele>
        <time>2012-08-16T13:37:45Z</time>
      </trkpt>
      <trkpt lat="47.90592" lon="-2.13317">
        <ele>38.11</ele>
        <time>2012-08-16T13:37:46Z</time>
      </trkpt>
      <trkpt lat="47.90591" lon="-2.13365">
        <ele>36.67</ele>
        <time>2012-08-16T13:37:51Z</time>
      </trkpt>
      <trkpt lat="47.90593" lon="-2.13419">
        <ele>35.23</ele>
        <time>2012-08-16T13:37:58Z</time>
      </trkpt>
      <trkpt lat="47.90595" lon="-2.13463">
        <ele>36.19</ele>
        <time>2012-08-16T13:38:05Z</time>
      </trkpt>
      <trkpt lat="47.90596" lon="-2.13528">
        <ele>38.11</ele>
        <time>2012-08-16T13:38:13Z</time>
      </trkpt>
      <trkpt lat="47.90601" lon="-2.1361">
        <ele>40.99</ele>
        <time>2012-08-16T13:38:22Z</time>
      </trkpt>
      <trkpt lat="47.90603" lon="-2.13676">
        <ele>41.95</ele>
        <time>2012-08-16T13:38:30Z</time>
      </trkpt>
      <trkpt lat="47.90604" lon="-2.13713">
        <ele>41.95</ele>
        <time>2012-08-16T13:38:35Z</time>
      </trkpt>
      <trkpt lat="47.90605" lon="-2.13779">
        <ele>41.95</ele>
        <time>2012-08-16T13:38:43Z</time>
      </trkpt>
      <trkpt lat="47.90606" lon="-2.13797">
        <ele>41.95</ele>
        <time>2012-08-16T13:38:45Z</time>
      </trkpt>
      <trkpt lat="47.90608" lon="-2.13868">
        <ele>40.99</ele>
        <time>2012-08-16T13:38:53Z</time>
      </trkpt>
      <trkpt lat="47.9061" lon="-2.13945">
        <ele>39.07</ele>
        <time>2012-08-16T13:39:02Z</time>
      </trkpt>
      <trkpt lat="47.90612" lon="-2.14011">
        <ele>37.63</ele>
        <time>2012-08-16T13:39:10Z</time>
      </trkpt>
      <trkpt lat="47.90613" lon="-2.14086">
        <ele>36.19</ele>
        <time>2012-08-16T13:39:19Z</time>
      </trkpt>
      <trkpt lat="47.90612" lon="-2.14112">
        <ele>36.19</ele>
        <time>2012-08-16T13:39:22Z</time>
      </trkpt>
      <trkpt lat="47.90613" lon="-2.14145">
        <ele>35.71</ele>
        <time>2012-08-16T13:39:26Z</time>
      </trkpt>
      <trkpt lat="47.90617" lon="-2.14173">
        <ele>35.71</ele>
        <time>2012-08-16T13:39:30Z</time>
      </trkpt>
      <trkpt lat="47.90617" lon="-2.1418">
        <ele>35.71</ele>
        <time>2012-08-16T13:39:31Z</time>
      </trkpt>
      <trkpt lat="47.90618" lon="-2.14192">
        <ele>35.23</ele>
        <time>2012-08-16T13:39:33Z</time>
      </trkpt>
      <trkpt lat="47.90615" lon="-2.14217">
        <ele>34.74</ele>
        <time>2012-08-16T13:39:38Z</time>
      </trkpt>
      <trkpt lat="47.90617" lon="-2.14236">
        <ele>34.26</ele>
        <time>2012-08-16T13:39:41Z</time>
      </trkpt>
      <trkpt lat="47.90618" lon="-2.14255">
        <ele>33.78</ele>
        <time>2012-08-16T13:39:44Z</time>
      </trkpt>
      <trkpt lat="47.9062" lon="-2.14314">
        <ele>32.34</ele>
        <time>2012-08-16T13:39:52Z</time>
      </trkpt>
      <trkpt lat="47.90623" lon="-2.14395">
        <ele>31.38</ele>
        <time>2012-08-16T13:40:01Z</time>
      </trkpt>
      <trkpt lat="47.90626" lon="-2.14455">
        <ele>31.86</ele>
        <time>2012-08-16T13:40:08Z</time>
      </trkpt>
      <trkpt lat="47.90631" lon="-2.14509">
        <ele>32.34</ele>
        <time>2012-08-16T13:40:15Z</time>
      </trkpt>
      <trkpt lat="47.90638" lon="-2.14597">
        <ele>31.38</ele>
        <time>2012-08-16T13:40:26Z</time>
      </trkpt>
      <trkpt lat="47.9064" lon="-2.1464">
        <ele>31.86</ele>
        <time>2012-08-16T13:40:32Z</time>
      </trkpt>
      <trkpt lat="47.90644" lon="-2.14668">
        <ele>32.34</ele>
        <time>2012-08-16T13:40:37Z</time>
      </trkpt>
      <trkpt lat="47.90646" lon="-2.14706">
        <ele>32.34</ele>
        <time>2012-08-16T13:40:44Z</time>
      </trkpt>
      <trkpt lat="47.90646" lon="-2.14716">
        <ele>32.34</ele>
        <time>2012-08-16T13:40:46Z</time>
      </trkpt>
      <trkpt lat="47.90655" lon="-2.14772">
        <ele>33.3</ele>
        <time>2012-08-16T13:40:55Z</time>
      </trkpt>
      <trkpt lat="47.90657" lon="-2.14785">
        <ele>33.78</ele>
        <time>2012-08-16T13:40:57Z</time>
      </trkpt>
      <trkpt lat="47.90664" lon="-2.14855">
        <ele>34.74</ele>
        <time>2012-08-16T13:41:07Z</time>
      </trkpt>
      <trkpt lat="47.90668" lon="-2.1491">
        <ele>33.78</ele>
        <time>2012-08-16T13:41:14Z</time>
      </trkpt>
      <trkpt lat="47.90669" lon="-2.14946">
        <ele>33.78</ele>
        <time>2012-08-16T13:41:19Z</time>
      </trkpt>
      <trkpt lat="47.90675" lon="-2.14975">
        <ele>33.3</ele>
        <time>2012-08-16T13:41:24Z</time>
      </trkpt>
      <trkpt lat="47.90678" lon="-2.15015">
        <ele>33.3</ele>
        <time>2012-08-16T13:41:30Z</time>
      </trkpt>
      <trkpt lat="47.90682" lon="-2.15072">
        <ele>31.38</ele>
        <time>2012-08-16T13:41:38Z</time>
      </trkpt>
      <trkpt lat="47.90689" lon="-2.15157">
        <ele>30.9</ele>
        <time>2012-08-16T13:41:49Z</time>
      </trkpt>
      <trkpt lat="47.90696" lon="-2.15216">
        <ele>30.9</ele>
        <time>2012-08-16T13:41:57Z</time>
      </trkpt>
      <trkpt lat="47.90702" lon="-2.15288">
        <ele>31.38</ele>
        <time>2012-08-16T13:42:07Z</time>
      </trkpt>
      <trkpt lat="47.9071" lon="-2.15357">
        <ele>32.34</ele>
        <time>2012-08-16T13:42:17Z</time>
      </trkpt>
      <trkpt lat="47.90717" lon="-2.15422">
        <ele>34.26</ele>
        <time>2012-08-16T13:42:26Z</time>
      </trkpt>
      <trkpt lat="47.90722" lon="-2.15488">
        <ele>35.71</ele>
        <time>2012-08-16T13:42:35Z</time>
      </trkpt>
      <trkpt lat="47.90726" lon="-2.15531">
        <ele>35.23</ele>
        <time>2012-08-16T13:42:42Z</time>
      </trkpt>
      <trkpt lat="47.90733" lon="-2.15597">
        <ele>35.71</ele>
        <time>2012-08-16T13:42:51Z</time>
      </trkpt>
      <trkpt lat="47.90741" lon="-2.15667">
        <ele>34.74</ele>
        <time>2012-08-16T13:43:01Z</time>
      </trkpt>
      <trkpt lat="47.90751" lon="-2.15741">
        <ele>34.74</ele>
        <time>2012-08-16T13:43:11Z</time>
      </trkpt>
      <trkpt lat="47.90765" lon="-2.15817">
        <ele>35.71</ele>
        <time>2012-08-16T13:43:21Z</time>
      </trkpt>
      <trkpt lat="47.90768" lon="-2.1583">
        <ele>35.71</ele>
        <time>2012-08-16T13:43:23Z</time>
      </trkpt>
      <trkpt lat="47.90779" lon="-2.15886">
        <ele>36.19</ele>
        <time>2012-08-16T13:43:31Z</time>
      </trkpt>
      <trkpt lat="47.90794" lon="-2.15969">
        <ele>35.23</ele>
        <time>2012-08-16T13:43:42Z</time>
      </trkpt>
      <trkpt lat="47.90808" lon="-2.16048">
        <ele>34.74</ele>
        <time>2012-08-16T13:43:53Z</time>
      </trkpt>
      <trkpt lat="47.90822" lon="-2.1613">
        <ele>34.26</ele>
        <time>2012-08-16T13:44:04Z</time>
      </trkpt>
      <trkpt lat="47.90835" lon="-2.16202">
        <ele>34.26</ele>
        <time>2012-08-16T13:44:14Z</time>
      </trkpt>
      <trkpt lat="47.9085" lon="-2.16271">
        <ele>35.23</ele>
        <time>2012-08-16T13:44:24Z</time>
      </trkpt>
      <trkpt lat="47.90863" lon="-2.16333">
        <ele>37.15</ele>
        <time>2012-08-16T13:44:33Z</time>
      </trkpt>
      <trkpt lat="47.90879" lon="-2.16404">
        <ele>38.11</ele>
        <time>2012-08-16T13:44:43Z</time>
      </trkpt>
      <trkpt lat="47.90893" lon="-2.16482">
        <ele>38.11</ele>
        <time>2012-08-16T13:44:53Z</time>
      </trkpt>
      <trkpt lat="47.90905" lon="-2.16556">
        <ele>38.11</ele>
        <time>2012-08-16T13:45:03Z</time>
      </trkpt>
      <trkpt lat="47.90916" lon="-2.1662">
        <ele>38.11</ele>
        <time>2012-08-16T13:45:12Z</time>
      </trkpt>
      <trkpt lat="47.9092" lon="-2.16648">
        <ele>37.63</ele>
        <time>2012-08-16T13:45:16Z</time>
      </trkpt>
      <trkpt lat="47.9093" lon="-2.16681">
        <ele>35.71</ele>
        <time>2012-08-16T13:45:22Z</time>
      </trkpt>
      <trkpt lat="47.90935" lon="-2.16691">
        <ele>35.23</ele>
        <time>2012-08-16T13:45:24Z</time>
      </trkpt>
      <trkpt lat="47.9096" lon="-2.16742">
        <ele>33.3</ele>
        <time>2012-08-16T13:45:33Z</time>
      </trkpt>
      <trkpt lat="47.90977" lon="-2.16795">
        <ele>32.82</ele>
        <time>2012-08-16T13:45:41Z</time>
      </trkpt>
      <trkpt lat="47.90979" lon="-2.16801">
        <ele>32.82</ele>
        <time>2012-08-16T13:45:42Z</time>
      </trkpt>
      <trkpt lat="47.90979" lon="-2.16833">
        <ele>32.82</ele>
        <time>2012-08-16T13:45:47Z</time>
      </trkpt>
      <trkpt lat="47.90963" lon="-2.16888">
        <ele>33.3</ele>
        <time>2012-08-16T13:45:56Z</time>
      </trkpt>
      <trkpt lat="47.9096" lon="-2.16913">
        <ele>34.26</ele>
        <time>2012-08-16T13:46:00Z</time>
      </trkpt>
      <trkpt lat="47.90957" lon="-2.16935">
        <ele>34.26</ele>
        <time>2012-08-16T13:46:04Z</time>
      </trkpt>
      <trkpt lat="47.90956" lon="-2.16948">
        <ele>34.26</ele>
        <time>2012-08-16T13:46:08Z</time>
      </trkpt>
      <trkpt lat="47.90949" lon="-2.16949">
        <ele>35.23</ele>
        <time>2012-08-16T13:46:11Z</time>
      </trkpt>
      <trkpt lat="47.90928" lon="-2.16941">
        <ele>35.71</ele>
        <time>2012-08-16T13:46:19Z</time>
      </trkpt>
      <trkpt lat="47.90918" lon="-2.16941">
        <ele>36.19</ele>
        <time>2012-08-16T13:46:23Z</time>
      </trkpt>
      <trkpt lat="47.90913" lon="-2.16961">
        <ele>35.71</ele>
        <time>2012-08-16T13:46:29Z</time>
      </trkpt>
      <trkpt lat="47.90911" lon="-2.16964">
        <ele>35.71</ele>
        <time>2012-08-16T13:46:30Z</time>
      </trkpt>
      <trkpt lat="47.90899" lon="-2.16983">
        <ele>34.74</ele>
        <time>2012-08-16T13:46:35Z</time>
      </trkpt>
      <trkpt lat="47.90876" lon="-2.17017">
        <ele>33.78</ele>
        <time>2012-08-16T13:46:43Z</time>
      </trkpt>
      <trkpt lat="47.90862" lon="-2.17046">
        <ele>33.3</ele>
        <time>2012-08-16T13:46:49Z</time>
      </trkpt>
      <trkpt lat="47.90856" lon="-2.17058">
        <ele>33.3</ele>
        <time>2012-08-16T13:46:52Z</time>
      </trkpt>
      <trkpt lat="47.90837" lon="-2.17096">
        <ele>32.34</ele>
        <time>2012-08-16T13:47:00Z</time>
      </trkpt>
      <trkpt lat="47.90816" lon="-2.17136">
        <ele>32.34</ele>
        <time>2012-08-16T13:47:09Z</time>
      </trkpt>
      <trkpt lat="47.90793" lon="-2.17173">
        <ele>32.82</ele>
        <time>2012-08-16T13:47:17Z</time>
      </trkpt>
      <trkpt lat="47.90767" lon="-2.17204">
        <ele>33.3</ele>
        <time>2012-08-16T13:47:24Z</time>
      </trkpt>
      <trkpt lat="47.90743" lon="-2.17234">
        <ele>33.3</ele>
        <time>2012-08-16T13:47:31Z</time>
      </trkpt>
      <trkpt lat="47.90712" lon="-2.1727">
        <ele>34.74</ele>
        <time>2012-08-16T13:47:39Z</time>
      </trkpt>
      <trkpt lat="47.90689" lon="-2.173">
        <ele>35.71</ele>
        <time>2012-08-16T13:47:45Z</time>
      </trkpt>
      <trkpt lat="47.90657" lon="-2.17353">
        <ele>37.15</ele>
        <time>2012-08-16T13:47:55Z</time>
      </trkpt>
      <trkpt lat="47.90649" lon="-2.1737">
        <ele>37.15</ele>
        <time>2012-08-16T13:47:58Z</time>
      </trkpt>
      <trkpt lat="47.90635" lon="-2.17403">
        <ele>37.15</ele>
        <time>2012-08-16T13:48:04Z</time>
      </trkpt>
      <trkpt lat="47.9062" lon="-2.17458">
        <ele>38.11</ele>
        <time>2012-08-16T13:48:14Z</time>
      </trkpt>
      <trkpt lat="47.90613" lon="-2.17501">
        <ele>37.63</ele>
        <time>2012-08-16T13:48:21Z</time>
      </trkpt>
      <trkpt lat="47.90612" lon="-2.17506">
        <ele>37.15</ele>
        <time>2012-08-16T13:48:22Z</time>
      </trkpt>
      <trkpt lat="47.90605" lon="-2.1758">
        <ele>34.26</ele>
        <time>2012-08-16T13:48:33Z</time>
      </trkpt>
      <trkpt lat="47.90605" lon="-2.17621">
        <ele>34.26</ele>
        <time>2012-08-16T13:48:39Z</time>
      </trkpt>
      <trkpt lat="47.90607" lon="-2.17639">
        <ele>34.74</ele>
        <time>2012-08-16T13:48:42Z</time>
      </trkpt>
      <trkpt lat="47.90606" lon="-2.1766">
        <ele>35.71</ele>
        <time>2012-08-16T13:48:46Z</time>
      </trkpt>
      <trkpt lat="47.90616" lon="-2.17706">
        <ele>36.67</ele>
        <time>2012-08-16T13:48:53Z</time>
      </trkpt>
      <trkpt lat="47.90631" lon="-2.17761">
        <ele>37.63</ele>
        <time>2012-08-16T13:49:01Z</time>
      </trkpt>
      <trkpt lat="47.90635" lon="-2.17775">
        <ele>38.11</ele>
        <time>2012-08-16T13:49:03Z</time>
      </trkpt>
      <trkpt lat="47.90648" lon="-2.17812">
        <ele>38.59</ele>
        <time>2012-08-16T13:49:09Z</time>
      </trkpt>
      <trkpt lat="47.90651" lon="-2.17817">
        <ele>38.11</ele>
        <time>2012-08-16T13:49:10Z</time>
      </trkpt>
      <trkpt lat="47.90661" lon="-2.1784">
        <ele>38.11</ele>
        <time>2012-08-16T13:49:14Z</time>
      </trkpt>
      <trkpt lat="47.90672" lon="-2.17874">
        <ele>38.11</ele>
        <time>2012-08-16T13:49:19Z</time>
      </trkpt>
      <trkpt lat="47.90689" lon="-2.17937">
        <ele>37.63</ele>
        <time>2012-08-16T13:49:27Z</time>
      </trkpt>
      <trkpt lat="47.90711" lon="-2.17991">
        <ele>37.63</ele>
        <time>2012-08-16T13:49:35Z</time>
      </trkpt>
      <trkpt lat="47.90725" lon="-2.18033">
        <ele>35.71</ele>
        <time>2012-08-16T13:49:42Z</time>
      </trkpt>
      <trkpt lat="47.90727" lon="-2.18051">
        <ele>35.71</ele>
        <time>2012-08-16T13:49:44Z</time>
      </trkpt>
      <trkpt lat="47.90734" lon="-2.18095">
        <ele>35.71</ele>
        <time>2012-08-16T13:49:49Z</time>
      </trkpt>
      <trkpt lat="47.90748" lon="-2.18164">
        <ele>35.71</ele>
        <time>2012-08-16T13:49:58Z</time>
      </trkpt>
      <trkpt lat="47.90755" lon="-2.18185">
        <ele>36.19</ele>
        <time>2012-08-16T13:50:01Z</time>
      </trkpt>
      <trkpt lat="47.9077" lon="-2.18247">
        <ele>37.15</ele>
        <time>2012-08-16T13:50:09Z</time>
      </trkpt>
      <trkpt lat="47.90777" lon="-2.18276">
        <ele>37.63</ele>
        <time>2012-08-16T13:50:13Z</time>
      </trkpt>
      <trkpt lat="47.90793" lon="-2.18343">
        <ele>40.99</ele>
        <time>2012-08-16T13:50:21Z</time>
      </trkpt>
      <trkpt lat="47.90803" lon="-2.18396">
        <ele>41.95</ele>
        <time>2012-08-16T13:50:27Z</time>
      </trkpt>
      <trkpt lat="47.90816" lon="-2.18458">
        <ele>43.88</ele>
        <time>2012-08-16T13:50:35Z</time>
      </trkpt>
      <trkpt lat="47.90822" lon="-2.18481">
        <ele>44.84</ele>
        <time>2012-08-16T13:50:38Z</time>
      </trkpt>
      <trkpt lat="47.9083" lon="-2.18507">
        <ele>46.28</ele>
        <time>2012-08-16T13:50:42Z</time>
      </trkpt>
      <trkpt lat="47.90842" lon="-2.18569">
        <ele>46.28</ele>
        <time>2012-08-16T13:50:50Z</time>
      </trkpt>
      <trkpt lat="47.90852" lon="-2.18638">
        <ele>41.47</ele>
        <time>2012-08-16T13:50:59Z</time>
      </trkpt>
      <trkpt lat="47.90855" lon="-2.18699">
        <ele>40.99</ele>
        <time>2012-08-16T13:51:07Z</time>
      </trkpt>
      <trkpt lat="47.90857" lon="-2.18749">
        <ele>41.95</ele>
        <time>2012-08-16T13:51:14Z</time>
      </trkpt>
      <trkpt lat="47.90857" lon="-2.18803">
        <ele>41.47</ele>
        <time>2012-08-16T13:51:21Z</time>
      </trkpt>
      <trkpt lat="47.90858" lon="-2.18848">
        <ele>40.99</ele>
        <time>2012-08-16T13:51:27Z</time>
      </trkpt>
      <trkpt lat="47.90854" lon="-2.18906">
        <ele>39.07</ele>
        <time>2012-08-16T13:51:35Z</time>
      </trkpt>
      <trkpt lat="47.90853" lon="-2.18913">
        <ele>39.07</ele>
        <time>2012-08-16T13:51:36Z</time>
      </trkpt>
      <trkpt lat="47.90849" lon="-2.18943">
        <ele>38.59</ele>
        <time>2012-08-16T13:51:40Z</time>
      </trkpt>
      <trkpt lat="47.90832" lon="-2.19">
        <ele>39.07</ele>
        <time>2012-08-16T13:51:48Z</time>
      </trkpt>
      <trkpt lat="47.90822" lon="-2.19028">
        <ele>39.55</ele>
        <time>2012-08-16T13:51:52Z</time>
      </trkpt>
      <trkpt lat="47.90803" lon="-2.19065">
        <ele>37.15</ele>
        <time>2012-08-16T13:51:58Z</time>
      </trkpt>
      <trkpt lat="47.9079" lon="-2.19087">
        <ele>35.71</ele>
        <time>2012-08-16T13:52:02Z</time>
      </trkpt>
      <trkpt lat="47.9078" lon="-2.19107">
        <ele>34.26</ele>
        <time>2012-08-16T13:52:06Z</time>
      </trkpt>
      <trkpt lat="47.90763" lon="-2.19138">
        <ele>34.26</ele>
        <time>2012-08-16T13:52:12Z</time>
      </trkpt>
      <trkpt lat="47.90736" lon="-2.19182">
        <ele>33.3</ele>
        <time>2012-08-16T13:52:21Z</time>
      </trkpt>
      <trkpt lat="47.90716" lon="-2.19212">
        <ele>33.78</ele>
        <time>2012-08-16T13:52:28Z</time>
      </trkpt>
      <trkpt lat="47.90682" lon="-2.19275">
        <ele>34.74</ele>
        <time>2012-08-16T13:52:39Z</time>
      </trkpt>
      <trkpt lat="47.90662" lon="-2.19318">
        <ele>34.26</ele>
        <time>2012-08-16T13:52:46Z</time>
      </trkpt>
      <trkpt lat="47.90657" lon="-2.19331">
        <ele>34.26</ele>
        <time>2012-08-16T13:52:48Z</time>
      </trkpt>
      <trkpt lat="47.90641" lon="-2.19371">
        <ele>35.23</ele>
        <time>2012-08-16T13:52:54Z</time>
      </trkpt>
      <trkpt lat="47.90632" lon="-2.194">
        <ele>35.71</ele>
        <time>2012-08-16T13:52:58Z</time>
      </trkpt>
      <trkpt lat="47.9062" lon="-2.19471">
        <ele>37.15</ele>
        <time>2012-08-16T13:53:07Z</time>
      </trkpt>
      <trkpt lat="47.90618" lon="-2.19502">
        <ele>37.63</ele>
        <time>2012-08-16T13:53:11Z</time>
      </trkpt>
      <trkpt lat="47.90612" lon="-2.19563">
        <ele>38.59</ele>
        <time>2012-08-16T13:53:19Z</time>
      </trkpt>
      <trkpt lat="47.9061" lon="-2.19588">
        <ele>38.11</ele>
        <time>2012-08-16T13:53:22Z</time>
      </trkpt>
      <trkpt lat="47.90605" lon="-2.19628">
        <ele>38.11</ele>
        <time>2012-08-16T13:53:27Z</time>
      </trkpt>
      <trkpt lat="47.906" lon="-2.1969">
        <ele>38.11</ele>
        <time>2012-08-16T13:53:35Z</time>
      </trkpt>
      <trkpt lat="47.906" lon="-2.19715">
        <ele>38.59</ele>
        <time>2012-08-16T13:53:38Z</time>
      </trkpt>
      <trkpt lat="47.90597" lon="-2.1977">
        <ele>40.03</ele>
        <time>2012-08-16T13:53:45Z</time>
      </trkpt>
      <trkpt lat="47.90599" lon="-2.19803">
        <ele>41.95</ele>
        <time>2012-08-16T13:53:51Z</time>
      </trkpt>
      <trkpt lat="47.90601" lon="-2.19833">
        <ele>43.4</ele>
        <time>2012-08-16T13:53:57Z</time>
      </trkpt>
      <trkpt lat="47.90597" lon="-2.19863">
        <ele>43.4</ele>
        <time>2012-08-16T13:54:03Z</time>
      </trkpt>
      <trkpt lat="47.90596" lon="-2.19883">
        <ele>42.44</ele>
        <time>2012-08-16T13:54:06Z</time>
      </trkpt>
      <trkpt lat="47.90589" lon="-2.19935">
        <ele>42.44</ele>
        <time>2012-08-16T13:54:14Z</time>
      </trkpt>
      <trkpt lat="47.90585" lon="-2.19961">
        <ele>41.95</ele>
        <time>2012-08-16T13:54:20Z</time>
      </trkpt>
      <trkpt lat="47.90585" lon="-2.19963">
        <ele>41.47</ele>
        <time>2012-08-16T13:54:25Z</time>
      </trkpt>
      <trkpt lat="47.90585" lon="-2.19964">
        <ele>41.47</ele>
        <time>2012-08-16T13:54:26Z</time>
      </trkpt>
      <trkpt lat="47.90579" lon="-2.19985">
        <ele>40.99</ele>
        <time>2012-08-16T13:54:33Z</time>
      </trkpt>
      <trkpt lat="47.90575" lon="-2.19996">
        <ele>41.47</ele>
        <time>2012-08-16T13:54:37Z</time>
      </trkpt>
      <trkpt lat="47.90573" lon="-2.20008">
        <ele>41.95</ele>
        <time>2012-08-16T13:54:44Z</time>
      </trkpt>
      <trkpt lat="47.90574" lon="-2.2001">
        <ele>42.44</ele>
        <time>2012-08-16T13:54:59Z</time>
      </trkpt>
      <trkpt lat="47.90574" lon="-2.20011">
        <ele>42.92</ele>
        <time>2012-08-16T13:55:11Z</time>
      </trkpt>
      <trkpt lat="47.90574" lon="-2.20012">
        <ele>42.92</ele>
        <time>2012-08-16T13:55:26Z</time>
      </trkpt>
      <trkpt lat="47.90573" lon="-2.20012">
        <ele>41.95</ele>
        <time>2012-08-16T13:55:38Z</time>
      </trkpt>
      <trkpt lat="47.90573" lon="-2.20012">
        <ele>41.95</ele>
        <time>2012-08-16T13:55:47Z</time>
      </trkpt>
      <trkpt lat="47.90573" lon="-2.20011">
        <ele>42.44</ele>
        <time>2012-08-16T13:56:03Z</time>
      </trkpt>
      <trkpt lat="47.90572" lon="-2.2001">
        <ele>43.4</ele>
        <time>2012-08-16T13:56:18Z</time>
      </trkpt>
      <trkpt lat="47.90573" lon="-2.2001">
        <ele>44.36</ele>
        <time>2012-08-16T13:56:35Z</time>
      </trkpt>
      <trkpt lat="47.90571" lon="-2.20011">
        <ele>43.88</ele>
        <time>2012-08-16T13:56:53Z</time>
      </trkpt>
      <trkpt lat="47.90564" lon="-2.20026">
        <ele>43.88</ele>
        <time>2012-08-16T13:56:59Z</time>
      </trkpt>
      <trkpt lat="47.90553" lon="-2.20045">
        <ele>42.44</ele>
        <time>2012-08-16T13:57:05Z</time>
      </trkpt>
      <trkpt lat="47.9054" lon="-2.20073">
        <ele>40.99</ele>
        <time>2012-08-16T13:57:11Z</time>
      </trkpt>
      <trkpt lat="47.90518" lon="-2.20111">
        <ele>40.03</ele>
        <time>2012-08-16T13:57:18Z</time>
      </trkpt>
      <trkpt lat="47.90509" lon="-2.20129">
        <ele>39.55</ele>
        <time>2012-08-16T13:57:21Z</time>
      </trkpt>
      <trkpt lat="47.90486" lon="-2.20166">
        <ele>39.55</ele>
        <time>2012-08-16T13:57:27Z</time>
      </trkpt>
      <trkpt lat="47.90479" lon="-2.20179">
        <ele>39.55</ele>
        <time>2012-08-16T13:57:29Z</time>
      </trkpt>
      <trkpt lat="47.90452" lon="-2.20224">
        <ele>37.15</ele>
        <time>2012-08-16T13:57:37Z</time>
      </trkpt>
      <trkpt lat="47.90432" lon="-2.20269">
        <ele>35.71</ele>
        <time>2012-08-16T13:57:44Z</time>
      </trkpt>
      <trkpt lat="47.90421" lon="-2.20301">
        <ele>34.74</ele>
        <time>2012-08-16T13:57:49Z</time>
      </trkpt>
      <trkpt lat="47.90409" lon="-2.20345">
        <ele>33.78</ele>
        <time>2012-08-16T13:57:55Z</time>
      </trkpt>
      <trkpt lat="47.904" lon="-2.20376">
        <ele>33.78</ele>
        <time>2012-08-16T13:57:59Z</time>
      </trkpt>
      <trkpt lat="47.90386" lon="-2.20441">
        <ele>34.74</ele>
        <time>2012-08-16T13:58:07Z</time>
      </trkpt>
      <trkpt lat="47.90379" lon="-2.20499">
        <ele>34.26</ele>
        <time>2012-08-16T13:58:14Z</time>
      </trkpt>
      <trkpt lat="47.90376" lon="-2.20555">
        <ele>33.78</ele>
        <time>2012-08-16T13:58:21Z</time>
      </trkpt>
      <trkpt lat="47.90378" lon="-2.20575">
        <ele>33.78</ele>
        <time>2012-08-16T13:58:24Z</time>
      </trkpt>
      <trkpt lat="47.90377" lon="-2.20602">
        <ele>34.74</ele>
        <time>2012-08-16T13:58:28Z</time>
      </trkpt>
      <trkpt lat="47.90386" lon="-2.20693">
        <ele>35.71</ele>
        <time>2012-08-16T13:58:40Z</time>
      </trkpt>
      <trkpt lat="47.90395" lon="-2.20774">
        <ele>36.67</ele>
        <time>2012-08-16T13:58:51Z</time>
      </trkpt>
      <trkpt lat="47.90404" lon="-2.20853">
        <ele>38.11</ele>
        <time>2012-08-16T13:59:02Z</time>
      </trkpt>
      <trkpt lat="47.9041" lon="-2.20911">
        <ele>38.11</ele>
        <time>2012-08-16T13:59:10Z</time>
      </trkpt>
      <trkpt lat="47.90416" lon="-2.20963">
        <ele>38.11</ele>
        <time>2012-08-16T13:59:17Z</time>
      </trkpt>
      <trkpt lat="47.90421" lon="-2.21006">
        <ele>37.63</ele>
        <time>2012-08-16T13:59:23Z</time>
      </trkpt>
      <trkpt lat="47.90427" lon="-2.21059">
        <ele>38.59</ele>
        <time>2012-08-16T13:59:30Z</time>
      </trkpt>
      <trkpt lat="47.90429" lon="-2.21074">
        <ele>38.59</ele>
        <time>2012-08-16T13:59:32Z</time>
      </trkpt>
      <trkpt lat="47.90432" lon="-2.21155">
        <ele>40.03</ele>
        <time>2012-08-16T13:59:42Z</time>
      </trkpt>
      <trkpt lat="47.90433" lon="-2.2117">
        <ele>40.51</ele>
        <time>2012-08-16T13:59:44Z</time>
      </trkpt>
      <trkpt lat="47.90435" lon="-2.21219">
        <ele>41.95</ele>
        <time>2012-08-16T13:59:51Z</time>
      </trkpt>
      <trkpt lat="47.90431" lon="-2.21271">
        <ele>42.92</ele>
        <time>2012-08-16T13:59:58Z</time>
      </trkpt>
      <trkpt lat="47.90429" lon="-2.21311">
        <ele>46.28</ele>
        <time>2012-08-16T14:00:03Z</time>
      </trkpt>
      <trkpt lat="47.9043" lon="-2.21371">
        <ele>49.65</ele>
        <time>2012-08-16T14:00:12Z</time>
      </trkpt>
      <trkpt lat="47.9043" lon="-2.21391">
        <ele>50.61</ele>
        <time>2012-08-16T14:00:15Z</time>
      </trkpt>
      <trkpt lat="47.90428" lon="-2.21461">
        <ele>53.01</ele>
        <time>2012-08-16T14:00:24Z</time>
      </trkpt>
      <trkpt lat="47.90427" lon="-2.21526">
        <ele>55.89</ele>
        <time>2012-08-16T14:00:32Z</time>
      </trkpt>
      <trkpt lat="47.90426" lon="-2.21569">
        <ele>55.41</ele>
        <time>2012-08-16T14:00:37Z</time>
      </trkpt>
      <trkpt lat="47.90423" lon="-2.21653">
        <ele>52.05</ele>
        <time>2012-08-16T14:00:46Z</time>
      </trkpt>
      <trkpt lat="47.90423" lon="-2.21661">
        <ele>52.05</ele>
        <time>2012-08-16T14:00:47Z</time>
      </trkpt>
      <trkpt lat="47.90426" lon="-2.21719">
        <ele>51.09</ele>
        <time>2012-08-16T14:00:54Z</time>
      </trkpt>
      <trkpt lat="47.90432" lon="-2.21785">
        <ele>50.61</ele>
        <time>2012-08-16T14:01:02Z</time>
      </trkpt>
      <trkpt lat="47.90433" lon="-2.21793">
        <ele>50.61</ele>
        <time>2012-08-16T14:01:03Z</time>
      </trkpt>
      <trkpt lat="47.90443" lon="-2.21863">
        <ele>49.16</ele>
        <time>2012-08-16T14:01:12Z</time>
      </trkpt>
      <trkpt lat="47.90456" lon="-2.21942">
        <ele>43.88</ele>
        <time>2012-08-16T14:01:21Z</time>
      </trkpt>
      <trkpt lat="47.90462" lon="-2.22003">
        <ele>44.84</ele>
        <time>2012-08-16T14:01:28Z</time>
      </trkpt>
      <trkpt lat="47.90469" lon="-2.22041">
        <ele>45.32</ele>
        <time>2012-08-16T14:01:33Z</time>
      </trkpt>
      <trkpt lat="47.90471" lon="-2.2212">
        <ele>43.88</ele>
        <time>2012-08-16T14:01:42Z</time>
      </trkpt>
      <trkpt lat="47.90469" lon="-2.22172">
        <ele>43.4</ele>
        <time>2012-08-16T14:01:48Z</time>
      </trkpt>
      <trkpt lat="47.90464" lon="-2.22234">
        <ele>42.44</ele>
        <time>2012-08-16T14:01:56Z</time>
      </trkpt>
      <trkpt lat="47.90463" lon="-2.2225">
        <ele>42.44</ele>
        <time>2012-08-16T14:01:58Z</time>
      </trkpt>
      <trkpt lat="47.90448" lon="-2.22331">
        <ele>42.44</ele>
        <time>2012-08-16T14:02:08Z</time>
      </trkpt>
      <trkpt lat="47.90446" lon="-2.22339">
        <ele>42.44</ele>
        <time>2012-08-16T14:02:09Z</time>
      </trkpt>
      <trkpt lat="47.90439" lon="-2.22368">
        <ele>42.44</ele>
        <time>2012-08-16T14:02:13Z</time>
      </trkpt>
      <trkpt lat="47.90422" lon="-2.22421">
        <ele>41.95</ele>
        <time>2012-08-16T14:02:20Z</time>
      </trkpt>
      <trkpt lat="47.90397" lon="-2.22493">
        <ele>41.47</ele>
        <time>2012-08-16T14:02:29Z</time>
      </trkpt>
      <trkpt lat="47.9037" lon="-2.22555">
        <ele>40.99</ele>
        <time>2012-08-16T14:02:38Z</time>
      </trkpt>
      <trkpt lat="47.90344" lon="-2.22619">
        <ele>41.47</ele>
        <time>2012-08-16T14:02:47Z</time>
      </trkpt>
      <trkpt lat="47.90332" lon="-2.22646">
        <ele>40.99</ele>
        <time>2012-08-16T14:02:51Z</time>
      </trkpt>
      <trkpt lat="47.90307" lon="-2.22711">
        <ele>39.07</ele>
        <time>2012-08-16T14:03:01Z</time>
      </trkpt>
      <trkpt lat="47.90297" lon="-2.22741">
        <ele>39.07</ele>
        <time>2012-08-16T14:03:05Z</time>
      </trkpt>
      <trkpt lat="47.90284" lon="-2.22788">
        <ele>38.59</ele>
        <time>2012-08-16T14:03:12Z</time>
      </trkpt>
      <trkpt lat="47.90283" lon="-2.22794">
        <ele>38.59</ele>
        <time>2012-08-16T14:03:13Z</time>
      </trkpt>
      <trkpt lat="47.90274" lon="-2.22853">
        <ele>39.07</ele>
        <time>2012-08-16T14:03:21Z</time>
      </trkpt>
      <trkpt lat="47.90266" lon="-2.22925">
        <ele>38.59</ele>
        <time>2012-08-16T14:03:30Z</time>
      </trkpt>
      <trkpt lat="47.90264" lon="-2.22941">
        <ele>38.59</ele>
        <time>2012-08-16T14:03:32Z</time>
      </trkpt>
      <trkpt lat="47.90263" lon="-2.22958">
        <ele>38.59</ele>
        <time>2012-08-16T14:03:34Z</time>
      </trkpt>
      <trkpt lat="47.90262" lon="-2.23036">
        <ele>38.11</ele>
        <time>2012-08-16T14:03:43Z</time>
      </trkpt>
      <trkpt lat="47.90267" lon="-2.23095">
        <ele>37.63</ele>
        <time>2012-08-16T14:03:50Z</time>
      </trkpt>
      <trkpt lat="47.90271" lon="-2.23133">
        <ele>38.11</ele>
        <time>2012-08-16T14:03:55Z</time>
      </trkpt>
      <trkpt lat="47.90281" lon="-2.23195">
        <ele>38.11</ele>
        <time>2012-08-16T14:04:03Z</time>
      </trkpt>
      <trkpt lat="47.90286" lon="-2.23218">
        <ele>38.59</ele>
        <time>2012-08-16T14:04:06Z</time>
      </trkpt>
      <trkpt lat="47.90297" lon="-2.23271">
        <ele>39.55</ele>
        <time>2012-08-16T14:04:13Z</time>
      </trkpt>
      <trkpt lat="47.90314" lon="-2.23347">
        <ele>40.51</ele>
        <time>2012-08-16T14:04:22Z</time>
      </trkpt>
      <trkpt lat="47.90316" lon="-2.23356">
        <ele>40.51</ele>
        <time>2012-08-16T14:04:23Z</time>
      </trkpt>
      <trkpt lat="47.90324" lon="-2.23389">
        <ele>41.47</ele>
        <time>2012-08-16T14:04:27Z</time>
      </trkpt>
      <trkpt lat="47.90343" lon="-2.23466">
        <ele>42.92</ele>
        <time>2012-08-16T14:04:37Z</time>
      </trkpt>
      <trkpt lat="47.90348" lon="-2.23488">
        <ele>43.4</ele>
        <time>2012-08-16T14:04:40Z</time>
      </trkpt>
      <trkpt lat="47.90355" lon="-2.23515">
        <ele>43.88</ele>
        <time>2012-08-16T14:04:44Z</time>
      </trkpt>
      <trkpt lat="47.90359" lon="-2.23546">
        <ele>44.36</ele>
        <time>2012-08-16T14:04:50Z</time>
      </trkpt>
      <trkpt lat="47.90365" lon="-2.23575">
        <ele>44.36</ele>
        <time>2012-08-16T14:04:56Z</time>
      </trkpt>
      <trkpt lat="47.90374" lon="-2.23635">
        <ele>43.4</ele>
        <time>2012-08-16T14:05:04Z</time>
      </trkpt>
      <trkpt lat="47.9038" lon="-2.23708">
        <ele>43.4</ele>
        <time>2012-08-16T14:05:13Z</time>
      </trkpt>
      <trkpt lat="47.90381" lon="-2.23775">
        <ele>43.4</ele>
        <time>2012-08-16T14:05:21Z</time>
      </trkpt>
      <trkpt lat="47.9038" lon="-2.23798">
        <ele>43.4</ele>
        <time>2012-08-16T14:05:24Z</time>
      </trkpt>
      <trkpt lat="47.90376" lon="-2.23844">
        <ele>43.4</ele>
        <time>2012-08-16T14:05:30Z</time>
      </trkpt>
      <trkpt lat="47.90371" lon="-2.2389">
        <ele>42.92</ele>
        <time>2012-08-16T14:05:37Z</time>
      </trkpt>
      <trkpt lat="47.90366" lon="-2.23943">
        <ele>41.47</ele>
        <time>2012-08-16T14:05:44Z</time>
      </trkpt>
      <trkpt lat="47.90361" lon="-2.23986">
        <ele>41.47</ele>
        <time>2012-08-16T14:05:49Z</time>
      </trkpt>
      <trkpt lat="47.90351" lon="-2.2406">
        <ele>40.99</ele>
        <time>2012-08-16T14:05:57Z</time>
      </trkpt>
      <trkpt lat="47.90345" lon="-2.24102">
        <ele>40.03</ele>
        <time>2012-08-16T14:06:02Z</time>
      </trkpt>
      <trkpt lat="47.90338" lon="-2.24166">
        <ele>40.51</ele>
        <time>2012-08-16T14:06:10Z</time>
      </trkpt>
      <trkpt lat="47.90335" lon="-2.24206">
        <ele>41.95</ele>
        <time>2012-08-16T14:06:15Z</time>
      </trkpt>
      <trkpt lat="47.9033" lon="-2.24259">
        <ele>40.99</ele>
        <time>2012-08-16T14:06:22Z</time>
      </trkpt>
      <trkpt lat="47.9033" lon="-2.24273">
        <ele>40.51</ele>
        <time>2012-08-16T14:06:24Z</time>
      </trkpt>
      <trkpt lat="47.90329" lon="-2.24292">
        <ele>40.03</ele>
        <time>2012-08-16T14:06:27Z</time>
      </trkpt>
      <trkpt lat="47.90333" lon="-2.24319">
        <ele>40.03</ele>
        <time>2012-08-16T14:06:33Z</time>
      </trkpt>
      <trkpt lat="47.90331" lon="-2.24335">
        <ele>40.03</ele>
        <time>2012-08-16T14:06:37Z</time>
      </trkpt>
      <trkpt lat="47.90336" lon="-2.24376">
        <ele>37.63</ele>
        <time>2012-08-16T14:06:45Z</time>
      </trkpt>
      <trkpt lat="47.90346" lon="-2.24418">
        <ele>35.23</ele>
        <time>2012-08-16T14:06:52Z</time>
      </trkpt>
      <trkpt lat="47.90354" lon="-2.24461">
        <ele>33.3</ele>
        <time>2012-08-16T14:06:58Z</time>
      </trkpt>
      <trkpt lat="47.90366" lon="-2.24514">
        <ele>33.78</ele>
        <time>2012-08-16T14:07:06Z</time>
      </trkpt>
      <trkpt lat="47.90373" lon="-2.24541">
        <ele>34.26</ele>
        <time>2012-08-16T14:07:10Z</time>
      </trkpt>
      <trkpt lat="47.9038" lon="-2.24567">
        <ele>35.23</ele>
        <time>2012-08-16T14:07:14Z</time>
      </trkpt>
      <trkpt lat="47.90392" lon="-2.246">
        <ele>35.71</ele>
        <time>2012-08-16T14:07:19Z</time>
      </trkpt>
      <trkpt lat="47.90405" lon="-2.24657">
        <ele>37.15</ele>
        <time>2012-08-16T14:07:27Z</time>
      </trkpt>
      <trkpt lat="47.90411" lon="-2.24716">
        <ele>38.11</ele>
        <time>2012-08-16T14:07:35Z</time>
      </trkpt>
      <trkpt lat="47.90414" lon="-2.24744">
        <ele>39.55</ele>
        <time>2012-08-16T14:07:40Z</time>
      </trkpt>
      <trkpt lat="47.90412" lon="-2.2476">
        <ele>40.99</ele>
        <time>2012-08-16T14:07:43Z</time>
      </trkpt>
      <trkpt lat="47.90411" lon="-2.24772">
        <ele>41.47</ele>
        <time>2012-08-16T14:07:45Z</time>
      </trkpt>
      <trkpt lat="47.90407" lon="-2.24817">
        <ele>41.95</ele>
        <time>2012-08-16T14:07:52Z</time>
      </trkpt>
      <trkpt lat="47.90405" lon="-2.24826">
        <ele>41.95</ele>
        <time>2012-08-16T14:07:54Z</time>
      </trkpt>
      <trkpt lat="47.90402" lon="-2.24857">
        <ele>41.47</ele>
        <time>2012-08-16T14:08:00Z</time>
      </trkpt>
      <trkpt lat="47.90397" lon="-2.24875">
        <ele>41.47</ele>
        <time>2012-08-16T14:08:03Z</time>
      </trkpt>
      <trkpt lat="47.90387" lon="-2.24913">
        <ele>41.95</ele>
        <time>2012-08-16T14:08:09Z</time>
      </trkpt>
      <trkpt lat="47.90375" lon="-2.24956">
        <ele>42.92</ele>
        <time>2012-08-16T14:08:15Z</time>
      </trkpt>
      <trkpt lat="47.90368" lon="-2.24973">
        <ele>42.92</ele>
        <time>2012-08-16T14:08:18Z</time>
      </trkpt>
      <trkpt lat="47.90339" lon="-2.2503">
        <ele>43.88</ele>
        <time>2012-08-16T14:08:27Z</time>
      </trkpt>
      <trkpt lat="47.90305" lon="-2.25097">
        <ele>44.84</ele>
        <time>2012-08-16T14:08:37Z</time>
      </trkpt>
      <trkpt lat="47.90282" lon="-2.25142">
        <ele>45.32</ele>
        <time>2012-08-16T14:08:44Z</time>
      </trkpt>
      <trkpt lat="47.90279" lon="-2.25148">
        <ele>45.32</ele>
        <time>2012-08-16T14:08:45Z</time>
      </trkpt>
      <trkpt lat="47.90253" lon="-2.25221">
        <ele>45.32</ele>
        <time>2012-08-16T14:08:55Z</time>
      </trkpt>
      <trkpt lat="47.90238" lon="-2.25292">
        <ele>45.32</ele>
        <time>2012-08-16T14:09:04Z</time>
      </trkpt>
      <trkpt lat="47.90232" lon="-2.25343">
        <ele>45.8</ele>
        <time>2012-08-16T14:09:11Z</time>
      </trkpt>
      <trkpt lat="47.90231" lon="-2.25357">
        <ele>45.8</ele>
        <time>2012-08-16T14:09:15Z</time>
      </trkpt>
      <trkpt lat="47.90233" lon="-2.25401">
        <ele>44.84</ele>
        <time>2012-08-16T14:09:23Z</time>
      </trkpt>
      <trkpt lat="47.90234" lon="-2.25422">
        <ele>44.36</ele>
        <time>2012-08-16T14:09:26Z</time>
      </trkpt>
      <trkpt lat="47.90237" lon="-2.25461">
        <ele>43.88</ele>
        <time>2012-08-16T14:09:32Z</time>
      </trkpt>
      <trkpt lat="47.90238" lon="-2.25473">
        <ele>43.88</ele>
        <time>2012-08-16T14:09:34Z</time>
      </trkpt>
      <trkpt lat="47.90255" lon="-2.25542">
        <ele>44.84</ele>
        <time>2012-08-16T14:09:44Z</time>
      </trkpt>
      <trkpt lat="47.90273" lon="-2.25593">
        <ele>45.32</ele>
        <time>2012-08-16T14:09:51Z</time>
      </trkpt>
      <trkpt lat="47.90303" lon="-2.25658">
        <ele>45.32</ele>
        <time>2012-08-16T14:10:00Z</time>
      </trkpt>
      <trkpt lat="47.90329" lon="-2.25713">
        <ele>44.84</ele>
        <time>2012-08-16T14:10:08Z</time>
      </trkpt>
      <trkpt lat="47.90358" lon="-2.25776">
        <ele>44.84</ele>
        <time>2012-08-16T14:10:17Z</time>
      </trkpt>
      <trkpt lat="47.90387" lon="-2.25837">
        <ele>45.32</ele>
        <time>2012-08-16T14:10:26Z</time>
      </trkpt>
      <trkpt lat="47.90395" lon="-2.25855">
        <ele>45.32</ele>
        <time>2012-08-16T14:10:29Z</time>
      </trkpt>
      <trkpt lat="47.90409" lon="-2.25889">
        <ele>45.32</ele>
        <time>2012-08-16T14:10:35Z</time>
      </trkpt>
      <trkpt lat="47.90424" lon="-2.25913">
        <ele>44.84</ele>
        <time>2012-08-16T14:10:41Z</time>
      </trkpt>
      <trkpt lat="47.90429" lon="-2.25929">
        <ele>44.84</ele>
        <time>2012-08-16T14:10:44Z</time>
      </trkpt>
      <trkpt lat="47.90444" lon="-2.25963">
        <ele>45.32</ele>
        <time>2012-08-16T14:10:50Z</time>
      </trkpt>
      <trkpt lat="47.90464" lon="-2.26003">
        <ele>44.84</ele>
        <time>2012-08-16T14:10:56Z</time>
      </trkpt>
      <trkpt lat="47.90497" lon="-2.26071">
        <ele>44.84</ele>
        <time>2012-08-16T14:11:06Z</time>
      </trkpt>
      <trkpt lat="47.90529" lon="-2.2614">
        <ele>44.36</ele>
        <time>2012-08-16T14:11:16Z</time>
      </trkpt>
      <trkpt lat="47.90535" lon="-2.26153">
        <ele>43.88</ele>
        <time>2012-08-16T14:11:18Z</time>
      </trkpt>
      <trkpt lat="47.90546" lon="-2.26172">
        <ele>43.4</ele>
        <time>2012-08-16T14:11:22Z</time>
      </trkpt>
      <trkpt lat="47.90553" lon="-2.26185">
        <ele>43.4</ele>
        <time>2012-08-16T14:11:25Z</time>
      </trkpt>
      <trkpt lat="47.9056" lon="-2.26209">
        <ele>43.4</ele>
        <time>2012-08-16T14:11:30Z</time>
      </trkpt>
      <trkpt lat="47.90563" lon="-2.26214">
        <ele>43.4</ele>
        <time>2012-08-16T14:11:31Z</time>
      </trkpt>
      <trkpt lat="47.90582" lon="-2.26247">
        <ele>43.4</ele>
        <time>2012-08-16T14:11:38Z</time>
      </trkpt>
      <trkpt lat="47.90605" lon="-2.26295">
        <ele>42.44</ele>
        <time>2012-08-16T14:11:46Z</time>
      </trkpt>
      <trkpt lat="47.90617" lon="-2.26321">
        <ele>41.95</ele>
        <time>2012-08-16T14:11:50Z</time>
      </trkpt>
      <trkpt lat="47.90637" lon="-2.26367">
        <ele>40.51</ele>
        <time>2012-08-16T14:11:57Z</time>
      </trkpt>
      <trkpt lat="47.90658" lon="-2.26413">
        <ele>42.44</ele>
        <time>2012-08-16T14:12:04Z</time>
      </trkpt>
      <trkpt lat="47.90675" lon="-2.2645">
        <ele>43.4</ele>
        <time>2012-08-16T14:12:10Z</time>
      </trkpt>
      <trkpt lat="47.90699" lon="-2.26509">
        <ele>43.4</ele>
        <time>2012-08-16T14:12:19Z</time>
      </trkpt>
      <trkpt lat="47.90714" lon="-2.26548">
        <ele>42.44</ele>
        <time>2012-08-16T14:12:26Z</time>
      </trkpt>
      <trkpt lat="47.90723" lon="-2.26602">
        <ele>40.99</ele>
        <time>2012-08-16T14:12:33Z</time>
      </trkpt>
      <trkpt lat="47.90728" lon="-2.26669">
        <ele>41.47</ele>
        <time>2012-08-16T14:12:41Z</time>
      </trkpt>
      <trkpt lat="47.90732" lon="-2.26733">
        <ele>42.92</ele>
        <time>2012-08-16T14:12:49Z</time>
      </trkpt>
      <trkpt lat="47.9073" lon="-2.26792">
        <ele>43.88</ele>
        <time>2012-08-16T14:12:57Z</time>
      </trkpt>
      <trkpt lat="47.90728" lon="-2.26807">
        <ele>44.36</ele>
        <time>2012-08-16T14:12:59Z</time>
      </trkpt>
      <trkpt lat="47.90723" lon="-2.26859">
        <ele>44.84</ele>
        <time>2012-08-16T14:13:06Z</time>
      </trkpt>
      <trkpt lat="47.90721" lon="-2.26893">
        <ele>45.32</ele>
        <time>2012-08-16T14:13:11Z</time>
      </trkpt>
      <trkpt lat="47.90719" lon="-2.26908">
        <ele>45.8</ele>
        <time>2012-08-16T14:13:13Z</time>
      </trkpt>
      <trkpt lat="47.90717" lon="-2.2694">
        <ele>45.32</ele>
        <time>2012-08-16T14:13:18Z</time>
      </trkpt>
      <trkpt lat="47.90709" lon="-2.26976">
        <ele>46.28</ele>
        <time>2012-08-16T14:13:24Z</time>
      </trkpt>
      <trkpt lat="47.90705" lon="-2.27021">
        <ele>46.76</ele>
        <time>2012-08-16T14:13:31Z</time>
      </trkpt>
      <trkpt lat="47.90705" lon="-2.2708">
        <ele>46.28</ele>
        <time>2012-08-16T14:13:39Z</time>
      </trkpt>
      <trkpt lat="47.90705" lon="-2.27101">
        <ele>45.8</ele>
        <time>2012-08-16T14:13:42Z</time>
      </trkpt>
      <trkpt lat="47.90707" lon="-2.27128">
        <ele>45.8</ele>
        <time>2012-08-16T14:13:46Z</time>
      </trkpt>
      <trkpt lat="47.90707" lon="-2.27158">
        <ele>45.8</ele>
        <time>2012-08-16T14:13:50Z</time>
      </trkpt>
      <trkpt lat="47.90713" lon="-2.2722">
        <ele>47.24</ele>
        <time>2012-08-16T14:13:58Z</time>
      </trkpt>
      <trkpt lat="47.90726" lon="-2.27283">
        <ele>48.2</ele>
        <time>2012-08-16T14:14:06Z</time>
      </trkpt>
      <trkpt lat="47.90727" lon="-2.2729">
        <ele>48.2</ele>
        <time>2012-08-16T14:14:07Z</time>
      </trkpt>
      <trkpt lat="47.90742" lon="-2.27329">
        <ele>49.65</ele>
        <time>2012-08-16T14:14:14Z</time>
      </trkpt>
      <trkpt lat="47.90757" lon="-2.2737">
        <ele>50.61</ele>
        <time>2012-08-16T14:14:22Z</time>
      </trkpt>
      <trkpt lat="47.90758" lon="-2.2738">
        <ele>51.09</ele>
        <time>2012-08-16T14:14:28Z</time>
      </trkpt>
      <trkpt lat="47.90756" lon="-2.27387">
        <ele>50.61</ele>
        <time>2012-08-16T14:14:39Z</time>
      </trkpt>
      <trkpt lat="47.90753" lon="-2.2739">
        <ele>50.61</ele>
        <time>2012-08-16T14:14:56Z</time>
      </trkpt>
      <trkpt lat="47.90753" lon="-2.27394">
        <ele>49.65</ele>
        <time>2012-08-16T14:15:16Z</time>
      </trkpt>
      <trkpt lat="47.90752" lon="-2.27395">
        <ele>51.09</ele>
        <time>2012-08-16T14:15:31Z</time>
      </trkpt>
      <trkpt lat="47.90754" lon="-2.27395">
        <ele>55.41</ele>
        <time>2012-08-16T14:15:49Z</time>
      </trkpt>
      <trkpt lat="47.90756" lon="-2.27395">
        <ele>59.74</ele>
        <time>2012-08-16T14:16:07Z</time>
      </trkpt>
      <trkpt lat="47.90757" lon="-2.27394">
        <ele>64.07</ele>
        <time>2012-08-16T14:16:26Z</time>
      </trkpt>
      <trkpt lat="47.90757" lon="-2.27395">
        <ele>63.1</ele>
        <time>2012-08-16T14:16:42Z</time>
      </trkpt>
      <trkpt lat="47.90757" lon="-2.27395">
        <ele>61.66</ele>
        <time>2012-08-16T14:17:02Z</time>
      </trkpt>
      <trkpt lat="47.90758" lon="-2.27393">
        <ele>59.74</ele>
        <time>2012-08-16T14:17:23Z</time>
      </trkpt>
      <trkpt lat="47.90759" lon="-2.27392">
        <ele>60.22</ele>
        <time>2012-08-16T14:17:43Z</time>
      </trkpt>
      <trkpt lat="47.9076" lon="-2.27392">
        <ele>62.14</ele>
        <time>2012-08-16T14:18:04Z</time>
      </trkpt>
      <trkpt lat="47.90761" lon="-2.27391">
        <ele>61.18</ele>
        <time>2012-08-16T14:18:21Z</time>
      </trkpt>
      <trkpt lat="47.90761" lon="-2.27391">
        <ele>61.18</ele>
        <time>2012-08-16T14:18:37Z</time>
      </trkpt>
      <trkpt lat="47.90761" lon="-2.27391">
        <ele>61.18</ele>
        <time>2012-08-16T14:18:47Z</time>
      </trkpt>
      <trkpt lat="47.9076" lon="-2.27391">
        <ele>60.22</ele>
        <time>2012-08-16T14:19:00Z</time>
      </trkpt>
      <trkpt lat="47.90762" lon="-2.27396">
        <ele>60.22</ele>
        <time>2012-08-16T14:19:09Z</time>
      </trkpt>
      <trkpt lat="47.90775" lon="-2.27415">
        <ele>59.26</ele>
        <time>2012-08-16T14:19:17Z</time>
      </trkpt>
      <trkpt lat="47.90788" lon="-2.2744">
        <ele>58.78</ele>
        <time>2012-08-16T14:19:24Z</time>
      </trkpt>
      <trkpt lat="47.90808" lon="-2.2748">
        <ele>57.82</ele>
        <time>2012-08-16T14:19:33Z</time>
      </trkpt>
      <trkpt lat="47.90829" lon="-2.27518">
        <ele>57.34</ele>
        <time>2012-08-16T14:19:41Z</time>
      </trkpt>
      <trkpt lat="47.90848" lon="-2.27554">
        <ele>56.86</ele>
        <time>2012-08-16T14:19:48Z</time>
      </trkpt>
      <trkpt lat="47.90878" lon="-2.27611">
        <ele>55.89</ele>
        <time>2012-08-16T14:19:57Z</time>
      </trkpt>
      <trkpt lat="47.90889" lon="-2.27631">
        <ele>55.41</ele>
        <time>2012-08-16T14:20:01Z</time>
      </trkpt>
      <trkpt lat="47.90915" lon="-2.27685">
        <ele>55.41</ele>
        <time>2012-08-16T14:20:10Z</time>
      </trkpt>
      <trkpt lat="47.90946" lon="-2.27745">
        <ele>56.37</ele>
        <time>2012-08-16T14:20:20Z</time>
      </trkpt>
      <trkpt lat="47.90967" lon="-2.27787">
        <ele>56.86</ele>
        <time>2012-08-16T14:20:27Z</time>
      </trkpt>
      <trkpt lat="47.90995" lon="-2.27841">
        <ele>57.34</ele>
        <time>2012-08-16T14:20:36Z</time>
      </trkpt>
      <trkpt lat="47.91021" lon="-2.27888">
        <ele>57.34</ele>
        <time>2012-08-16T14:20:44Z</time>
      </trkpt>
      <trkpt lat="47.91033" lon="-2.27911">
        <ele>57.34</ele>
        <time>2012-08-16T14:20:48Z</time>
      </trkpt>
      <trkpt lat="47.91067" lon="-2.27974">
        <ele>56.37</ele>
        <time>2012-08-16T14:20:59Z</time>
      </trkpt>
      <trkpt lat="47.91094" lon="-2.28025">
        <ele>55.89</ele>
        <time>2012-08-16T14:21:08Z</time>
      </trkpt>
      <trkpt lat="47.911" lon="-2.28031">
        <ele>55.41</ele>
        <time>2012-08-16T14:21:10Z</time>
      </trkpt>
      <trkpt lat="47.9111" lon="-2.2806">
        <ele>54.45</ele>
        <time>2012-08-16T14:21:17Z</time>
      </trkpt>
      <trkpt lat="47.91115" lon="-2.28087">
        <ele>53.49</ele>
        <time>2012-08-16T14:21:25Z</time>
      </trkpt>
      <trkpt lat="47.91132" lon="-2.28128">
        <ele>52.53</ele>
        <time>2012-08-16T14:21:34Z</time>
      </trkpt>
      <trkpt lat="47.91148" lon="-2.2818">
        <ele>51.57</ele>
        <time>2012-08-16T14:21:42Z</time>
      </trkpt>
      <trkpt lat="47.91154" lon="-2.28192">
        <ele>51.09</ele>
        <time>2012-08-16T14:21:44Z</time>
      </trkpt>
      <trkpt lat="47.91179" lon="-2.2826">
        <ele>50.61</ele>
        <time>2012-08-16T14:21:54Z</time>
      </trkpt>
      <trkpt lat="47.91205" lon="-2.28331">
        <ele>50.61</ele>
        <time>2012-08-16T14:22:04Z</time>
      </trkpt>
      <trkpt lat="47.9123" lon="-2.28396">
        <ele>50.13</ele>
        <time>2012-08-16T14:22:14Z</time>
      </trkpt>
      <trkpt lat="47.91238" lon="-2.28411">
        <ele>49.65</ele>
        <time>2012-08-16T14:22:18Z</time>
      </trkpt>
      <trkpt lat="47.91242" lon="-2.28441">
        <ele>49.16</ele>
        <time>2012-08-16T14:22:25Z</time>
      </trkpt>
      <trkpt lat="47.91248" lon="-2.28471">
        <ele>48.68</ele>
        <time>2012-08-16T14:22:31Z</time>
      </trkpt>
      <trkpt lat="47.91254" lon="-2.28505">
        <ele>49.16</ele>
        <time>2012-08-16T14:22:36Z</time>
      </trkpt>
      <trkpt lat="47.91263" lon="-2.2856">
        <ele>49.65</ele>
        <time>2012-08-16T14:22:44Z</time>
      </trkpt>
      <trkpt lat="47.91274" lon="-2.28618">
        <ele>50.13</ele>
        <time>2012-08-16T14:22:52Z</time>
      </trkpt>
      <trkpt lat="47.91286" lon="-2.28679">
        <ele>49.16</ele>
        <time>2012-08-16T14:23:00Z</time>
      </trkpt>
      <trkpt lat="47.91289" lon="-2.28692">
        <ele>49.16</ele>
        <time>2012-08-16T14:23:02Z</time>
      </trkpt>
      <trkpt lat="47.91292" lon="-2.28706">
        <ele>49.16</ele>
        <time>2012-08-16T14:23:04Z</time>
      </trkpt>
      <trkpt lat="47.913" lon="-2.28775">
        <ele>50.61</ele>
        <time>2012-08-16T14:23:13Z</time>
      </trkpt>
      <trkpt lat="47.91307" lon="-2.28846">
        <ele>54.45</ele>
        <time>2012-08-16T14:23:22Z</time>
      </trkpt>
      <trkpt lat="47.91314" lon="-2.28888">
        <ele>56.37</ele>
        <time>2012-08-16T14:23:28Z</time>
      </trkpt>
      <trkpt lat="47.91325" lon="-2.28955">
        <ele>58.3</ele>
        <time>2012-08-16T14:23:37Z</time>
      </trkpt>
      <trkpt lat="47.91334" lon="-2.29014">
        <ele>61.18</ele>
        <time>2012-08-16T14:23:45Z</time>
      </trkpt>
      <trkpt lat="47.91342" lon="-2.29068">
        <ele>62.62</ele>
        <time>2012-08-16T14:23:52Z</time>
      </trkpt>
      <trkpt lat="47.91353" lon="-2.29145">
        <ele>61.66</ele>
        <time>2012-08-16T14:24:02Z</time>
      </trkpt>
      <trkpt lat="47.91361" lon="-2.29199">
        <ele>60.7</ele>
        <time>2012-08-16T14:24:09Z</time>
      </trkpt>
      <trkpt lat="47.9137" lon="-2.29263">
        <ele>60.7</ele>
        <time>2012-08-16T14:24:18Z</time>
      </trkpt>
      <trkpt lat="47.91378" lon="-2.29326">
        <ele>62.62</ele>
        <time>2012-08-16T14:24:27Z</time>
      </trkpt>
      <trkpt lat="47.91383" lon="-2.29368">
        <ele>63.58</ele>
        <time>2012-08-16T14:24:33Z</time>
      </trkpt>
      <trkpt lat="47.91389" lon="-2.29432">
        <ele>63.1</ele>
        <time>2012-08-16T14:24:42Z</time>
      </trkpt>
      <trkpt lat="47.91392" lon="-2.29489">
        <ele>62.62</ele>
        <time>2012-08-16T14:24:51Z</time>
      </trkpt>
      <trkpt lat="47.91392" lon="-2.29515">
        <ele>62.14</ele>
        <time>2012-08-16T14:24:55Z</time>
      </trkpt>
      <trkpt lat="47.91396" lon="-2.29567">
        <ele>61.66</ele>
        <time>2012-08-16T14:25:02Z</time>
      </trkpt>
      <trkpt lat="47.91401" lon="-2.29642">
        <ele>60.22</ele>
        <time>2012-08-16T14:25:11Z</time>
      </trkpt>
      <trkpt lat="47.91401" lon="-2.29675">
        <ele>59.74</ele>
        <time>2012-08-16T14:25:15Z</time>
      </trkpt>
      <trkpt lat="47.91403" lon="-2.29749">
        <ele>59.74</ele>
        <time>2012-08-16T14:25:25Z</time>
      </trkpt>
      <trkpt lat="47.91404" lon="-2.29813">
        <ele>60.7</ele>
        <time>2012-08-16T14:25:34Z</time>
      </trkpt>
      <trkpt lat="47.91405" lon="-2.29834">
        <ele>61.18</ele>
        <time>2012-08-16T14:25:37Z</time>
      </trkpt>
      <trkpt lat="47.91405" lon="-2.29886">
        <ele>62.14</ele>
        <time>2012-08-16T14:25:45Z</time>
      </trkpt>
      <trkpt lat="47.91406" lon="-2.29919">
        <ele>63.1</ele>
        <time>2012-08-16T14:25:50Z</time>
      </trkpt>
      <trkpt lat="47.91406" lon="-2.29964">
        <ele>64.07</ele>
        <time>2012-08-16T14:25:57Z</time>
      </trkpt>
      <trkpt lat="47.91409" lon="-2.30019">
        <ele>64.07</ele>
        <time>2012-08-16T14:26:06Z</time>
      </trkpt>
      <trkpt lat="47.91412" lon="-2.30067">
        <ele>63.1</ele>
        <time>2012-08-16T14:26:13Z</time>
      </trkpt>
      <trkpt lat="47.91414" lon="-2.30121">
        <ele>63.1</ele>
        <time>2012-08-16T14:26:21Z</time>
      </trkpt>
      <trkpt lat="47.91415" lon="-2.30175">
        <ele>64.07</ele>
        <time>2012-08-16T14:26:29Z</time>
      </trkpt>
      <trkpt lat="47.91416" lon="-2.30237">
        <ele>65.03</ele>
        <time>2012-08-16T14:26:39Z</time>
      </trkpt>
      <trkpt lat="47.91418" lon="-2.30285">
        <ele>65.03</ele>
        <time>2012-08-16T14:26:47Z</time>
      </trkpt>
      <trkpt lat="47.91419" lon="-2.30309">
        <ele>65.51</ele>
        <time>2012-08-16T14:26:52Z</time>
      </trkpt>
      <trkpt lat="47.91419" lon="-2.30321">
        <ele>65.51</ele>
        <time>2012-08-16T14:26:54Z</time>
      </trkpt>
      <trkpt lat="47.91421" lon="-2.30388">
        <ele>65.99</ele>
        <time>2012-08-16T14:27:05Z</time>
      </trkpt>
      <trkpt lat="47.91423" lon="-2.30435">
        <ele>66.47</ele>
        <time>2012-08-16T14:27:13Z</time>
      </trkpt>
      <trkpt lat="47.91424" lon="-2.30478">
        <ele>65.99</ele>
        <time>2012-08-16T14:27:20Z</time>
      </trkpt>
      <trkpt lat="47.91425" lon="-2.30491">
        <ele>65.99</ele>
        <time>2012-08-16T14:27:22Z</time>
      </trkpt>
      <trkpt lat="47.91427" lon="-2.30564">
        <ele>64.55</ele>
        <time>2012-08-16T14:27:32Z</time>
      </trkpt>
      <trkpt lat="47.9143" lon="-2.30637">
        <ele>63.1</ele>
        <time>2012-08-16T14:27:42Z</time>
      </trkpt>
      <trkpt lat="47.91432" lon="-2.30682">
        <ele>62.62</ele>
        <time>2012-08-16T14:27:48Z</time>
      </trkpt>
      <trkpt lat="47.91433" lon="-2.30696">
        <ele>62.62</ele>
        <time>2012-08-16T14:27:50Z</time>
      </trkpt>
      <trkpt lat="47.91431" lon="-2.30722">
        <ele>62.62</ele>
        <time>2012-08-16T14:27:55Z</time>
      </trkpt>
      <trkpt lat="47.91431" lon="-2.30733">
        <ele>63.1</ele>
        <time>2012-08-16T14:27:57Z</time>
      </trkpt>
      <trkpt lat="47.91435" lon="-2.30792">
        <ele>63.1</ele>
        <time>2012-08-16T14:28:06Z</time>
      </trkpt>
      <trkpt lat="47.91436" lon="-2.30864">
        <ele>63.58</ele>
        <time>2012-08-16T14:28:16Z</time>
      </trkpt>
      <trkpt lat="47.91437" lon="-2.30929">
        <ele>64.55</ele>
        <time>2012-08-16T14:28:25Z</time>
      </trkpt>
      <trkpt lat="47.9144" lon="-2.31012">
        <ele>64.55</ele>
        <time>2012-08-16T14:28:36Z</time>
      </trkpt>
      <trkpt lat="47.91441" lon="-2.31051">
        <ele>65.03</ele>
        <time>2012-08-16T14:28:41Z</time>
      </trkpt>
      <trkpt lat="47.91443" lon="-2.31103">
        <ele>65.51</ele>
        <time>2012-08-16T14:28:48Z</time>
      </trkpt>
      <trkpt lat="47.91443" lon="-2.31118">
        <ele>65.51</ele>
        <time>2012-08-16T14:28:50Z</time>
      </trkpt>
      <trkpt lat="47.91447" lon="-2.31191">
        <ele>64.55</ele>
        <time>2012-08-16T14:29:00Z</time>
      </trkpt>
      <trkpt lat="47.91447" lon="-2.31198">
        <ele>64.55</ele>
        <time>2012-08-16T14:29:01Z</time>
      </trkpt>
      <trkpt lat="47.91447" lon="-2.31213">
        <ele>64.07</ele>
        <time>2012-08-16T14:29:03Z</time>
      </trkpt>
      <trkpt lat="47.91449" lon="-2.31237">
        <ele>64.07</ele>
        <time>2012-08-16T14:29:07Z</time>
      </trkpt>
      <trkpt lat="47.9145" lon="-2.31282">
        <ele>64.55</ele>
        <time>2012-08-16T14:29:14Z</time>
      </trkpt>
      <trkpt lat="47.91453" lon="-2.31307">
        <ele>65.03</ele>
        <time>2012-08-16T14:29:18Z</time>
      </trkpt>
      <trkpt lat="47.91452" lon="-2.31376">
        <ele>64.55</ele>
        <time>2012-08-16T14:29:27Z</time>
      </trkpt>
      <trkpt lat="47.91452" lon="-2.31385">
        <ele>64.55</ele>
        <time>2012-08-16T14:29:28Z</time>
      </trkpt>
      <trkpt lat="47.91446" lon="-2.3147">
        <ele>65.03</ele>
        <time>2012-08-16T14:29:39Z</time>
      </trkpt>
      <trkpt lat="47.91439" lon="-2.31544">
        <ele>66.47</ele>
        <time>2012-08-16T14:29:49Z</time>
      </trkpt>
      <trkpt lat="47.91433" lon="-2.31614">
        <ele>68.39</ele>
        <time>2012-08-16T14:29:59Z</time>
      </trkpt>
      <trkpt lat="47.91427" lon="-2.31672">
        <ele>69.35</ele>
        <time>2012-08-16T14:30:07Z</time>
      </trkpt>
      <trkpt lat="47.9142" lon="-2.31744">
        <ele>70.79</ele>
        <time>2012-08-16T14:30:16Z</time>
      </trkpt>
      <trkpt lat="47.91413" lon="-2.31811">
        <ele>71.76</ele>
        <time>2012-08-16T14:30:25Z</time>
      </trkpt>
      <trkpt lat="47.91406" lon="-2.31871">
        <ele>71.76</ele>
        <time>2012-08-16T14:30:33Z</time>
      </trkpt>
      <trkpt lat="47.91398" lon="-2.3195">
        <ele>73.2</ele>
        <time>2012-08-16T14:30:43Z</time>
      </trkpt>
      <trkpt lat="47.91393" lon="-2.32025">
        <ele>73.68</ele>
        <time>2012-08-16T14:30:53Z</time>
      </trkpt>
      <trkpt lat="47.91391" lon="-2.32075">
        <ele>75.12</ele>
        <time>2012-08-16T14:31:01Z</time>
      </trkpt>
      <trkpt lat="47.91386" lon="-2.32126">
        <ele>76.56</ele>
        <time>2012-08-16T14:31:09Z</time>
      </trkpt>
      <trkpt lat="47.91385" lon="-2.32158">
        <ele>77.04</ele>
        <time>2012-08-16T14:31:14Z</time>
      </trkpt>
      <trkpt lat="47.91382" lon="-2.3219">
        <ele>77.52</ele>
        <time>2012-08-16T14:31:20Z</time>
      </trkpt>
      <trkpt lat="47.91381" lon="-2.32239">
        <ele>78</ele>
        <time>2012-08-16T14:31:28Z</time>
      </trkpt>
      <trkpt lat="47.91377" lon="-2.32286">
        <ele>78.48</ele>
        <time>2012-08-16T14:31:36Z</time>
      </trkpt>
      <trkpt lat="47.91376" lon="-2.32299">
        <ele>78.48</ele>
        <time>2012-08-16T14:31:38Z</time>
      </trkpt>
      <trkpt lat="47.9137" lon="-2.32373">
        <ele>80.89</ele>
        <time>2012-08-16T14:31:49Z</time>
      </trkpt>
      <trkpt lat="47.91366" lon="-2.32424">
        <ele>80.89</ele>
        <time>2012-08-16T14:31:57Z</time>
      </trkpt>
      <trkpt lat="47.91365" lon="-2.32437">
        <ele>80.89</ele>
        <time>2012-08-16T14:31:59Z</time>
      </trkpt>
      <trkpt lat="47.91363" lon="-2.32451">
        <ele>80.89</ele>
        <time>2012-08-16T14:32:01Z</time>
      </trkpt>
      <trkpt lat="47.91361" lon="-2.32477">
        <ele>80.89</ele>
        <time>2012-08-16T14:32:05Z</time>
      </trkpt>
      <trkpt lat="47.91355" lon="-2.3255">
        <ele>80.89</ele>
        <time>2012-08-16T14:32:16Z</time>
      </trkpt>
      <trkpt lat="47.91349" lon="-2.32626">
        <ele>82.33</ele>
        <time>2012-08-16T14:32:26Z</time>
      </trkpt>
      <trkpt lat="47.91342" lon="-2.32699">
        <ele>81.85</ele>
        <time>2012-08-16T14:32:36Z</time>
      </trkpt>
      <trkpt lat="47.91335" lon="-2.32753">
        <ele>81.37</ele>
        <time>2012-08-16T14:32:45Z</time>
      </trkpt>
      <trkpt lat="47.9133" lon="-2.32817">
        <ele>82.33</ele>
        <time>2012-08-16T14:32:55Z</time>
      </trkpt>
      <trkpt lat="47.91325" lon="-2.3287">
        <ele>82.81</ele>
        <time>2012-08-16T14:33:03Z</time>
      </trkpt>
      <trkpt lat="47.91321" lon="-2.3294">
        <ele>83.77</ele>
        <time>2012-08-16T14:33:13Z</time>
      </trkpt>
      <trkpt lat="47.9132" lon="-2.32993">
        <ele>84.73</ele>
        <time>2012-08-16T14:33:21Z</time>
      </trkpt>
      <trkpt lat="47.9132" lon="-2.33035">
        <ele>85.69</ele>
        <time>2012-08-16T14:33:27Z</time>
      </trkpt>
      <trkpt lat="47.91329" lon="-2.33114">
        <ele>83.77</ele>
        <time>2012-08-16T14:33:38Z</time>
      </trkpt>
      <trkpt lat="47.91338" lon="-2.33174">
        <ele>84.25</ele>
        <time>2012-08-16T14:33:47Z</time>
      </trkpt>
      <trkpt lat="47.91348" lon="-2.33224">
        <ele>86.18</ele>
        <time>2012-08-16T14:33:55Z</time>
      </trkpt>
      <trkpt lat="47.9136" lon="-2.33279">
        <ele>88.1</ele>
        <time>2012-08-16T14:34:03Z</time>
      </trkpt>
      <trkpt lat="47.91376" lon="-2.33341">
        <ele>89.54</ele>
        <time>2012-08-16T14:34:13Z</time>
      </trkpt>
      <trkpt lat="47.91378" lon="-2.33347">
        <ele>89.54</ele>
        <time>2012-08-16T14:34:14Z</time>
      </trkpt>
      <trkpt lat="47.91397" lon="-2.33421">
        <ele>90.98</ele>
        <time>2012-08-16T14:34:25Z</time>
      </trkpt>
      <trkpt lat="47.91416" lon="-2.335">
        <ele>92.9</ele>
        <time>2012-08-16T14:34:36Z</time>
      </trkpt>
      <trkpt lat="47.91429" lon="-2.33555">
        <ele>94.35</ele>
        <time>2012-08-16T14:34:44Z</time>
      </trkpt>
      <trkpt lat="47.91442" lon="-2.33606">
        <ele>95.79</ele>
        <time>2012-08-16T14:34:52Z</time>
      </trkpt>
      <trkpt lat="47.91451" lon="-2.33651">
        <ele>99.63</ele>
        <time>2012-08-16T14:34:59Z</time>
      </trkpt>
      <trkpt lat="47.91461" lon="-2.33691">
        <ele>99.63</ele>
        <time>2012-08-16T14:35:07Z</time>
      </trkpt>
      <trkpt lat="47.91469" lon="-2.33717">
        <ele>100.6</ele>
        <time>2012-08-16T14:35:14Z</time>
      </trkpt>
      <trkpt lat="47.91479" lon="-2.33752">
        <ele>102.04</ele>
        <time>2012-08-16T14:35:21Z</time>
      </trkpt>
      <trkpt lat="47.91482" lon="-2.33763">
        <ele>102.52</ele>
        <time>2012-08-16T14:35:23Z</time>
      </trkpt>
      <trkpt lat="47.91501" lon="-2.33838">
        <ele>103.48</ele>
        <time>2012-08-16T14:35:34Z</time>
      </trkpt>
      <trkpt lat="47.91516" lon="-2.33897">
        <ele>104.92</ele>
        <time>2012-08-16T14:35:42Z</time>
      </trkpt>
      <trkpt lat="47.9153" lon="-2.33962">
        <ele>105.88</ele>
        <time>2012-08-16T14:35:50Z</time>
      </trkpt>
      <trkpt lat="47.91545" lon="-2.34032">
        <ele>107.32</ele>
        <time>2012-08-16T14:35:58Z</time>
      </trkpt>
      <trkpt lat="47.91561" lon="-2.34102">
        <ele>108.77</ele>
        <time>2012-08-16T14:36:06Z</time>
      </trkpt>
      <trkpt lat="47.91569" lon="-2.34136">
        <ele>109.73</ele>
        <time>2012-08-16T14:36:10Z</time>
      </trkpt>
      <trkpt lat="47.91584" lon="-2.34193">
        <ele>111.17</ele>
        <time>2012-08-16T14:36:17Z</time>
      </trkpt>
      <trkpt lat="47.91607" lon="-2.34272">
        <ele>105.88</ele>
        <time>2012-08-16T14:36:25Z</time>
      </trkpt>
      <trkpt lat="47.91619" lon="-2.34327">
        <ele>104.92</ele>
        <time>2012-08-16T14:36:31Z</time>
      </trkpt>
      <trkpt lat="47.91624" lon="-2.34353">
        <ele>103.96</ele>
        <time>2012-08-16T14:36:34Z</time>
      </trkpt>
      <trkpt lat="47.91634" lon="-2.34387">
        <ele>100.11</ele>
        <time>2012-08-16T14:36:40Z</time>
      </trkpt>
      <trkpt lat="47.91641" lon="-2.34423">
        <ele>95.79</ele>
        <time>2012-08-16T14:36:47Z</time>
      </trkpt>
      <trkpt lat="47.91645" lon="-2.34435">
        <ele>94.35</ele>
        <time>2012-08-16T14:36:49Z</time>
      </trkpt>
      <trkpt lat="47.91658" lon="-2.34496">
        <ele>90.98</ele>
        <time>2012-08-16T14:36:56Z</time>
      </trkpt>
      <trkpt lat="47.91666" lon="-2.34575">
        <ele>88.58</ele>
        <time>2012-08-16T14:37:04Z</time>
      </trkpt>
      <trkpt lat="47.9167" lon="-2.34639">
        <ele>87.62</ele>
        <time>2012-08-16T14:37:12Z</time>
      </trkpt>
      <trkpt lat="47.9167" lon="-2.34691">
        <ele>86.66</ele>
        <time>2012-08-16T14:37:19Z</time>
      </trkpt>
      <trkpt lat="47.91668" lon="-2.34747">
        <ele>85.69</ele>
        <time>2012-08-16T14:37:27Z</time>
      </trkpt>
      <trkpt lat="47.91663" lon="-2.34782">
        <ele>84.73</ele>
        <time>2012-08-16T14:37:32Z</time>
      </trkpt>
      <trkpt lat="47.91654" lon="-2.3484">
        <ele>83.29</ele>
        <time>2012-08-16T14:37:39Z</time>
      </trkpt>
      <trkpt lat="47.9164" lon="-2.34915">
        <ele>81.37</ele>
        <time>2012-08-16T14:37:47Z</time>
      </trkpt>
      <trkpt lat="47.91626" lon="-2.3497">
        <ele>78.97</ele>
        <time>2012-08-16T14:37:53Z</time>
      </trkpt>
      <trkpt lat="47.91623" lon="-2.34985">
        <ele>78.97</ele>
        <time>2012-08-16T14:37:55Z</time>
      </trkpt>
      <trkpt lat="47.91609" lon="-2.34998">
        <ele>78.97</ele>
        <time>2012-08-16T14:38:00Z</time>
      </trkpt>
      <trkpt lat="47.91602" lon="-2.35">
        <ele>78.97</ele>
        <time>2012-08-16T14:38:02Z</time>
      </trkpt>
      <trkpt lat="47.91593" lon="-2.35025">
        <ele>78</ele>
        <time>2012-08-16T14:38:07Z</time>
      </trkpt>
      <trkpt lat="47.91588" lon="-2.35045">
        <ele>78</ele>
        <time>2012-08-16T14:38:10Z</time>
      </trkpt>
      <trkpt lat="47.9159" lon="-2.35075">
        <ele>77.52</ele>
        <time>2012-08-16T14:38:14Z</time>
      </trkpt>
      <trkpt lat="47.91585" lon="-2.35101">
        <ele>77.52</ele>
        <time>2012-08-16T14:38:19Z</time>
      </trkpt>
      <trkpt lat="47.91583" lon="-2.35104">
        <ele>77.52</ele>
        <time>2012-08-16T14:38:20Z</time>
      </trkpt>
      <trkpt lat="47.91572" lon="-2.35135">
        <ele>77.04</ele>
        <time>2012-08-16T14:38:29Z</time>
      </trkpt>
      <trkpt lat="47.91562" lon="-2.3516">
        <ele>77.04</ele>
        <time>2012-08-16T14:38:35Z</time>
      </trkpt>
      <trkpt lat="47.91551" lon="-2.35195">
        <ele>77.04</ele>
        <time>2012-08-16T14:38:43Z</time>
      </trkpt>
      <trkpt lat="47.91537" lon="-2.35235">
        <ele>78</ele>
        <time>2012-08-16T14:38:51Z</time>
      </trkpt>
      <trkpt lat="47.91519" lon="-2.35285">
        <ele>78.48</ele>
        <time>2012-08-16T14:39:01Z</time>
      </trkpt>
      <trkpt lat="47.91507" lon="-2.35322">
        <ele>78.48</ele>
        <time>2012-08-16T14:39:08Z</time>
      </trkpt>
      <trkpt lat="47.91493" lon="-2.35374">
        <ele>78.97</ele>
        <time>2012-08-16T14:39:16Z</time>
      </trkpt>
      <trkpt lat="47.91481" lon="-2.35427">
        <ele>79.93</ele>
        <time>2012-08-16T14:39:24Z</time>
      </trkpt>
      <trkpt lat="47.91473" lon="-2.3548">
        <ele>81.37</ele>
        <time>2012-08-16T14:39:32Z</time>
      </trkpt>
      <trkpt lat="47.91467" lon="-2.35538">
        <ele>81.85</ele>
        <time>2012-08-16T14:39:40Z</time>
      </trkpt>
      <trkpt lat="47.91464" lon="-2.35603">
        <ele>81.37</ele>
        <time>2012-08-16T14:39:47Z</time>
      </trkpt>
      <trkpt lat="47.91465" lon="-2.3564">
        <ele>80.89</ele>
        <time>2012-08-16T14:39:51Z</time>
      </trkpt>
      <trkpt lat="47.91468" lon="-2.35671">
        <ele>79.93</ele>
        <time>2012-08-16T14:39:56Z</time>
      </trkpt>
      <trkpt lat="47.91472" lon="-2.35714">
        <ele>78.48</ele>
        <time>2012-08-16T14:40:03Z</time>
      </trkpt>
      <trkpt lat="47.91474" lon="-2.35728">
        <ele>78</ele>
        <time>2012-08-16T14:40:05Z</time>
      </trkpt>
      <trkpt lat="47.91477" lon="-2.35743">
        <ele>77.52</ele>
        <time>2012-08-16T14:40:07Z</time>
      </trkpt>
      <trkpt lat="47.91488" lon="-2.35805">
        <ele>74.64</ele>
        <time>2012-08-16T14:40:14Z</time>
      </trkpt>
      <trkpt lat="47.91492" lon="-2.35831">
        <ele>74.16</ele>
        <time>2012-08-16T14:40:17Z</time>
      </trkpt>
      <trkpt lat="47.9151" lon="-2.35919">
        <ele>72.72</ele>
        <time>2012-08-16T14:40:27Z</time>
      </trkpt>
      <trkpt lat="47.91524" lon="-2.35983">
        <ele>70.79</ele>
        <time>2012-08-16T14:40:34Z</time>
      </trkpt>
      <trkpt lat="47.9154" lon="-2.3606">
        <ele>69.35</ele>
        <time>2012-08-16T14:40:42Z</time>
      </trkpt>
      <trkpt lat="47.91559" lon="-2.36168">
        <ele>67.43</ele>
        <time>2012-08-16T14:40:53Z</time>
      </trkpt>
      <trkpt lat="47.91577" lon="-2.36265">
        <ele>65.99</ele>
        <time>2012-08-16T14:41:03Z</time>
      </trkpt>
      <trkpt lat="47.91589" lon="-2.36335">
        <ele>64.55</ele>
        <time>2012-08-16T14:41:11Z</time>
      </trkpt>
      <trkpt lat="47.91592" lon="-2.36351">
        <ele>64.07</ele>
        <time>2012-08-16T14:41:13Z</time>
      </trkpt>
      <trkpt lat="47.91599" lon="-2.36374">
        <ele>64.07</ele>
        <time>2012-08-16T14:41:17Z</time>
      </trkpt>
      <trkpt lat="47.916" lon="-2.36392">
        <ele>64.07</ele>
        <time>2012-08-16T14:41:20Z</time>
      </trkpt>
      <trkpt lat="47.91604" lon="-2.36404">
        <ele>63.58</ele>
        <time>2012-08-16T14:41:22Z</time>
      </trkpt>
      <trkpt lat="47.91612" lon="-2.3643">
        <ele>63.1</ele>
        <time>2012-08-16T14:41:26Z</time>
      </trkpt>
      <trkpt lat="47.91627" lon="-2.36515">
        <ele>62.62</ele>
        <time>2012-08-16T14:41:35Z</time>
      </trkpt>
      <trkpt lat="47.91638" lon="-2.3658">
        <ele>62.62</ele>
        <time>2012-08-16T14:41:42Z</time>
      </trkpt>
      <trkpt lat="47.91647" lon="-2.36632">
        <ele>63.1</ele>
        <time>2012-08-16T14:41:48Z</time>
      </trkpt>
      <trkpt lat="47.9166" lon="-2.36711">
        <ele>65.51</ele>
        <time>2012-08-16T14:41:56Z</time>
      </trkpt>
      <trkpt lat="47.91671" lon="-2.3677">
        <ele>65.99</ele>
        <time>2012-08-16T14:42:02Z</time>
      </trkpt>
      <trkpt lat="47.91684" lon="-2.3684">
        <ele>66.95</ele>
        <time>2012-08-16T14:42:10Z</time>
      </trkpt>
      <trkpt lat="47.91696" lon="-2.3691">
        <ele>67.91</ele>
        <time>2012-08-16T14:42:18Z</time>
      </trkpt>
      <trkpt lat="47.9171" lon="-2.36986">
        <ele>68.39</ele>
        <time>2012-08-16T14:42:27Z</time>
      </trkpt>
      <trkpt lat="47.91711" lon="-2.37">
        <ele>68.39</ele>
        <time>2012-08-16T14:42:29Z</time>
      </trkpt>
      <trkpt lat="47.91719" lon="-2.37028">
        <ele>68.39</ele>
        <time>2012-08-16T14:42:34Z</time>
      </trkpt>
      <trkpt lat="47.9172" lon="-2.37034">
        <ele>68.39</ele>
        <time>2012-08-16T14:42:35Z</time>
      </trkpt>
      <trkpt lat="47.9172" lon="-2.37044">
        <ele>68.39</ele>
        <time>2012-08-16T14:42:37Z</time>
      </trkpt>
      <trkpt lat="47.9173" lon="-2.37053">
        <ele>68.39</ele>
        <time>2012-08-16T14:42:41Z</time>
      </trkpt>
      <trkpt lat="47.9177" lon="-2.37062">
        <ele>67.91</ele>
        <time>2012-08-16T14:42:49Z</time>
      </trkpt>
      <trkpt lat="47.9182" lon="-2.37068">
        <ele>66.95</ele>
        <time>2012-08-16T14:42:57Z</time>
      </trkpt>
      <trkpt lat="47.91862" lon="-2.37067">
        <ele>65.03</ele>
        <time>2012-08-16T14:43:03Z</time>
      </trkpt>
      <trkpt lat="47.91891" lon="-2.37068">
        <ele>64.07</ele>
        <time>2012-08-16T14:43:07Z</time>
      </trkpt>
      <trkpt lat="47.91904" lon="-2.37086">
        <ele>62.62</ele>
        <time>2012-08-16T14:43:11Z</time>
      </trkpt>
      <trkpt lat="47.91902" lon="-2.37093">
        <ele>62.14</ele>
        <time>2012-08-16T14:43:12Z</time>
      </trkpt>
      <trkpt lat="47.91895" lon="-2.37106">
        <ele>61.18</ele>
        <time>2012-08-16T14:43:15Z</time>
      </trkpt>
      <trkpt lat="47.91883" lon="-2.37145">
        <ele>60.22</ele>
        <time>2012-08-16T14:43:22Z</time>
      </trkpt>
      <trkpt lat="47.91874" lon="-2.37179">
        <ele>59.74</ele>
        <time>2012-08-16T14:43:26Z</time>
      </trkpt>
      <trkpt lat="47.91873" lon="-2.37244">
        <ele>57.82</ele>
        <time>2012-08-16T14:43:33Z</time>
      </trkpt>
      <trkpt lat="47.91872" lon="-2.37333">
        <ele>56.86</ele>
        <time>2012-08-16T14:43:43Z</time>
      </trkpt>
      <trkpt lat="47.9187" lon="-2.37413">
        <ele>54.93</ele>
        <time>2012-08-16T14:43:50Z</time>
      </trkpt>
      <trkpt lat="47.91869" lon="-2.37521">
        <ele>53.01</ele>
        <time>2012-08-16T14:43:58Z</time>
      </trkpt>
      <trkpt lat="47.91866" lon="-2.37614">
        <ele>52.05</ele>
        <time>2012-08-16T14:44:06Z</time>
      </trkpt>
      <trkpt lat="47.91863" lon="-2.37711">
        <ele>52.05</ele>
        <time>2012-08-16T14:44:16Z</time>
      </trkpt>
      <trkpt lat="47.91862" lon="-2.37807">
        <ele>53.97</ele>
        <time>2012-08-16T14:44:27Z</time>
      </trkpt>
      <trkpt lat="47.91859" lon="-2.37871">
        <ele>54.93</ele>
        <time>2012-08-16T14:44:35Z</time>
      </trkpt>
      <trkpt lat="47.91866" lon="-2.37938">
        <ele>54.93</ele>
        <time>2012-08-16T14:44:42Z</time>
      </trkpt>
      <trkpt lat="47.91877" lon="-2.38012">
        <ele>54.45</ele>
        <time>2012-08-16T14:44:50Z</time>
      </trkpt>
      <trkpt lat="47.91885" lon="-2.38072">
        <ele>54.45</ele>
        <time>2012-08-16T14:44:57Z</time>
      </trkpt>
      <trkpt lat="47.919" lon="-2.38149">
        <ele>53.97</ele>
        <time>2012-08-16T14:45:05Z</time>
      </trkpt>
      <trkpt lat="47.91911" lon="-2.38232">
        <ele>53.49</ele>
        <time>2012-08-16T14:45:14Z</time>
      </trkpt>
      <trkpt lat="47.91923" lon="-2.3831">
        <ele>53.01</ele>
        <time>2012-08-16T14:45:23Z</time>
      </trkpt>
      <trkpt lat="47.91928" lon="-2.38345">
        <ele>53.01</ele>
        <time>2012-08-16T14:45:27Z</time>
      </trkpt>
      <trkpt lat="47.91938" lon="-2.38414">
        <ele>53.01</ele>
        <time>2012-08-16T14:45:35Z</time>
      </trkpt>
      <trkpt lat="47.91942" lon="-2.38476">
        <ele>53.49</ele>
        <time>2012-08-16T14:45:43Z</time>
      </trkpt>
      <trkpt lat="47.91945" lon="-2.38553">
        <ele>53.49</ele>
        <time>2012-08-16T14:45:50Z</time>
      </trkpt>
      <trkpt lat="47.91943" lon="-2.38635">
        <ele>56.86</ele>
        <time>2012-08-16T14:45:58Z</time>
      </trkpt>
      <trkpt lat="47.91938" lon="-2.38709">
        <ele>55.89</ele>
        <time>2012-08-16T14:46:06Z</time>
      </trkpt>
      <trkpt lat="47.91938" lon="-2.38755">
        <ele>53.97</ele>
        <time>2012-08-16T14:46:12Z</time>
      </trkpt>
      <trkpt lat="47.91938" lon="-2.38761">
        <ele>53.97</ele>
        <time>2012-08-16T14:46:13Z</time>
      </trkpt>
      <trkpt lat="47.91935" lon="-2.38841">
        <ele>53.01</ele>
        <time>2012-08-16T14:46:24Z</time>
      </trkpt>
      <trkpt lat="47.91935" lon="-2.38897">
        <ele>53.01</ele>
        <time>2012-08-16T14:46:32Z</time>
      </trkpt>
      <trkpt lat="47.91933" lon="-2.38961">
        <ele>52.05</ele>
        <time>2012-08-16T14:46:41Z</time>
      </trkpt>
      <trkpt lat="47.9193" lon="-2.39031">
        <ele>51.09</ele>
        <time>2012-08-16T14:46:50Z</time>
      </trkpt>
      <trkpt lat="47.91925" lon="-2.39112">
        <ele>49.65</ele>
        <time>2012-08-16T14:47:00Z</time>
      </trkpt>
      <trkpt lat="47.91923" lon="-2.39176">
        <ele>49.65</ele>
        <time>2012-08-16T14:47:09Z</time>
      </trkpt>
      <trkpt lat="47.91921" lon="-2.39253">
        <ele>50.13</ele>
        <time>2012-08-16T14:47:18Z</time>
      </trkpt>
      <trkpt lat="47.91927" lon="-2.39307">
        <ele>50.13</ele>
        <time>2012-08-16T14:47:25Z</time>
      </trkpt>
      <trkpt lat="47.91924" lon="-2.3933">
        <ele>50.13</ele>
        <time>2012-08-16T14:47:30Z</time>
      </trkpt>
      <trkpt lat="47.91921" lon="-2.39342">
        <ele>49.65</ele>
        <time>2012-08-16T14:47:32Z</time>
      </trkpt>
      <trkpt lat="47.91922" lon="-2.39404">
        <ele>49.65</ele>
        <time>2012-08-16T14:47:40Z</time>
      </trkpt>
      <trkpt lat="47.91927" lon="-2.39485">
        <ele>49.65</ele>
        <time>2012-08-16T14:47:50Z</time>
      </trkpt>
      <trkpt lat="47.9193" lon="-2.3953">
        <ele>49.65</ele>
        <time>2012-08-16T14:47:55Z</time>
      </trkpt>
      <trkpt lat="47.91936" lon="-2.39616">
        <ele>49.65</ele>
        <time>2012-08-16T14:48:05Z</time>
      </trkpt>
      <trkpt lat="47.9194" lon="-2.39667">
        <ele>48.68</ele>
        <time>2012-08-16T14:48:13Z</time>
      </trkpt>
      <trkpt lat="47.91945" lon="-2.39731">
        <ele>47.24</ele>
        <time>2012-08-16T14:48:21Z</time>
      </trkpt>
      <trkpt lat="47.9195" lon="-2.39802">
        <ele>47.24</ele>
        <time>2012-08-16T14:48:29Z</time>
      </trkpt>
      <trkpt lat="47.91956" lon="-2.39894">
        <ele>47.24</ele>
        <time>2012-08-16T14:48:39Z</time>
      </trkpt>
      <trkpt lat="47.91961" lon="-2.3996">
        <ele>46.76</ele>
        <time>2012-08-16T14:48:47Z</time>
      </trkpt>
      <trkpt lat="47.91964" lon="-2.40018">
        <ele>45.8</ele>
        <time>2012-08-16T14:48:54Z</time>
      </trkpt>
      <trkpt lat="47.9197" lon="-2.40086">
        <ele>45.32</ele>
        <time>2012-08-16T14:49:02Z</time>
      </trkpt>
      <trkpt lat="47.91974" lon="-2.40157">
        <ele>44.84</ele>
        <time>2012-08-16T14:49:10Z</time>
      </trkpt>
      <trkpt lat="47.91981" lon="-2.40247">
        <ele>44.84</ele>
        <time>2012-08-16T14:49:21Z</time>
      </trkpt>
      <trkpt lat="47.91985" lon="-2.40284">
        <ele>44.36</ele>
        <time>2012-08-16T14:49:26Z</time>
      </trkpt>
      <trkpt lat="47.91988" lon="-2.40357">
        <ele>44.84</ele>
        <time>2012-08-16T14:49:34Z</time>
      </trkpt>
      <trkpt lat="47.91993" lon="-2.40409">
        <ele>44.36</ele>
        <time>2012-08-16T14:49:40Z</time>
      </trkpt>
      <trkpt lat="47.91994" lon="-2.40416">
        <ele>44.36</ele>
        <time>2012-08-16T14:49:41Z</time>
      </trkpt>
      <trkpt lat="47.92007" lon="-2.40467">
        <ele>44.36</ele>
        <time>2012-08-16T14:49:50Z</time>
      </trkpt>
      <trkpt lat="47.92021" lon="-2.40524">
        <ele>45.8</ele>
        <time>2012-08-16T14:50:01Z</time>
      </trkpt>
      <trkpt lat="47.9203" lon="-2.40555">
        <ele>46.76</ele>
        <time>2012-08-16T14:50:08Z</time>
      </trkpt>
      <trkpt lat="47.92041" lon="-2.40587">
        <ele>48.2</ele>
        <time>2012-08-16T14:50:16Z</time>
      </trkpt>
      <trkpt lat="47.92045" lon="-2.40594">
        <ele>48.68</ele>
        <time>2012-08-16T14:50:18Z</time>
      </trkpt>
      <trkpt lat="47.92049" lon="-2.40606">
        <ele>49.16</ele>
        <time>2012-08-16T14:50:22Z</time>
      </trkpt>
      <trkpt lat="47.92057" lon="-2.40631">
        <ele>50.13</ele>
        <time>2012-08-16T14:50:28Z</time>
      </trkpt>
      <trkpt lat="47.9208" lon="-2.40679">
        <ele>51.57</ele>
        <time>2012-08-16T14:50:38Z</time>
      </trkpt>
      <trkpt lat="47.92097" lon="-2.40706">
        <ele>52.53</ele>
        <time>2012-08-16T14:50:45Z</time>
      </trkpt>
      <trkpt lat="47.92118" lon="-2.40744">
        <ele>54.45</ele>
        <time>2012-08-16T14:50:54Z</time>
      </trkpt>
      <trkpt lat="47.92147" lon="-2.4078">
        <ele>54.45</ele>
        <time>2012-08-16T14:51:03Z</time>
      </trkpt>
      <trkpt lat="47.92169" lon="-2.40806">
        <ele>54.93</ele>
        <time>2012-08-16T14:51:10Z</time>
      </trkpt>
      <trkpt lat="47.92193" lon="-2.40836">
        <ele>55.41</ele>
        <time>2012-08-16T14:51:18Z</time>
      </trkpt>
      <trkpt lat="47.92203" lon="-2.40855">
        <ele>55.41</ele>
        <time>2012-08-16T14:51:22Z</time>
      </trkpt>
      <trkpt lat="47.92225" lon="-2.40873">
        <ele>56.37</ele>
        <time>2012-08-16T14:51:28Z</time>
      </trkpt>
      <trkpt lat="47.92252" lon="-2.4089">
        <ele>57.82</ele>
        <time>2012-08-16T14:51:35Z</time>
      </trkpt>
      <trkpt lat="47.92267" lon="-2.40899">
        <ele>57.34</ele>
        <time>2012-08-16T14:51:39Z</time>
      </trkpt>
      <trkpt lat="47.92305" lon="-2.40919">
        <ele>57.82</ele>
        <time>2012-08-16T14:51:49Z</time>
      </trkpt>
      <trkpt lat="47.92338" lon="-2.40931">
        <ele>58.78</ele>
        <time>2012-08-16T14:51:57Z</time>
      </trkpt>
      <trkpt lat="47.92347" lon="-2.40933">
        <ele>59.26</ele>
        <time>2012-08-16T14:51:59Z</time>
      </trkpt>
      <trkpt lat="47.92363" lon="-2.40937">
        <ele>59.26</ele>
        <time>2012-08-16T14:52:03Z</time>
      </trkpt>
      <trkpt lat="47.92402" lon="-2.40943">
        <ele>60.22</ele>
        <time>2012-08-16T14:52:13Z</time>
      </trkpt>
      <trkpt lat="47.92441" lon="-2.40946">
        <ele>62.62</ele>
        <time>2012-08-16T14:52:24Z</time>
      </trkpt>
      <trkpt lat="47.92473" lon="-2.40944">
        <ele>65.51</ele>
        <time>2012-08-16T14:52:34Z</time>
      </trkpt>
      <trkpt lat="47.9249" lon="-2.40933">
        <ele>66.95</ele>
        <time>2012-08-16T14:52:40Z</time>
      </trkpt>
      <trkpt lat="47.92501" lon="-2.4093">
        <ele>67.91</ele>
        <time>2012-08-16T14:52:45Z</time>
      </trkpt>
      <trkpt lat="47.92515" lon="-2.40921">
        <ele>68.87</ele>
        <time>2012-08-16T14:52:52Z</time>
      </trkpt>
      <trkpt lat="47.92544" lon="-2.40909">
        <ele>70.79</ele>
        <time>2012-08-16T14:53:00Z</time>
      </trkpt>
      <trkpt lat="47.92576" lon="-2.40897">
        <ele>72.24</ele>
        <time>2012-08-16T14:53:06Z</time>
      </trkpt>
      <trkpt lat="47.92622" lon="-2.40868">
        <ele>74.64</ele>
        <time>2012-08-16T14:53:15Z</time>
      </trkpt>
      <trkpt lat="47.92639" lon="-2.40859">
        <ele>75.12</ele>
        <time>2012-08-16T14:53:18Z</time>
      </trkpt>
      <trkpt lat="47.92656" lon="-2.40856">
        <ele>75.12</ele>
        <time>2012-08-16T14:53:21Z</time>
      </trkpt>
      <trkpt lat="47.92669" lon="-2.40851">
        <ele>75.12</ele>
        <time>2012-08-16T14:53:24Z</time>
      </trkpt>
      <trkpt lat="47.92703" lon="-2.40826">
        <ele>72.72</ele>
        <time>2012-08-16T14:53:31Z</time>
      </trkpt>
      <trkpt lat="47.9275" lon="-2.40794">
        <ele>69.83</ele>
        <time>2012-08-16T14:53:40Z</time>
      </trkpt>
      <trkpt lat="47.92798" lon="-2.40763">
        <ele>67.91</ele>
        <time>2012-08-16T14:53:49Z</time>
      </trkpt>
      <trkpt lat="47.92844" lon="-2.40733">
        <ele>66.47</ele>
        <time>2012-08-16T14:53:57Z</time>
      </trkpt>
      <trkpt lat="47.92897" lon="-2.40701">
        <ele>64.55</ele>
        <time>2012-08-16T14:54:05Z</time>
      </trkpt>
      <trkpt lat="47.92948" lon="-2.40668">
        <ele>62.62</ele>
        <time>2012-08-16T14:54:13Z</time>
      </trkpt>
      <trkpt lat="47.92996" lon="-2.40637">
        <ele>60.7</ele>
        <time>2012-08-16T14:54:21Z</time>
      </trkpt>
      <trkpt lat="47.93043" lon="-2.40614">
        <ele>58.78</ele>
        <time>2012-08-16T14:54:29Z</time>
      </trkpt>
      <trkpt lat="47.93094" lon="-2.40596">
        <ele>56.37</ele>
        <time>2012-08-16T14:54:37Z</time>
      </trkpt>
      <trkpt lat="47.93159" lon="-2.40589">
        <ele>54.93</ele>
        <time>2012-08-16T14:54:46Z</time>
      </trkpt>
      <trkpt lat="47.93213" lon="-2.40593">
        <ele>53.01</ele>
        <time>2012-08-16T14:54:53Z</time>
      </trkpt>
      <trkpt lat="47.93266" lon="-2.40608">
        <ele>51.57</ele>
        <time>2012-08-16T14:55:01Z</time>
      </trkpt>
      <trkpt lat="47.93296" lon="-2.4062">
        <ele>50.13</ele>
        <time>2012-08-16T14:55:07Z</time>
      </trkpt>
      <trkpt lat="47.93307" lon="-2.40636">
        <ele>47.72</ele>
        <time>2012-08-16T14:55:13Z</time>
      </trkpt>
      <trkpt lat="47.93322" lon="-2.40649">
        <ele>48.68</ele>
        <time>2012-08-16T14:55:19Z</time>
      </trkpt>
      <trkpt lat="47.93338" lon="-2.40659">
        <ele>51.09</ele>
        <time>2012-08-16T14:55:25Z</time>
      </trkpt>
      <trkpt lat="47.93359" lon="-2.4066">
        <ele>52.05</ele>
        <time>2012-08-16T14:55:32Z</time>
      </trkpt>
      <trkpt lat="47.93379" lon="-2.40675">
        <ele>52.53</ele>
        <time>2012-08-16T14:55:38Z</time>
      </trkpt>
      <trkpt lat="47.934" lon="-2.407">
        <ele>53.01</ele>
        <time>2012-08-16T14:55:45Z</time>
      </trkpt>
      <trkpt lat="47.93404" lon="-2.40703">
        <ele>53.01</ele>
        <time>2012-08-16T14:55:46Z</time>
      </trkpt>
      <trkpt lat="47.93408" lon="-2.40704">
        <ele>53.49</ele>
        <time>2012-08-16T14:55:47Z</time>
      </trkpt>
      <trkpt lat="47.93462" lon="-2.40716">
        <ele>53.01</ele>
        <time>2012-08-16T14:55:58Z</time>
      </trkpt>
      <trkpt lat="47.93474" lon="-2.40707">
        <ele>53.01</ele>
        <time>2012-08-16T14:56:01Z</time>
      </trkpt>
      <trkpt lat="47.93486" lon="-2.40705">
        <ele>53.01</ele>
        <time>2012-08-16T14:56:04Z</time>
      </trkpt>
      <trkpt lat="47.9352" lon="-2.40723">
        <ele>52.05</ele>
        <time>2012-08-16T14:56:13Z</time>
      </trkpt>
      <trkpt lat="47.93523" lon="-2.40724">
        <ele>52.05</ele>
        <time>2012-08-16T14:56:14Z</time>
      </trkpt>
      <trkpt lat="47.93537" lon="-2.40725">
        <ele>52.05</ele>
        <time>2012-08-16T14:56:18Z</time>
      </trkpt>
      <trkpt lat="47.93557" lon="-2.40734">
        <ele>52.05</ele>
        <time>2012-08-16T14:56:23Z</time>
      </trkpt>
      <trkpt lat="47.93582" lon="-2.40742">
        <ele>51.57</ele>
        <time>2012-08-16T14:56:29Z</time>
      </trkpt>
      <trkpt lat="47.93596" lon="-2.40746">
        <ele>50.61</ele>
        <time>2012-08-16T14:56:33Z</time>
      </trkpt>
      <trkpt lat="47.93607" lon="-2.40745">
        <ele>50.13</ele>
        <time>2012-08-16T14:56:36Z</time>
      </trkpt>
      <trkpt lat="47.93636" lon="-2.40752">
        <ele>49.16</ele>
        <time>2012-08-16T14:56:42Z</time>
      </trkpt>
      <trkpt lat="47.937" lon="-2.40782">
        <ele>47.72</ele>
        <time>2012-08-16T14:56:54Z</time>
      </trkpt>
      <trkpt lat="47.93757" lon="-2.40814">
        <ele>47.24</ele>
        <time>2012-08-16T14:57:04Z</time>
      </trkpt>
      <trkpt lat="47.93802" lon="-2.40836">
        <ele>47.24</ele>
        <time>2012-08-16T14:57:12Z</time>
      </trkpt>
      <trkpt lat="47.93844" lon="-2.40848">
        <ele>46.28</ele>
        <time>2012-08-16T14:57:19Z</time>
      </trkpt>
      <trkpt lat="47.93897" lon="-2.4085">
        <ele>46.28</ele>
        <time>2012-08-16T14:57:28Z</time>
      </trkpt>
      <trkpt lat="47.93949" lon="-2.40846">
        <ele>46.28</ele>
        <time>2012-08-16T14:57:36Z</time>
      </trkpt>
      <trkpt lat="47.93994" lon="-2.40842">
        <ele>46.28</ele>
        <time>2012-08-16T14:57:44Z</time>
      </trkpt>
      <trkpt lat="47.94044" lon="-2.40837">
        <ele>44.84</ele>
        <time>2012-08-16T14:57:53Z</time>
      </trkpt>
      <trkpt lat="47.94077" lon="-2.40833">
        <ele>44.36</ele>
        <time>2012-08-16T14:57:59Z</time>
      </trkpt>
      <trkpt lat="47.94113" lon="-2.4083">
        <ele>42.92</ele>
        <time>2012-08-16T14:58:06Z</time>
      </trkpt>
      <trkpt lat="47.94124" lon="-2.40829">
        <ele>42.44</ele>
        <time>2012-08-16T14:58:08Z</time>
      </trkpt>
      <trkpt lat="47.94134" lon="-2.40832">
        <ele>41.47</ele>
        <time>2012-08-16T14:58:12Z</time>
      </trkpt>
      <trkpt lat="47.94123" lon="-2.40834">
        <ele>40.03</ele>
        <time>2012-08-16T14:58:15Z</time>
      </trkpt>
      <trkpt lat="47.9411" lon="-2.40838">
        <ele>38.11</ele>
        <time>2012-08-16T14:58:20Z</time>
      </trkpt>
      <trkpt lat="47.94094" lon="-2.40856">
        <ele>36.19</ele>
        <time>2012-08-16T14:58:25Z</time>
      </trkpt>
      <trkpt lat="47.94084" lon="-2.40885">
        <ele>33.3</ele>
        <time>2012-08-16T14:58:31Z</time>
      </trkpt>
      <trkpt lat="47.94085" lon="-2.40912">
        <ele>31.86</ele>
        <time>2012-08-16T14:58:37Z</time>
      </trkpt>
      <trkpt lat="47.94086" lon="-2.40937">
        <ele>31.86</ele>
        <time>2012-08-16T14:58:47Z</time>
      </trkpt>
      <trkpt lat="47.94088" lon="-2.40949">
        <ele>31.38</ele>
        <time>2012-08-16T14:58:50Z</time>
      </trkpt>
      <trkpt lat="47.94097" lon="-2.40969">
        <ele>30.42</ele>
        <time>2012-08-16T14:58:54Z</time>
      </trkpt>
      <trkpt lat="47.94113" lon="-2.41009">
        <ele>28.02</ele>
        <time>2012-08-16T14:59:00Z</time>
      </trkpt>
      <trkpt lat="47.94118" lon="-2.41023">
        <ele>27.05</ele>
        <time>2012-08-16T14:59:02Z</time>
      </trkpt>
      <trkpt lat="47.94132" lon="-2.41052">
        <ele>25.13</ele>
        <time>2012-08-16T14:59:06Z</time>
      </trkpt>
      <trkpt lat="47.94152" lon="-2.41072">
        <ele>23.69</ele>
        <time>2012-08-16T14:59:10Z</time>
      </trkpt>
      <trkpt lat="47.94177" lon="-2.41093">
        <ele>22.73</ele>
        <time>2012-08-16T14:59:15Z</time>
      </trkpt>
      <trkpt lat="47.94181" lon="-2.41106">
        <ele>22.25</ele>
        <time>2012-08-16T14:59:17Z</time>
      </trkpt>
      <trkpt lat="47.94186" lon="-2.41121">
        <ele>21.29</ele>
        <time>2012-08-16T14:59:20Z</time>
      </trkpt>
      <trkpt lat="47.94213" lon="-2.41164">
        <ele>21.29</ele>
        <time>2012-08-16T14:59:30Z</time>
      </trkpt>
      <trkpt lat="47.94218" lon="-2.41171">
        <ele>21.29</ele>
        <time>2012-08-16T14:59:32Z</time>
      </trkpt>
      <trkpt lat="47.94235" lon="-2.41165">
        <ele>22.73</ele>
        <time>2012-08-16T14:59:38Z</time>
      </trkpt>
      <trkpt lat="47.94247" lon="-2.41161">
        <ele>23.21</ele>
        <time>2012-08-16T14:59:43Z</time>
      </trkpt>
      <trkpt lat="47.94249" lon="-2.41172">
        <ele>24.17</ele>
        <time>2012-08-16T14:59:48Z</time>
      </trkpt>
      <trkpt lat="47.94251" lon="-2.41185">
        <ele>24.17</ele>
        <time>2012-08-16T14:59:58Z</time>
      </trkpt>
      <trkpt lat="47.94254" lon="-2.41204">
        <ele>23.21</ele>
        <time>2012-08-16T15:00:05Z</time>
      </trkpt>
      <trkpt lat="47.94259" lon="-2.41229">
        <ele>22.25</ele>
        <time>2012-08-16T15:00:12Z</time>
      </trkpt>
      <trkpt lat="47.94274" lon="-2.41257">
        <ele>21.29</ele>
        <time>2012-08-16T15:00:19Z</time>
      </trkpt>
      <trkpt lat="47.94297" lon="-2.41277">
        <ele>22.25</ele>
        <time>2012-08-16T15:00:26Z</time>
      </trkpt>
      <trkpt lat="47.94307" lon="-2.41284">
        <ele>23.69</ele>
        <time>2012-08-16T15:00:29Z</time>
      </trkpt>
      <trkpt lat="47.94327" lon="-2.41297">
        <ele>26.09</ele>
        <time>2012-08-16T15:00:35Z</time>
      </trkpt>
      <trkpt lat="47.94332" lon="-2.413">
        <ele>27.05</ele>
        <time>2012-08-16T15:00:40Z</time>
      </trkpt>
      <trkpt lat="47.94331" lon="-2.41301">
        <ele>31.38</ele>
        <time>2012-08-16T15:00:50Z</time>
      </trkpt>
      <trkpt lat="47.94331" lon="-2.41303">
        <ele>34.26</ele>
        <time>2012-08-16T15:01:07Z</time>
      </trkpt>
      <trkpt lat="47.9433" lon="-2.41305">
        <ele>35.23</ele>
        <time>2012-08-16T15:01:27Z</time>
      </trkpt>
      <trkpt lat="47.9433" lon="-2.41305">
        <ele>35.23</ele>
        <time>2012-08-16T15:01:43Z</time>
      </trkpt>
      <trkpt lat="47.9433" lon="-2.41304">
        <ele>34.74</ele>
        <time>2012-08-16T15:02:02Z</time>
      </trkpt>
      <trkpt lat="47.94331" lon="-2.41304">
        <ele>36.67</ele>
        <time>2012-08-16T15:02:21Z</time>
      </trkpt>
      <trkpt lat="47.94331" lon="-2.41305">
        <ele>35.71</ele>
        <time>2012-08-16T15:02:40Z</time>
      </trkpt>
      <trkpt lat="47.94332" lon="-2.41307">
        <ele>34.74</ele>
        <time>2012-08-16T15:02:59Z</time>
      </trkpt>
      <trkpt lat="47.94333" lon="-2.41307">
        <ele>35.23</ele>
        <time>2012-08-16T15:03:19Z</time>
      </trkpt>
      <trkpt lat="47.94333" lon="-2.41305">
        <ele>35.71</ele>
        <time>2012-08-16T15:03:37Z</time>
      </trkpt>
      <trkpt lat="47.94333" lon="-2.41304">
        <ele>36.67</ele>
        <time>2012-08-16T15:03:54Z</time>
      </trkpt>
      <trkpt lat="47.94333" lon="-2.41304">
        <ele>36.67</ele>
        <time>2012-08-16T15:04:10Z</time>
      </trkpt>
      <trkpt lat="47.94332" lon="-2.41303">
        <ele>36.19</ele>
        <time>2012-08-16T15:04:29Z</time>
      </trkpt>
      <trkpt lat="47.94332" lon="-2.41304">
        <ele>35.71</ele>
        <time>2012-08-16T15:04:41Z</time>
      </trkpt>
      <trkpt lat="47.94332" lon="-2.41304">
        <ele>36.67</ele>
        <time>2012-08-16T15:04:57Z</time>
      </trkpt>
      <trkpt lat="47.94332" lon="-2.41305">
        <ele>36.67</ele>
        <time>2012-08-16T15:05:18Z</time>
      </trkpt>
      <trkpt lat="47.94332" lon="-2.41305">
        <ele>36.67</ele>
        <time>2012-08-16T15:05:37Z</time>
      </trkpt>
      <trkpt lat="47.94333" lon="-2.41305">
        <ele>36.67</ele>
        <time>2012-08-16T15:05:49Z</time>
      </trkpt>
      <trkpt lat="47.94333" lon="-2.41305">
        <ele>36.67</ele>
        <time>2012-08-16T15:05:51Z</time>
      </trkpt>
      <trkpt lat="47.9434" lon="-2.413">
        <ele>36.19</ele>
        <time>2012-08-16T15:05:58Z</time>
      </trkpt>
      <trkpt lat="47.94341" lon="-2.41299">
        <ele>36.19</ele>
        <time>2012-08-16T15:05:59Z</time>
      </trkpt>
      <trkpt lat="47.94357" lon="-2.41299">
        <ele>36.67</ele>
        <time>2012-08-16T15:06:09Z</time>
      </trkpt>
      <trkpt lat="47.94374" lon="-2.41296">
        <ele>36.19</ele>
        <time>2012-08-16T15:06:17Z</time>
      </trkpt>
      <trkpt lat="47.94396" lon="-2.41292">
        <ele>35.71</ele>
        <time>2012-08-16T15:06:25Z</time>
      </trkpt>
      <trkpt lat="47.94423" lon="-2.4128">
        <ele>35.23</ele>
        <time>2012-08-16T15:06:33Z</time>
      </trkpt>
      <trkpt lat="47.94448" lon="-2.41272">
        <ele>35.23</ele>
        <time>2012-08-16T15:06:40Z</time>
      </trkpt>
      <trkpt lat="47.9448" lon="-2.4126">
        <ele>34.74</ele>
        <time>2012-08-16T15:06:49Z</time>
      </trkpt>
      <trkpt lat="47.9451" lon="-2.41252">
        <ele>34.74</ele>
        <time>2012-08-16T15:06:57Z</time>
      </trkpt>
      <trkpt lat="47.9453" lon="-2.41241">
        <ele>34.74</ele>
        <time>2012-08-16T15:07:03Z</time>
      </trkpt>
      <trkpt lat="47.94542" lon="-2.41236">
        <ele>34.74</ele>
        <time>2012-08-16T15:07:06Z</time>
      </trkpt>
      <trkpt lat="47.94578" lon="-2.41219">
        <ele>35.23</ele>
        <time>2012-08-16T15:07:15Z</time>
      </trkpt>
      <trkpt lat="47.9461" lon="-2.41204">
        <ele>35.23</ele>
        <time>2012-08-16T15:07:23Z</time>
      </trkpt>
      <trkpt lat="47.94627" lon="-2.41196">
        <ele>35.23</ele>
        <time>2012-08-16T15:07:27Z</time>
      </trkpt>
      <trkpt lat="47.94636" lon="-2.41194">
        <ele>35.23</ele>
        <time>2012-08-16T15:07:29Z</time>
      </trkpt>
      <trkpt lat="47.9467" lon="-2.41182">
        <ele>33.78</ele>
        <time>2012-08-16T15:07:37Z</time>
      </trkpt>
      <trkpt lat="47.94704" lon="-2.41174">
        <ele>33.3</ele>
        <time>2012-08-16T15:07:45Z</time>
      </trkpt>
      <trkpt lat="47.94739" lon="-2.41164">
        <ele>33.78</ele>
        <time>2012-08-16T15:07:52Z</time>
      </trkpt>
      <trkpt lat="47.94774" lon="-2.41135">
        <ele>34.26</ele>
        <time>2012-08-16T15:08:00Z</time>
      </trkpt>
      <trkpt lat="47.94796" lon="-2.41099">
        <ele>33.78</ele>
        <time>2012-08-16T15:08:07Z</time>
      </trkpt>
      <trkpt lat="47.94807" lon="-2.41079">
        <ele>33.78</ele>
        <time>2012-08-16T15:08:11Z</time>
      </trkpt>
      <trkpt lat="47.94825" lon="-2.41047">
        <ele>32.82</ele>
        <time>2012-08-16T15:08:17Z</time>
      </trkpt>
      <trkpt lat="47.9484" lon="-2.41032">
        <ele>31.38</ele>
        <time>2012-08-16T15:08:21Z</time>
      </trkpt>
      <trkpt lat="47.94862" lon="-2.41002">
        <ele>28.5</ele>
        <time>2012-08-16T15:08:28Z</time>
      </trkpt>
      <trkpt lat="47.94893" lon="-2.40964">
        <ele>26.57</ele>
        <time>2012-08-16T15:08:36Z</time>
      </trkpt>
      <trkpt lat="47.94905" lon="-2.40949">
        <ele>26.57</ele>
        <time>2012-08-16T15:08:39Z</time>
      </trkpt>
      <trkpt lat="47.94923" lon="-2.40935">
        <ele>27.05</ele>
        <time>2012-08-16T15:08:43Z</time>
      </trkpt>
      <trkpt lat="47.94962" lon="-2.40914">
        <ele>28.02</ele>
        <time>2012-08-16T15:08:51Z</time>
      </trkpt>
      <trkpt lat="47.94966" lon="-2.40912">
        <ele>28.02</ele>
        <time>2012-08-16T15:08:52Z</time>
      </trkpt>
      <trkpt lat="47.94977" lon="-2.40909">
        <ele>28.02</ele>
        <time>2012-08-16T15:08:54Z</time>
      </trkpt>
      <trkpt lat="47.95008" lon="-2.40892">
        <ele>28.98</ele>
        <time>2012-08-16T15:09:00Z</time>
      </trkpt>
      <trkpt lat="47.95037" lon="-2.40863">
        <ele>28.98</ele>
        <time>2012-08-16T15:09:07Z</time>
      </trkpt>
      <trkpt lat="47.95062" lon="-2.40838">
        <ele>28.98</ele>
        <time>2012-08-16T15:09:13Z</time>
      </trkpt>
      <trkpt lat="47.95114" lon="-2.4081">
        <ele>29.94</ele>
        <time>2012-08-16T15:09:23Z</time>
      </trkpt>
      <trkpt lat="47.95125" lon="-2.40804">
        <ele>29.94</ele>
        <time>2012-08-16T15:09:25Z</time>
      </trkpt>
      <trkpt lat="47.95135" lon="-2.40799">
        <ele>29.94</ele>
        <time>2012-08-16T15:09:27Z</time>
      </trkpt>
      <trkpt lat="47.9516" lon="-2.40788">
        <ele>30.42</ele>
        <time>2012-08-16T15:09:33Z</time>
      </trkpt>
      <trkpt lat="47.95169" lon="-2.40763">
        <ele>30.9</ele>
        <time>2012-08-16T15:09:38Z</time>
      </trkpt>
      <trkpt lat="47.95175" lon="-2.40733">
        <ele>31.38</ele>
        <time>2012-08-16T15:09:44Z</time>
      </trkpt>
      <trkpt lat="47.95177" lon="-2.40717">
        <ele>32.34</ele>
        <time>2012-08-16T15:09:47Z</time>
      </trkpt>
      <trkpt lat="47.95171" lon="-2.40695">
        <ele>32.82</ele>
        <time>2012-08-16T15:09:54Z</time>
      </trkpt>
      <trkpt lat="47.9517" lon="-2.40697">
        <ele>32.82</ele>
        <time>2012-08-16T15:09:55Z</time>
      </trkpt>
      <trkpt lat="47.95167" lon="-2.40701">
        <ele>33.3</ele>
        <time>2012-08-16T15:10:02Z</time>
      </trkpt>
      <trkpt lat="47.95167" lon="-2.40699">
        <ele>34.26</ele>
        <time>2012-08-16T15:10:15Z</time>
      </trkpt>
      <trkpt lat="47.95167" lon="-2.40696">
        <ele>35.71</ele>
        <time>2012-08-16T15:10:32Z</time>
      </trkpt>
      <trkpt lat="47.95166" lon="-2.40696">
        <ele>36.67</ele>
        <time>2012-08-16T15:10:51Z</time>
      </trkpt>
      <trkpt lat="47.95166" lon="-2.40696">
        <ele>37.63</ele>
        <time>2012-08-16T15:11:08Z</time>
      </trkpt>
      <trkpt lat="47.95165" lon="-2.40696">
        <ele>38.59</ele>
        <time>2012-08-16T15:11:26Z</time>
      </trkpt>
      <trkpt lat="47.95165" lon="-2.40696">
        <ele>39.07</ele>
        <time>2012-08-16T15:11:42Z</time>
      </trkpt>
      <trkpt lat="47.95165" lon="-2.40696">
        <ele>39.07</ele>
        <time>2012-08-16T15:12:00Z</time>
      </trkpt>
      <trkpt lat="47.95164" lon="-2.40695">
        <ele>39.07</ele>
        <time>2012-08-16T15:12:08Z</time>
      </trkpt>
      <trkpt lat="47.95161" lon="-2.40698">
        <ele>39.55</ele>
        <time>2012-08-16T15:12:18Z</time>
      </trkpt>
      <trkpt lat="47.95159" lon="-2.40698">
        <ele>39.55</ele>
        <time>2012-08-16T15:12:27Z</time>
      </trkpt>
      <trkpt lat="47.95158" lon="-2.407">
        <ele>40.03</ele>
        <time>2012-08-16T15:12:33Z</time>
      </trkpt>
      <trkpt lat="47.95157" lon="-2.40707">
        <ele>39.55</ele>
        <time>2012-08-16T15:12:38Z</time>
      </trkpt>
      <trkpt lat="47.95167" lon="-2.40707">
        <ele>39.07</ele>
        <time>2012-08-16T15:12:45Z</time>
      </trkpt>
      <trkpt lat="47.95186" lon="-2.40709">
        <ele>38.59</ele>
        <time>2012-08-16T15:12:54Z</time>
      </trkpt>
      <trkpt lat="47.95213" lon="-2.40708">
        <ele>38.11</ele>
        <time>2012-08-16T15:13:02Z</time>
      </trkpt>
      <trkpt lat="47.95246" lon="-2.40703">
        <ele>38.59</ele>
        <time>2012-08-16T15:13:10Z</time>
      </trkpt>
      <trkpt lat="47.95271" lon="-2.40697">
        <ele>38.59</ele>
        <time>2012-08-16T15:13:16Z</time>
      </trkpt>
      <trkpt lat="47.95309" lon="-2.40689">
        <ele>39.07</ele>
        <time>2012-08-16T15:13:25Z</time>
      </trkpt>
      <trkpt lat="47.95354" lon="-2.40674">
        <ele>38.59</ele>
        <time>2012-08-16T15:13:36Z</time>
      </trkpt>
      <trkpt lat="47.95395" lon="-2.40657">
        <ele>37.63</ele>
        <time>2012-08-16T15:13:45Z</time>
      </trkpt>
      <trkpt lat="47.95434" lon="-2.40638">
        <ele>38.11</ele>
        <time>2012-08-16T15:13:53Z</time>
      </trkpt>
      <trkpt lat="47.95479" lon="-2.40613">
        <ele>39.07</ele>
        <time>2012-08-16T15:14:02Z</time>
      </trkpt>
      <trkpt lat="47.9554" lon="-2.40582">
        <ele>39.55</ele>
        <time>2012-08-16T15:14:14Z</time>
      </trkpt>
      <trkpt lat="47.95579" lon="-2.40563">
        <ele>39.07</ele>
        <time>2012-08-16T15:14:21Z</time>
      </trkpt>
      <trkpt lat="47.95632" lon="-2.40536">
        <ele>39.07</ele>
        <time>2012-08-16T15:14:31Z</time>
      </trkpt>
      <trkpt lat="47.95683" lon="-2.4051">
        <ele>38.11</ele>
        <time>2012-08-16T15:14:39Z</time>
      </trkpt>
      <trkpt lat="47.95742" lon="-2.4048">
        <ele>37.15</ele>
        <time>2012-08-16T15:14:48Z</time>
      </trkpt>
      <trkpt lat="47.95793" lon="-2.40455">
        <ele>36.19</ele>
        <time>2012-08-16T15:14:56Z</time>
      </trkpt>
      <trkpt lat="47.95836" lon="-2.40432">
        <ele>35.23</ele>
        <time>2012-08-16T15:15:03Z</time>
      </trkpt>
      <trkpt lat="47.95879" lon="-2.40408">
        <ele>35.23</ele>
        <time>2012-08-16T15:15:11Z</time>
      </trkpt>
      <trkpt lat="47.95937" lon="-2.40378">
        <ele>35.71</ele>
        <time>2012-08-16T15:15:22Z</time>
      </trkpt>
      <trkpt lat="47.95983" lon="-2.40355">
        <ele>36.19</ele>
        <time>2012-08-16T15:15:32Z</time>
      </trkpt>
      <trkpt lat="47.96014" lon="-2.40335">
        <ele>36.67</ele>
        <time>2012-08-16T15:15:40Z</time>
      </trkpt>
      <trkpt lat="47.9604" lon="-2.40315">
        <ele>37.15</ele>
        <time>2012-08-16T15:15:48Z</time>
      </trkpt>
      <trkpt lat="47.96065" lon="-2.40292">
        <ele>39.07</ele>
        <time>2012-08-16T15:15:57Z</time>
      </trkpt>
      <trkpt lat="47.96095" lon="-2.40271">
        <ele>40.99</ele>
        <time>2012-08-16T15:16:05Z</time>
      </trkpt>
      <trkpt lat="47.96115" lon="-2.4025">
        <ele>43.4</ele>
        <time>2012-08-16T15:16:12Z</time>
      </trkpt>
      <trkpt lat="47.96156" lon="-2.40204">
        <ele>41.47</ele>
        <time>2012-08-16T15:16:20Z</time>
      </trkpt>
      <trkpt lat="47.96162" lon="-2.40196">
        <ele>40.51</ele>
        <time>2012-08-16T15:16:21Z</time>
      </trkpt>
      <trkpt lat="47.96222" lon="-2.40135">
        <ele>40.99</ele>
        <time>2012-08-16T15:16:31Z</time>
      </trkpt>
      <trkpt lat="47.96247" lon="-2.40087">
        <ele>40.51</ele>
        <time>2012-08-16T15:16:39Z</time>
      </trkpt>
      <trkpt lat="47.96269" lon="-2.40033">
        <ele>40.03</ele>
        <time>2012-08-16T15:16:48Z</time>
      </trkpt>
      <trkpt lat="47.96279" lon="-2.39993">
        <ele>39.55</ele>
        <time>2012-08-16T15:16:54Z</time>
      </trkpt>
      <trkpt lat="47.96284" lon="-2.39978">
        <ele>39.55</ele>
        <time>2012-08-16T15:16:56Z</time>
      </trkpt>
      <trkpt lat="47.963" lon="-2.39913">
        <ele>38.59</ele>
        <time>2012-08-16T15:17:04Z</time>
      </trkpt>
      <trkpt lat="47.96313" lon="-2.39832">
        <ele>36.19</ele>
        <time>2012-08-16T15:17:13Z</time>
      </trkpt>
      <trkpt lat="47.96325" lon="-2.39755">
        <ele>35.23</ele>
        <time>2012-08-16T15:17:21Z</time>
      </trkpt>
      <trkpt lat="47.96329" lon="-2.39717">
        <ele>34.74</ele>
        <time>2012-08-16T15:17:25Z</time>
      </trkpt>
      <trkpt lat="47.96349" lon="-2.39617">
        <ele>33.78</ele>
        <time>2012-08-16T15:17:34Z</time>
      </trkpt>
      <trkpt lat="47.96356" lon="-2.39581">
        <ele>32.82</ele>
        <time>2012-08-16T15:17:38Z</time>
      </trkpt>
      <trkpt lat="47.96368" lon="-2.39494">
        <ele>31.38</ele>
        <time>2012-08-16T15:17:47Z</time>
      </trkpt>
      <trkpt lat="47.96374" lon="-2.39448">
        <ele>30.9</ele>
        <time>2012-08-16T15:17:52Z</time>
      </trkpt>
      <trkpt lat="47.96376" lon="-2.39432">
        <ele>30.42</ele>
        <time>2012-08-16T15:17:54Z</time>
      </trkpt>
      <trkpt lat="47.96384" lon="-2.3939">
        <ele>28.98</ele>
        <time>2012-08-16T15:17:59Z</time>
      </trkpt>
      <trkpt lat="47.96386" lon="-2.39362">
        <ele>28.5</ele>
        <time>2012-08-16T15:18:03Z</time>
      </trkpt>
      <trkpt lat="47.96393" lon="-2.39332">
        <ele>29.94</ele>
        <time>2012-08-16T15:18:08Z</time>
      </trkpt>
      <trkpt lat="47.96394" lon="-2.39326">
        <ele>30.42</ele>
        <time>2012-08-16T15:18:09Z</time>
      </trkpt>
      <trkpt lat="47.96402" lon="-2.39291">
        <ele>31.86</ele>
        <time>2012-08-16T15:18:14Z</time>
      </trkpt>
      <trkpt lat="47.96424" lon="-2.39218">
        <ele>32.82</ele>
        <time>2012-08-16T15:18:24Z</time>
      </trkpt>
      <trkpt lat="47.96452" lon="-2.39152">
        <ele>34.26</ele>
        <time>2012-08-16T15:18:34Z</time>
      </trkpt>
      <trkpt lat="47.96486" lon="-2.3909">
        <ele>34.74</ele>
        <time>2012-08-16T15:18:44Z</time>
      </trkpt>
      <trkpt lat="47.96516" lon="-2.39045">
        <ele>34.74</ele>
        <time>2012-08-16T15:18:52Z</time>
      </trkpt>
      <trkpt lat="47.96532" lon="-2.39024">
        <ele>34.74</ele>
        <time>2012-08-16T15:18:56Z</time>
      </trkpt>
      <trkpt lat="47.96562" lon="-2.38991">
        <ele>35.23</ele>
        <time>2012-08-16T15:19:03Z</time>
      </trkpt>
      <trkpt lat="47.96607" lon="-2.38949">
        <ele>34.74</ele>
        <time>2012-08-16T15:19:13Z</time>
      </trkpt>
      <trkpt lat="47.9665" lon="-2.38919">
        <ele>33.78</ele>
        <time>2012-08-16T15:19:22Z</time>
      </trkpt>
      <trkpt lat="47.96689" lon="-2.38893">
        <ele>33.78</ele>
        <time>2012-08-16T15:19:30Z</time>
      </trkpt>
      <trkpt lat="47.96727" lon="-2.38867">
        <ele>34.74</ele>
        <time>2012-08-16T15:19:38Z</time>
      </trkpt>
      <trkpt lat="47.96774" lon="-2.38837">
        <ele>35.71</ele>
        <time>2012-08-16T15:19:47Z</time>
      </trkpt>
      <trkpt lat="47.96812" lon="-2.38813">
        <ele>37.63</ele>
        <time>2012-08-16T15:19:54Z</time>
      </trkpt>
      <trkpt lat="47.9685" lon="-2.38789">
        <ele>37.63</ele>
        <time>2012-08-16T15:20:01Z</time>
      </trkpt>
      <trkpt lat="47.96896" lon="-2.3876">
        <ele>37.63</ele>
        <time>2012-08-16T15:20:10Z</time>
      </trkpt>
      <trkpt lat="47.96937" lon="-2.38731">
        <ele>36.19</ele>
        <time>2012-08-16T15:20:18Z</time>
      </trkpt>
      <trkpt lat="47.9698" lon="-2.38701">
        <ele>34.26</ele>
        <time>2012-08-16T15:20:27Z</time>
      </trkpt>
      <trkpt lat="47.97008" lon="-2.38685">
        <ele>34.26</ele>
        <time>2012-08-16T15:20:32Z</time>
      </trkpt>
      <trkpt lat="47.97042" lon="-2.38671">
        <ele>33.78</ele>
        <time>2012-08-16T15:20:38Z</time>
      </trkpt>
      <trkpt lat="47.97065" lon="-2.38659">
        <ele>33.78</ele>
        <time>2012-08-16T15:20:43Z</time>
      </trkpt>
      <trkpt lat="47.9709" lon="-2.38656">
        <ele>33.78</ele>
        <time>2012-08-16T15:20:49Z</time>
      </trkpt>
      <trkpt lat="47.97135" lon="-2.38645">
        <ele>34.26</ele>
        <time>2012-08-16T15:20:58Z</time>
      </trkpt>
      <trkpt lat="47.97178" lon="-2.38641">
        <ele>34.26</ele>
        <time>2012-08-16T15:21:06Z</time>
      </trkpt>
      <trkpt lat="47.97214" lon="-2.38636">
        <ele>34.26</ele>
        <time>2012-08-16T15:21:13Z</time>
      </trkpt>
      <trkpt lat="47.97267" lon="-2.38631">
        <ele>33.78</ele>
        <time>2012-08-16T15:21:24Z</time>
      </trkpt>
      <trkpt lat="47.97307" lon="-2.38627">
        <ele>33.78</ele>
        <time>2012-08-16T15:21:34Z</time>
      </trkpt>
      <trkpt lat="47.97346" lon="-2.38623">
        <ele>34.26</ele>
        <time>2012-08-16T15:21:42Z</time>
      </trkpt>
      <trkpt lat="47.97394" lon="-2.38616">
        <ele>35.23</ele>
        <time>2012-08-16T15:21:52Z</time>
      </trkpt>
      <trkpt lat="47.97432" lon="-2.38614">
        <ele>37.15</ele>
        <time>2012-08-16T15:22:00Z</time>
      </trkpt>
      <trkpt lat="47.9748" lon="-2.38612">
        <ele>39.07</ele>
        <time>2012-08-16T15:22:09Z</time>
      </trkpt>
      <trkpt lat="47.97516" lon="-2.38607">
        <ele>40.51</ele>
        <time>2012-08-16T15:22:16Z</time>
      </trkpt>
      <trkpt lat="47.97566" lon="-2.38603">
        <ele>40.99</ele>
        <time>2012-08-16T15:22:24Z</time>
      </trkpt>
      <trkpt lat="47.97623" lon="-2.38601">
        <ele>40.51</ele>
        <time>2012-08-16T15:22:32Z</time>
      </trkpt>
      <trkpt lat="47.97675" lon="-2.38598">
        <ele>40.51</ele>
        <time>2012-08-16T15:22:41Z</time>
      </trkpt>
      <trkpt lat="47.97715" lon="-2.38596">
        <ele>40.51</ele>
        <time>2012-08-16T15:22:48Z</time>
      </trkpt>
      <trkpt lat="47.97767" lon="-2.38585">
        <ele>39.55</ele>
        <time>2012-08-16T15:22:57Z</time>
      </trkpt>
      <trkpt lat="47.97803" lon="-2.38571">
        <ele>39.07</ele>
        <time>2012-08-16T15:23:04Z</time>
      </trkpt>
      <trkpt lat="47.97846" lon="-2.3855">
        <ele>39.55</ele>
        <time>2012-08-16T15:23:12Z</time>
      </trkpt>
      <trkpt lat="47.97878" lon="-2.38529">
        <ele>40.51</ele>
        <time>2012-08-16T15:23:19Z</time>
      </trkpt>
      <trkpt lat="47.97912" lon="-2.385">
        <ele>40.99</ele>
        <time>2012-08-16T15:23:27Z</time>
      </trkpt>
      <trkpt lat="47.97936" lon="-2.38474">
        <ele>41.47</ele>
        <time>2012-08-16T15:23:34Z</time>
      </trkpt>
      <trkpt lat="47.97964" lon="-2.38442">
        <ele>41.95</ele>
        <time>2012-08-16T15:23:43Z</time>
      </trkpt>
      <trkpt lat="47.98" lon="-2.38405">
        <ele>41.95</ele>
        <time>2012-08-16T15:23:51Z</time>
      </trkpt>
      <trkpt lat="47.98043" lon="-2.38361">
        <ele>41.95</ele>
        <time>2012-08-16T15:24:00Z</time>
      </trkpt>
      <trkpt lat="47.98058" lon="-2.38349">
        <ele>41.47</ele>
        <time>2012-08-16T15:24:03Z</time>
      </trkpt>
      <trkpt lat="47.98097" lon="-2.3831">
        <ele>40.03</ele>
        <time>2012-08-16T15:24:11Z</time>
      </trkpt>
      <trkpt lat="47.98146" lon="-2.3827">
        <ele>37.63</ele>
        <time>2012-08-16T15:24:19Z</time>
      </trkpt>
      <trkpt lat="47.9818" lon="-2.38239">
        <ele>37.15</ele>
        <time>2012-08-16T15:24:25Z</time>
      </trkpt>
      <trkpt lat="47.9823" lon="-2.38197">
        <ele>35.23</ele>
        <time>2012-08-16T15:24:34Z</time>
      </trkpt>
      <trkpt lat="47.9827" lon="-2.38159">
        <ele>36.19</ele>
        <time>2012-08-16T15:24:42Z</time>
      </trkpt>
      <trkpt lat="47.98307" lon="-2.38121">
        <ele>37.63</ele>
        <time>2012-08-16T15:24:50Z</time>
      </trkpt>
      <trkpt lat="47.98355" lon="-2.38078">
        <ele>38.11</ele>
        <time>2012-08-16T15:24:59Z</time>
      </trkpt>
      <trkpt lat="47.98397" lon="-2.38037">
        <ele>38.59</ele>
        <time>2012-08-16T15:25:08Z</time>
      </trkpt>
      <trkpt lat="47.98406" lon="-2.3803">
        <ele>38.59</ele>
        <time>2012-08-16T15:25:10Z</time>
      </trkpt>
      <trkpt lat="47.98419" lon="-2.38015">
        <ele>37.15</ele>
        <time>2012-08-16T15:25:14Z</time>
      </trkpt>
      <trkpt lat="47.98422" lon="-2.38006">
        <ele>36.19</ele>
        <time>2012-08-16T15:25:18Z</time>
      </trkpt>
      <trkpt lat="47.98424" lon="-2.37989">
        <ele>37.15</ele>
        <time>2012-08-16T15:25:23Z</time>
      </trkpt>
      <trkpt lat="47.98431" lon="-2.37983">
        <ele>36.67</ele>
        <time>2012-08-16T15:25:25Z</time>
      </trkpt>
      <trkpt lat="47.98465" lon="-2.37945">
        <ele>37.15</ele>
        <time>2012-08-16T15:25:36Z</time>
      </trkpt>
      <trkpt lat="47.98472" lon="-2.37938">
        <ele>37.15</ele>
        <time>2012-08-16T15:25:38Z</time>
      </trkpt>
      <trkpt lat="47.98502" lon="-2.37929">
        <ele>37.63</ele>
        <time>2012-08-16T15:25:45Z</time>
      </trkpt>
      <trkpt lat="47.98514" lon="-2.3792">
        <ele>37.15</ele>
        <time>2012-08-16T15:25:48Z</time>
      </trkpt>
      <trkpt lat="47.98542" lon="-2.3789">
        <ele>37.15</ele>
        <time>2012-08-16T15:25:56Z</time>
      </trkpt>
      <trkpt lat="47.98575" lon="-2.37846">
        <ele>36.19</ele>
        <time>2012-08-16T15:26:05Z</time>
      </trkpt>
      <trkpt lat="47.98609" lon="-2.37792">
        <ele>34.74</ele>
        <time>2012-08-16T15:26:15Z</time>
      </trkpt>
      <trkpt lat="47.98639" lon="-2.37744">
        <ele>33.78</ele>
        <time>2012-08-16T15:26:24Z</time>
      </trkpt>
      <trkpt lat="47.98673" lon="-2.37692">
        <ele>32.34</ele>
        <time>2012-08-16T15:26:33Z</time>
      </trkpt>
      <trkpt lat="47.98705" lon="-2.37635">
        <ele>32.34</ele>
        <time>2012-08-16T15:26:42Z</time>
      </trkpt>
      <trkpt lat="47.9873" lon="-2.37582">
        <ele>32.82</ele>
        <time>2012-08-16T15:26:51Z</time>
      </trkpt>
      <trkpt lat="47.98752" lon="-2.3753">
        <ele>33.3</ele>
        <time>2012-08-16T15:26:59Z</time>
      </trkpt>
      <trkpt lat="47.98782" lon="-2.3746">
        <ele>33.78</ele>
        <time>2012-08-16T15:27:09Z</time>
      </trkpt>
      <trkpt lat="47.9881" lon="-2.37392">
        <ele>32.34</ele>
        <time>2012-08-16T15:27:19Z</time>
      </trkpt>
      <trkpt lat="47.98832" lon="-2.3734">
        <ele>29.94</ele>
        <time>2012-08-16T15:27:27Z</time>
      </trkpt>
      <trkpt lat="47.98849" lon="-2.37299">
        <ele>28.98</ele>
        <time>2012-08-16T15:27:33Z</time>
      </trkpt>
      <trkpt lat="47.98868" lon="-2.37256">
        <ele>27.53</ele>
        <time>2012-08-16T15:27:40Z</time>
      </trkpt>
      <trkpt lat="47.9889" lon="-2.37201">
        <ele>27.05</ele>
        <time>2012-08-16T15:27:48Z</time>
      </trkpt>
      <trkpt lat="47.98917" lon="-2.37139">
        <ele>28.98</ele>
        <time>2012-08-16T15:27:57Z</time>
      </trkpt>
      <trkpt lat="47.98942" lon="-2.37079">
        <ele>29.94</ele>
        <time>2012-08-16T15:28:06Z</time>
      </trkpt>
      <trkpt lat="47.98952" lon="-2.3706">
        <ele>29.94</ele>
        <time>2012-08-16T15:28:09Z</time>
      </trkpt>
      <trkpt lat="47.98963" lon="-2.37028">
        <ele>29.46</ele>
        <time>2012-08-16T15:28:15Z</time>
      </trkpt>
      <trkpt lat="47.98967" lon="-2.37024">
        <ele>29.46</ele>
        <time>2012-08-16T15:28:17Z</time>
      </trkpt>
      <trkpt lat="47.98978" lon="-2.36996">
        <ele>28.5</ele>
        <time>2012-08-16T15:28:23Z</time>
      </trkpt>
      <trkpt lat="47.98996" lon="-2.36948">
        <ele>27.53</ele>
        <time>2012-08-16T15:28:31Z</time>
      </trkpt>
      <trkpt lat="47.99021" lon="-2.36892">
        <ele>27.53</ele>
        <time>2012-08-16T15:28:40Z</time>
      </trkpt>
      <trkpt lat="47.99046" lon="-2.36829">
        <ele>29.46</ele>
        <time>2012-08-16T15:28:49Z</time>
      </trkpt>
      <trkpt lat="47.99059" lon="-2.36795">
        <ele>30.42</ele>
        <time>2012-08-16T15:28:54Z</time>
      </trkpt>
      <trkpt lat="47.99086" lon="-2.36736">
        <ele>31.86</ele>
        <time>2012-08-16T15:29:03Z</time>
      </trkpt>
      <trkpt lat="47.99107" lon="-2.36691">
        <ele>31.86</ele>
        <time>2012-08-16T15:29:10Z</time>
      </trkpt>
      <trkpt lat="47.99121" lon="-2.36658">
        <ele>32.34</ele>
        <time>2012-08-16T15:29:15Z</time>
      </trkpt>
      <trkpt lat="47.99148" lon="-2.36597">
        <ele>32.82</ele>
        <time>2012-08-16T15:29:25Z</time>
      </trkpt>
      <trkpt lat="47.99165" lon="-2.36552">
        <ele>33.3</ele>
        <time>2012-08-16T15:29:33Z</time>
      </trkpt>
      <trkpt lat="47.99185" lon="-2.36502">
        <ele>32.34</ele>
        <time>2012-08-16T15:29:42Z</time>
      </trkpt>
      <trkpt lat="47.99206" lon="-2.36457">
        <ele>33.78</ele>
        <time>2012-08-16T15:29:50Z</time>
      </trkpt>
      <trkpt lat="47.99224" lon="-2.36415">
        <ele>35.23</ele>
        <time>2012-08-16T15:29:58Z</time>
      </trkpt>
      <trkpt lat="47.99247" lon="-2.36363">
        <ele>37.63</ele>
        <time>2012-08-16T15:30:08Z</time>
      </trkpt>
      <trkpt lat="47.99259" lon="-2.36333">
        <ele>39.07</ele>
        <time>2012-08-16T15:30:14Z</time>
      </trkpt>
      <trkpt lat="47.99263" lon="-2.36324">
        <ele>39.55</ele>
        <time>2012-08-16T15:30:16Z</time>
      </trkpt>
      <trkpt lat="47.99265" lon="-2.36314">
        <ele>39.55</ele>
        <time>2012-08-16T15:30:18Z</time>
      </trkpt>
      <trkpt lat="47.99276" lon="-2.36292">
        <ele>40.51</ele>
        <time>2012-08-16T15:30:25Z</time>
      </trkpt>
      <trkpt lat="47.99279" lon="-2.3629">
        <ele>40.99</ele>
        <time>2012-08-16T15:30:26Z</time>
      </trkpt>
      <trkpt lat="47.99296" lon="-2.36256">
        <ele>40.03</ele>
        <time>2012-08-16T15:30:34Z</time>
      </trkpt>
      <trkpt lat="47.99325" lon="-2.36206">
        <ele>40.99</ele>
        <time>2012-08-16T15:30:45Z</time>
      </trkpt>
      <trkpt lat="47.9935" lon="-2.36171">
        <ele>41.95</ele>
        <time>2012-08-16T15:30:54Z</time>
      </trkpt>
      <trkpt lat="47.99376" lon="-2.36137">
        <ele>42.92</ele>
        <time>2012-08-16T15:31:03Z</time>
      </trkpt>
      <trkpt lat="47.99405" lon="-2.36107">
        <ele>43.88</ele>
        <time>2012-08-16T15:31:11Z</time>
      </trkpt>
      <trkpt lat="47.99425" lon="-2.36088">
        <ele>44.36</ele>
        <time>2012-08-16T15:31:17Z</time>
      </trkpt>
      <trkpt lat="47.99455" lon="-2.36058">
        <ele>44.36</ele>
        <time>2012-08-16T15:31:27Z</time>
      </trkpt>
      <trkpt lat="47.99476" lon="-2.36038">
        <ele>43.88</ele>
        <time>2012-08-16T15:31:34Z</time>
      </trkpt>
      <trkpt lat="47.995" lon="-2.36014">
        <ele>43.4</ele>
        <time>2012-08-16T15:31:41Z</time>
      </trkpt>
      <trkpt lat="47.99541" lon="-2.35982">
        <ele>42.92</ele>
        <time>2012-08-16T15:31:50Z</time>
      </trkpt>
      <trkpt lat="47.99576" lon="-2.3595">
        <ele>45.32</ele>
        <time>2012-08-16T15:31:58Z</time>
      </trkpt>
      <trkpt lat="47.9961" lon="-2.35919">
        <ele>45.8</ele>
        <time>2012-08-16T15:32:07Z</time>
      </trkpt>
      <trkpt lat="47.99618" lon="-2.35911">
        <ele>46.28</ele>
        <time>2012-08-16T15:32:09Z</time>
      </trkpt>
      <trkpt lat="47.99644" lon="-2.35885">
        <ele>46.76</ele>
        <time>2012-08-16T15:32:17Z</time>
      </trkpt>
      <trkpt lat="47.99665" lon="-2.35867">
        <ele>47.24</ele>
        <time>2012-08-16T15:32:23Z</time>
      </trkpt>
      <trkpt lat="47.99684" lon="-2.35848">
        <ele>48.2</ele>
        <time>2012-08-16T15:32:29Z</time>
      </trkpt>
      <trkpt lat="47.99695" lon="-2.35838">
        <ele>48.68</ele>
        <time>2012-08-16T15:32:32Z</time>
      </trkpt>
      <trkpt lat="47.99725" lon="-2.35809">
        <ele>52.05</ele>
        <time>2012-08-16T15:32:39Z</time>
      </trkpt>
      <trkpt lat="47.99735" lon="-2.35801">
        <ele>53.01</ele>
        <time>2012-08-16T15:32:41Z</time>
      </trkpt>
      <trkpt lat="47.99744" lon="-2.35794">
        <ele>53.97</ele>
        <time>2012-08-16T15:32:43Z</time>
      </trkpt>
      <trkpt lat="47.99757" lon="-2.35784">
        <ele>55.41</ele>
        <time>2012-08-16T15:32:46Z</time>
      </trkpt>
      <trkpt lat="47.99787" lon="-2.35758">
        <ele>56.86</ele>
        <time>2012-08-16T15:32:54Z</time>
      </trkpt>
      <trkpt lat="47.99821" lon="-2.35734">
        <ele>57.34</ele>
        <time>2012-08-16T15:33:02Z</time>
      </trkpt>
      <trkpt lat="47.99859" lon="-2.35714">
        <ele>58.3</ele>
        <time>2012-08-16T15:33:10Z</time>
      </trkpt>
      <trkpt lat="47.99891" lon="-2.35697">
        <ele>59.26</ele>
        <time>2012-08-16T15:33:17Z</time>
      </trkpt>
      <trkpt lat="47.99904" lon="-2.35693">
        <ele>59.74</ele>
        <time>2012-08-16T15:33:20Z</time>
      </trkpt>
      <trkpt lat="47.99912" lon="-2.35689">
        <ele>59.74</ele>
        <time>2012-08-16T15:33:22Z</time>
      </trkpt>
      <trkpt lat="47.99935" lon="-2.3568">
        <ele>60.22</ele>
        <time>2012-08-16T15:33:27Z</time>
      </trkpt>
      <trkpt lat="47.99955" lon="-2.35675">
        <ele>60.22</ele>
        <time>2012-08-16T15:33:31Z</time>
      </trkpt>
      <trkpt lat="47.99996" lon="-2.35661">
        <ele>59.74</ele>
        <time>2012-08-16T15:33:39Z</time>
      </trkpt>
      <trkpt lat="48.00007" lon="-2.35658">
        <ele>59.74</ele>
        <time>2012-08-16T15:33:41Z</time>
      </trkpt>
      <trkpt lat="48.00055" lon="-2.35644">
        <ele>58.78</ele>
        <time>2012-08-16T15:33:50Z</time>
      </trkpt>
      <trkpt lat="48.00086" lon="-2.35634">
        <ele>57.34</ele>
        <time>2012-08-16T15:33:56Z</time>
      </trkpt>
      <trkpt lat="48.00125" lon="-2.35623">
        <ele>56.37</ele>
        <time>2012-08-16T15:34:03Z</time>
      </trkpt>
      <trkpt lat="48.00165" lon="-2.3561">
        <ele>56.37</ele>
        <time>2012-08-16T15:34:11Z</time>
      </trkpt>
      <trkpt lat="48.00169" lon="-2.35609">
        <ele>56.37</ele>
        <time>2012-08-16T15:34:12Z</time>
      </trkpt>
      <trkpt lat="48.00219" lon="-2.35592">
        <ele>56.86</ele>
        <time>2012-08-16T15:34:23Z</time>
      </trkpt>
      <trkpt lat="48.00271" lon="-2.35577">
        <ele>57.34</ele>
        <time>2012-08-16T15:34:34Z</time>
      </trkpt>
      <trkpt lat="48.00275" lon="-2.35575">
        <ele>57.34</ele>
        <time>2012-08-16T15:34:35Z</time>
      </trkpt>
      <trkpt lat="48.00308" lon="-2.35564">
        <ele>58.3</ele>
        <time>2012-08-16T15:34:43Z</time>
      </trkpt>
      <trkpt lat="48.00337" lon="-2.35554">
        <ele>59.26</ele>
        <time>2012-08-16T15:34:50Z</time>
      </trkpt>
      <trkpt lat="48.00375" lon="-2.3554">
        <ele>59.74</ele>
        <time>2012-08-16T15:35:00Z</time>
      </trkpt>
      <trkpt lat="48.00406" lon="-2.3553">
        <ele>60.7</ele>
        <time>2012-08-16T15:35:07Z</time>
      </trkpt>
      <trkpt lat="48.0045" lon="-2.35518">
        <ele>61.66</ele>
        <time>2012-08-16T15:35:16Z</time>
      </trkpt>
      <trkpt lat="48.00495" lon="-2.35505">
        <ele>60.22</ele>
        <time>2012-08-16T15:35:26Z</time>
      </trkpt>
      <trkpt lat="48.00531" lon="-2.35493">
        <ele>59.74</ele>
        <time>2012-08-16T15:35:34Z</time>
      </trkpt>
      <trkpt lat="48.00575" lon="-2.35479">
        <ele>62.62</ele>
        <time>2012-08-16T15:35:44Z</time>
      </trkpt>
      <trkpt lat="48.00609" lon="-2.35469">
        <ele>62.62</ele>
        <time>2012-08-16T15:35:51Z</time>
      </trkpt>
      <trkpt lat="48.00627" lon="-2.35463">
        <ele>63.1</ele>
        <time>2012-08-16T15:35:55Z</time>
      </trkpt>
      <trkpt lat="48.00669" lon="-2.35449">
        <ele>63.1</ele>
        <time>2012-08-16T15:36:04Z</time>
      </trkpt>
      <trkpt lat="48.00711" lon="-2.35438">
        <ele>63.1</ele>
        <time>2012-08-16T15:36:12Z</time>
      </trkpt>
      <trkpt lat="48.00727" lon="-2.35436">
        <ele>63.1</ele>
        <time>2012-08-16T15:36:15Z</time>
      </trkpt>
      <trkpt lat="48.00775" lon="-2.35433">
        <ele>61.66</ele>
        <time>2012-08-16T15:36:24Z</time>
      </trkpt>
      <trkpt lat="48.00789" lon="-2.35434">
        <ele>61.18</ele>
        <time>2012-08-16T15:36:27Z</time>
      </trkpt>
      <trkpt lat="48.00836" lon="-2.3544">
        <ele>58.3</ele>
        <time>2012-08-16T15:36:37Z</time>
      </trkpt>
      <trkpt lat="48.0088" lon="-2.35455">
        <ele>56.37</ele>
        <time>2012-08-16T15:36:45Z</time>
      </trkpt>
      <trkpt lat="48.00918" lon="-2.35473">
        <ele>55.89</ele>
        <time>2012-08-16T15:36:52Z</time>
      </trkpt>
      <trkpt lat="48.00971" lon="-2.35502">
        <ele>57.34</ele>
        <time>2012-08-16T15:37:01Z</time>
      </trkpt>
      <trkpt lat="48.01008" lon="-2.35523">
        <ele>57.82</ele>
        <time>2012-08-16T15:37:07Z</time>
      </trkpt>
      <trkpt lat="48.01035" lon="-2.35537">
        <ele>58.78</ele>
        <time>2012-08-16T15:37:11Z</time>
      </trkpt>
      <trkpt lat="48.01059" lon="-2.35547">
        <ele>58.78</ele>
        <time>2012-08-16T15:37:16Z</time>
      </trkpt>
      <trkpt lat="48.0108" lon="-2.35562">
        <ele>59.26</ele>
        <time>2012-08-16T15:37:21Z</time>
      </trkpt>
      <trkpt lat="48.01125" lon="-2.35585">
        <ele>59.26</ele>
        <time>2012-08-16T15:37:29Z</time>
      </trkpt>
      <trkpt lat="48.01174" lon="-2.3561">
        <ele>58.3</ele>
        <time>2012-08-16T15:37:36Z</time>
      </trkpt>
      <trkpt lat="48.01227" lon="-2.35634">
        <ele>57.34</ele>
        <time>2012-08-16T15:37:43Z</time>
      </trkpt>
      <trkpt lat="48.01277" lon="-2.35648">
        <ele>56.37</ele>
        <time>2012-08-16T15:37:50Z</time>
      </trkpt>
      <trkpt lat="48.01326" lon="-2.35653">
        <ele>55.89</ele>
        <time>2012-08-16T15:37:57Z</time>
      </trkpt>
      <trkpt lat="48.01359" lon="-2.35652">
        <ele>54.45</ele>
        <time>2012-08-16T15:38:02Z</time>
      </trkpt>
      <trkpt lat="48.01419" lon="-2.35639">
        <ele>53.01</ele>
        <time>2012-08-16T15:38:11Z</time>
      </trkpt>
      <trkpt lat="48.01478" lon="-2.35618">
        <ele>52.05</ele>
        <time>2012-08-16T15:38:19Z</time>
      </trkpt>
      <trkpt lat="48.01519" lon="-2.35592">
        <ele>51.09</ele>
        <time>2012-08-16T15:38:25Z</time>
      </trkpt>
      <trkpt lat="48.0157" lon="-2.35558">
        <ele>49.65</ele>
        <time>2012-08-16T15:38:33Z</time>
      </trkpt>
      <trkpt lat="48.01616" lon="-2.35526">
        <ele>47.72</ele>
        <time>2012-08-16T15:38:41Z</time>
      </trkpt>
      <trkpt lat="48.01648" lon="-2.35505">
        <ele>45.8</ele>
        <time>2012-08-16T15:38:47Z</time>
      </trkpt>
      <trkpt lat="48.01697" lon="-2.35473">
        <ele>43.88</ele>
        <time>2012-08-16T15:38:55Z</time>
      </trkpt>
      <trkpt lat="48.01746" lon="-2.35435">
        <ele>42.92</ele>
        <time>2012-08-16T15:39:04Z</time>
      </trkpt>
      <trkpt lat="48.01768" lon="-2.35421">
        <ele>42.92</ele>
        <time>2012-08-16T15:39:08Z</time>
      </trkpt>
      <trkpt lat="48.01789" lon="-2.35408">
        <ele>42.44</ele>
        <time>2012-08-16T15:39:12Z</time>
      </trkpt>
      <trkpt lat="48.01805" lon="-2.35393">
        <ele>42.92</ele>
        <time>2012-08-16T15:39:17Z</time>
      </trkpt>
      <trkpt lat="48.01818" lon="-2.35389">
        <ele>42.92</ele>
        <time>2012-08-16T15:39:21Z</time>
      </trkpt>
      <trkpt lat="48.0183" lon="-2.35379">
        <ele>42.92</ele>
        <time>2012-08-16T15:39:24Z</time>
      </trkpt>
      <trkpt lat="48.01871" lon="-2.35349">
        <ele>43.4</ele>
        <time>2012-08-16T15:39:33Z</time>
      </trkpt>
      <trkpt lat="48.01912" lon="-2.35321">
        <ele>43.4</ele>
        <time>2012-08-16T15:39:41Z</time>
      </trkpt>
      <trkpt lat="48.01966" lon="-2.35285">
        <ele>43.4</ele>
        <time>2012-08-16T15:39:51Z</time>
      </trkpt>
      <trkpt lat="48.02006" lon="-2.35256">
        <ele>42.92</ele>
        <time>2012-08-16T15:39:58Z</time>
      </trkpt>
      <trkpt lat="48.02055" lon="-2.35221">
        <ele>41.95</ele>
        <time>2012-08-16T15:40:07Z</time>
      </trkpt>
      <trkpt lat="48.02103" lon="-2.35189">
        <ele>42.44</ele>
        <time>2012-08-16T15:40:16Z</time>
      </trkpt>
      <trkpt lat="48.02155" lon="-2.35153">
        <ele>42.92</ele>
        <time>2012-08-16T15:40:26Z</time>
      </trkpt>
      <trkpt lat="48.02196" lon="-2.35123">
        <ele>41.95</ele>
        <time>2012-08-16T15:40:34Z</time>
      </trkpt>
      <trkpt lat="48.02238" lon="-2.35089">
        <ele>43.4</ele>
        <time>2012-08-16T15:40:42Z</time>
      </trkpt>
      <trkpt lat="48.02283" lon="-2.3505">
        <ele>43.88</ele>
        <time>2012-08-16T15:40:51Z</time>
      </trkpt>
      <trkpt lat="48.02315" lon="-2.35015">
        <ele>44.36</ele>
        <time>2012-08-16T15:40:58Z</time>
      </trkpt>
      <trkpt lat="48.02348" lon="-2.3498">
        <ele>44.36</ele>
        <time>2012-08-16T15:41:05Z</time>
      </trkpt>
      <trkpt lat="48.0238" lon="-2.34944">
        <ele>43.4</ele>
        <time>2012-08-16T15:41:11Z</time>
      </trkpt>
      <trkpt lat="48.02391" lon="-2.3492">
        <ele>42.44</ele>
        <time>2012-08-16T15:41:17Z</time>
      </trkpt>
      <trkpt lat="48.024" lon="-2.34911">
        <ele>43.88</ele>
        <time>2012-08-16T15:41:21Z</time>
      </trkpt>
      <trkpt lat="48.02423" lon="-2.34875">
        <ele>45.32</ele>
        <time>2012-08-16T15:41:31Z</time>
      </trkpt>
      <trkpt lat="48.02439" lon="-2.34853">
        <ele>45.8</ele>
        <time>2012-08-16T15:41:37Z</time>
      </trkpt>
      <trkpt lat="48.02461" lon="-2.34827">
        <ele>45.8</ele>
        <time>2012-08-16T15:41:45Z</time>
      </trkpt>
      <trkpt lat="48.02492" lon="-2.34788">
        <ele>45.32</ele>
        <time>2012-08-16T15:41:54Z</time>
      </trkpt>
      <trkpt lat="48.02511" lon="-2.34758">
        <ele>44.84</ele>
        <time>2012-08-16T15:42:00Z</time>
      </trkpt>
      <trkpt lat="48.02534" lon="-2.34724">
        <ele>41.95</ele>
        <time>2012-08-16T15:42:07Z</time>
      </trkpt>
      <trkpt lat="48.02562" lon="-2.34683">
        <ele>38.59</ele>
        <time>2012-08-16T15:42:15Z</time>
      </trkpt>
      <trkpt lat="48.02597" lon="-2.34635">
        <ele>36.19</ele>
        <time>2012-08-16T15:42:25Z</time>
      </trkpt>
      <trkpt lat="48.02615" lon="-2.34609">
        <ele>35.23</ele>
        <time>2012-08-16T15:42:31Z</time>
      </trkpt>
      <trkpt lat="48.02641" lon="-2.34569">
        <ele>38.11</ele>
        <time>2012-08-16T15:42:39Z</time>
      </trkpt>
      <trkpt lat="48.0267" lon="-2.34522">
        <ele>40.51</ele>
        <time>2012-08-16T15:42:47Z</time>
      </trkpt>
      <trkpt lat="48.02702" lon="-2.34477">
        <ele>42.92</ele>
        <time>2012-08-16T15:42:56Z</time>
      </trkpt>
      <trkpt lat="48.02725" lon="-2.34445">
        <ele>42.92</ele>
        <time>2012-08-16T15:43:04Z</time>
      </trkpt>
      <trkpt lat="48.02747" lon="-2.34409">
        <ele>44.36</ele>
        <time>2012-08-16T15:43:12Z</time>
      </trkpt>
      <trkpt lat="48.02763" lon="-2.34386">
        <ele>45.32</ele>
        <time>2012-08-16T15:43:18Z</time>
      </trkpt>
      <trkpt lat="48.02791" lon="-2.34346">
        <ele>45.32</ele>
        <time>2012-08-16T15:43:27Z</time>
      </trkpt>
      <trkpt lat="48.02814" lon="-2.34317">
        <ele>47.24</ele>
        <time>2012-08-16T15:43:34Z</time>
      </trkpt>
      <trkpt lat="48.02836" lon="-2.34285">
        <ele>46.76</ele>
        <time>2012-08-16T15:43:41Z</time>
      </trkpt>
      <trkpt lat="48.02859" lon="-2.34255">
        <ele>47.72</ele>
        <time>2012-08-16T15:43:48Z</time>
      </trkpt>
      <trkpt lat="48.02866" lon="-2.34245">
        <ele>48.2</ele>
        <time>2012-08-16T15:43:50Z</time>
      </trkpt>
      <trkpt lat="48.02898" lon="-2.34202">
        <ele>49.16</ele>
        <time>2012-08-16T15:43:59Z</time>
      </trkpt>
      <trkpt lat="48.02927" lon="-2.34159">
        <ele>51.09</ele>
        <time>2012-08-16T15:44:08Z</time>
      </trkpt>
      <trkpt lat="48.02954" lon="-2.34122">
        <ele>53.01</ele>
        <time>2012-08-16T15:44:16Z</time>
      </trkpt>
      <trkpt lat="48.02974" lon="-2.34094">
        <ele>53.97</ele>
        <time>2012-08-16T15:44:22Z</time>
      </trkpt>
      <trkpt lat="48.03001" lon="-2.34055">
        <ele>55.89</ele>
        <time>2012-08-16T15:44:31Z</time>
      </trkpt>
      <trkpt lat="48.03029" lon="-2.34015">
        <ele>58.3</ele>
        <time>2012-08-16T15:44:40Z</time>
      </trkpt>
      <trkpt lat="48.03044" lon="-2.33989">
        <ele>59.26</ele>
        <time>2012-08-16T15:44:45Z</time>
      </trkpt>
      <trkpt lat="48.03059" lon="-2.33968">
        <ele>59.26</ele>
        <time>2012-08-16T15:44:49Z</time>
      </trkpt>
      <trkpt lat="48.0307" lon="-2.33945">
        <ele>60.22</ele>
        <time>2012-08-16T15:44:53Z</time>
      </trkpt>
      <trkpt lat="48.03101" lon="-2.33892">
        <ele>59.74</ele>
        <time>2012-08-16T15:45:02Z</time>
      </trkpt>
      <trkpt lat="48.03124" lon="-2.33842">
        <ele>60.22</ele>
        <time>2012-08-16T15:45:10Z</time>
      </trkpt>
      <trkpt lat="48.03127" lon="-2.33836">
        <ele>60.22</ele>
        <time>2012-08-16T15:45:11Z</time>
      </trkpt>
      <trkpt lat="48.03131" lon="-2.33824">
        <ele>60.22</ele>
        <time>2012-08-16T15:45:13Z</time>
      </trkpt>
      <trkpt lat="48.03137" lon="-2.33809">
        <ele>60.22</ele>
        <time>2012-08-16T15:45:16Z</time>
      </trkpt>
      <trkpt lat="48.0315" lon="-2.33786">
        <ele>58.78</ele>
        <time>2012-08-16T15:45:21Z</time>
      </trkpt>
      <trkpt lat="48.03172" lon="-2.33728">
        <ele>56.86</ele>
        <time>2012-08-16T15:45:30Z</time>
      </trkpt>
      <trkpt lat="48.03189" lon="-2.33683">
        <ele>55.41</ele>
        <time>2012-08-16T15:45:37Z</time>
      </trkpt>
      <trkpt lat="48.03195" lon="-2.3367">
        <ele>54.93</ele>
        <time>2012-08-16T15:45:39Z</time>
      </trkpt>
      <trkpt lat="48.03211" lon="-2.3363">
        <ele>53.97</ele>
        <time>2012-08-16T15:45:45Z</time>
      </trkpt>
      <trkpt lat="48.03235" lon="-2.33569">
        <ele>53.01</ele>
        <time>2012-08-16T15:45:54Z</time>
      </trkpt>
      <trkpt lat="48.03261" lon="-2.33505">
        <ele>52.53</ele>
        <time>2012-08-16T15:46:03Z</time>
      </trkpt>
      <trkpt lat="48.03281" lon="-2.33454">
        <ele>52.05</ele>
        <time>2012-08-16T15:46:10Z</time>
      </trkpt>
      <trkpt lat="48.03305" lon="-2.33397">
        <ele>51.57</ele>
        <time>2012-08-16T15:46:18Z</time>
      </trkpt>
      <trkpt lat="48.0333" lon="-2.33333">
        <ele>51.09</ele>
        <time>2012-08-16T15:46:27Z</time>
      </trkpt>
      <trkpt lat="48.03355" lon="-2.33272">
        <ele>50.61</ele>
        <time>2012-08-16T15:46:35Z</time>
      </trkpt>
      <trkpt lat="48.03376" lon="-2.33221">
        <ele>50.13</ele>
        <time>2012-08-16T15:46:42Z</time>
      </trkpt>
      <trkpt lat="48.03384" lon="-2.33199">
        <ele>49.65</ele>
        <time>2012-08-16T15:46:45Z</time>
      </trkpt>
      <trkpt lat="48.034" lon="-2.33164">
        <ele>49.65</ele>
        <time>2012-08-16T15:46:50Z</time>
      </trkpt>
      <trkpt lat="48.03426" lon="-2.33114">
        <ele>51.57</ele>
        <time>2012-08-16T15:46:57Z</time>
      </trkpt>
      <trkpt lat="48.03462" lon="-2.3306">
        <ele>54.45</ele>
        <time>2012-08-16T15:47:05Z</time>
      </trkpt>
      <trkpt lat="48.03497" lon="-2.33017">
        <ele>54.93</ele>
        <time>2012-08-16T15:47:13Z</time>
      </trkpt>
      <trkpt lat="48.03533" lon="-2.32979">
        <ele>55.41</ele>
        <time>2012-08-16T15:47:21Z</time>
      </trkpt>
      <trkpt lat="48.03573" lon="-2.32938">
        <ele>54.45</ele>
        <time>2012-08-16T15:47:29Z</time>
      </trkpt>
      <trkpt lat="48.03585" lon="-2.32927">
        <ele>54.45</ele>
        <time>2012-08-16T15:47:31Z</time>
      </trkpt>
      <trkpt lat="48.03626" lon="-2.32882">
        <ele>54.93</ele>
        <time>2012-08-16T15:47:40Z</time>
      </trkpt>
      <trkpt lat="48.03659" lon="-2.32834">
        <ele>56.86</ele>
        <time>2012-08-16T15:47:49Z</time>
      </trkpt>
      <trkpt lat="48.0367" lon="-2.32819">
        <ele>56.86</ele>
        <time>2012-08-16T15:47:52Z</time>
      </trkpt>
      <trkpt lat="48.03682" lon="-2.32798">
        <ele>57.82</ele>
        <time>2012-08-16T15:47:56Z</time>
      </trkpt>
      <trkpt lat="48.03707" lon="-2.32752">
        <ele>58.78</ele>
        <time>2012-08-16T15:48:04Z</time>
      </trkpt>
      <trkpt lat="48.03718" lon="-2.3273">
        <ele>59.74</ele>
        <time>2012-08-16T15:48:08Z</time>
      </trkpt>
      <trkpt lat="48.03726" lon="-2.32711">
        <ele>60.22</ele>
        <time>2012-08-16T15:48:11Z</time>
      </trkpt>
      <trkpt lat="48.03742" lon="-2.32665">
        <ele>62.14</ele>
        <time>2012-08-16T15:48:18Z</time>
      </trkpt>
      <trkpt lat="48.03763" lon="-2.32602">
        <ele>60.22</ele>
        <time>2012-08-16T15:48:27Z</time>
      </trkpt>
      <trkpt lat="48.03784" lon="-2.32544">
        <ele>59.74</ele>
        <time>2012-08-16T15:48:36Z</time>
      </trkpt>
      <trkpt lat="48.03805" lon="-2.32488">
        <ele>60.22</ele>
        <time>2012-08-16T15:48:45Z</time>
      </trkpt>
      <trkpt lat="48.03828" lon="-2.32418">
        <ele>60.7</ele>
        <time>2012-08-16T15:48:55Z</time>
      </trkpt>
      <trkpt lat="48.03848" lon="-2.3236">
        <ele>60.7</ele>
        <time>2012-08-16T15:49:03Z</time>
      </trkpt>
      <trkpt lat="48.03869" lon="-2.32301">
        <ele>60.22</ele>
        <time>2012-08-16T15:49:11Z</time>
      </trkpt>
      <trkpt lat="48.03884" lon="-2.3226">
        <ele>59.74</ele>
        <time>2012-08-16T15:49:18Z</time>
      </trkpt>
      <trkpt lat="48.039" lon="-2.32216">
        <ele>59.26</ele>
        <time>2012-08-16T15:49:27Z</time>
      </trkpt>
      <trkpt lat="48.03919" lon="-2.3216">
        <ele>59.26</ele>
        <time>2012-08-16T15:49:36Z</time>
      </trkpt>
      <trkpt lat="48.03938" lon="-2.32105">
        <ele>58.3</ele>
        <time>2012-08-16T15:49:44Z</time>
      </trkpt>
      <trkpt lat="48.03959" lon="-2.32044">
        <ele>57.82</ele>
        <time>2012-08-16T15:49:52Z</time>
      </trkpt>
      <trkpt lat="48.03979" lon="-2.31985">
        <ele>57.82</ele>
        <time>2012-08-16T15:50:00Z</time>
      </trkpt>
      <trkpt lat="48.04002" lon="-2.31925">
        <ele>56.86</ele>
        <time>2012-08-16T15:50:09Z</time>
      </trkpt>
      <trkpt lat="48.04019" lon="-2.31878">
        <ele>54.93</ele>
        <time>2012-08-16T15:50:16Z</time>
      </trkpt>
      <trkpt lat="48.04046" lon="-2.31812">
        <ele>54.45</ele>
        <time>2012-08-16T15:50:25Z</time>
      </trkpt>
      <trkpt lat="48.04076" lon="-2.31755">
        <ele>54.93</ele>
        <time>2012-08-16T15:50:33Z</time>
      </trkpt>
      <trkpt lat="48.04087" lon="-2.31737">
        <ele>54.93</ele>
        <time>2012-08-16T15:50:36Z</time>
      </trkpt>
      <trkpt lat="48.04121" lon="-2.31691">
        <ele>54.45</ele>
        <time>2012-08-16T15:50:44Z</time>
      </trkpt>
      <trkpt lat="48.04168" lon="-2.3164">
        <ele>53.97</ele>
        <time>2012-08-16T15:50:53Z</time>
      </trkpt>
      <trkpt lat="48.04206" lon="-2.31607">
        <ele>53.01</ele>
        <time>2012-08-16T15:51:00Z</time>
      </trkpt>
      <trkpt lat="48.04258" lon="-2.31572">
        <ele>51.09</ele>
        <time>2012-08-16T15:51:10Z</time>
      </trkpt>
      <trkpt lat="48.04294" lon="-2.31555">
        <ele>51.09</ele>
        <time>2012-08-16T15:51:17Z</time>
      </trkpt>
      <trkpt lat="48.04308" lon="-2.31548">
        <ele>51.09</ele>
        <time>2012-08-16T15:51:20Z</time>
      </trkpt>
      <trkpt lat="48.04352" lon="-2.31535">
        <ele>52.05</ele>
        <time>2012-08-16T15:51:28Z</time>
      </trkpt>
      <trkpt lat="48.04393" lon="-2.31526">
        <ele>54.45</ele>
        <time>2012-08-16T15:51:36Z</time>
      </trkpt>
      <trkpt lat="48.04442" lon="-2.31515">
        <ele>56.37</ele>
        <time>2012-08-16T15:51:45Z</time>
      </trkpt>
      <trkpt lat="48.04478" lon="-2.31506">
        <ele>57.34</ele>
        <time>2012-08-16T15:51:52Z</time>
      </trkpt>
      <trkpt lat="48.04507" lon="-2.31501">
        <ele>56.37</ele>
        <time>2012-08-16T15:51:57Z</time>
      </trkpt>
      <trkpt lat="48.04527" lon="-2.31501">
        <ele>55.89</ele>
        <time>2012-08-16T15:52:02Z</time>
      </trkpt>
      <trkpt lat="48.04531" lon="-2.315">
        <ele>55.89</ele>
        <time>2012-08-16T15:52:03Z</time>
      </trkpt>
      <trkpt lat="48.04577" lon="-2.31487">
        <ele>53.97</ele>
        <time>2012-08-16T15:52:13Z</time>
      </trkpt>
      <trkpt lat="48.0462" lon="-2.31476">
        <ele>53.01</ele>
        <time>2012-08-16T15:52:22Z</time>
      </trkpt>
      <trkpt lat="48.04664" lon="-2.31465">
        <ele>52.05</ele>
        <time>2012-08-16T15:52:31Z</time>
      </trkpt>
      <trkpt lat="48.04718" lon="-2.31453">
        <ele>52.05</ele>
        <time>2012-08-16T15:52:41Z</time>
      </trkpt>
      <trkpt lat="48.04768" lon="-2.31442">
        <ele>52.53</ele>
        <time>2012-08-16T15:52:50Z</time>
      </trkpt>
      <trkpt lat="48.04812" lon="-2.31432">
        <ele>52.53</ele>
        <time>2012-08-16T15:52:58Z</time>
      </trkpt>
      <trkpt lat="48.04866" lon="-2.31419">
        <ele>52.05</ele>
        <time>2012-08-16T15:53:08Z</time>
      </trkpt>
      <trkpt lat="48.04923" lon="-2.31406">
        <ele>52.05</ele>
        <time>2012-08-16T15:53:18Z</time>
      </trkpt>
      <trkpt lat="48.04965" lon="-2.31393">
        <ele>52.05</ele>
        <time>2012-08-16T15:53:25Z</time>
      </trkpt>
      <trkpt lat="48.05012" lon="-2.31372">
        <ele>51.57</ele>
        <time>2012-08-16T15:53:33Z</time>
      </trkpt>
      <trkpt lat="48.05029" lon="-2.31364">
        <ele>51.09</ele>
        <time>2012-08-16T15:53:36Z</time>
      </trkpt>
      <trkpt lat="48.05054" lon="-2.31351">
        <ele>51.57</ele>
        <time>2012-08-16T15:53:41Z</time>
      </trkpt>
      <trkpt lat="48.05071" lon="-2.31336">
        <ele>51.57</ele>
        <time>2012-08-16T15:53:45Z</time>
      </trkpt>
      <trkpt lat="48.0509" lon="-2.31327">
        <ele>51.57</ele>
        <time>2012-08-16T15:53:50Z</time>
      </trkpt>
      <trkpt lat="48.05124" lon="-2.31293">
        <ele>50.61</ele>
        <time>2012-08-16T15:53:59Z</time>
      </trkpt>
      <trkpt lat="48.05152" lon="-2.31261">
        <ele>50.13</ele>
        <time>2012-08-16T15:54:06Z</time>
      </trkpt>
      <trkpt lat="48.05183" lon="-2.31224">
        <ele>49.16</ele>
        <time>2012-08-16T15:54:14Z</time>
      </trkpt>
      <trkpt lat="48.05187" lon="-2.3122">
        <ele>48.68</ele>
        <time>2012-08-16T15:54:15Z</time>
      </trkpt>
      <trkpt lat="48.05225" lon="-2.31169">
        <ele>47.72</ele>
        <time>2012-08-16T15:54:24Z</time>
      </trkpt>
      <trkpt lat="48.05256" lon="-2.31127">
        <ele>48.2</ele>
        <time>2012-08-16T15:54:32Z</time>
      </trkpt>
      <trkpt lat="48.05286" lon="-2.31089">
        <ele>49.65</ele>
        <time>2012-08-16T15:54:39Z</time>
      </trkpt>
      <trkpt lat="48.05328" lon="-2.31035">
        <ele>51.09</ele>
        <time>2012-08-16T15:54:49Z</time>
      </trkpt>
      <trkpt lat="48.05366" lon="-2.30988">
        <ele>52.53</ele>
        <time>2012-08-16T15:54:58Z</time>
      </trkpt>
      <trkpt lat="48.05399" lon="-2.30949">
        <ele>54.45</ele>
        <time>2012-08-16T15:55:06Z</time>
      </trkpt>
      <trkpt lat="48.05437" lon="-2.309">
        <ele>55.89</ele>
        <time>2012-08-16T15:55:16Z</time>
      </trkpt>
      <trkpt lat="48.05463" lon="-2.30865">
        <ele>57.34</ele>
        <time>2012-08-16T15:55:23Z</time>
      </trkpt>
      <trkpt lat="48.05491" lon="-2.30829">
        <ele>58.3</ele>
        <time>2012-08-16T15:55:31Z</time>
      </trkpt>
      <trkpt lat="48.0552" lon="-2.30793">
        <ele>59.74</ele>
        <time>2012-08-16T15:55:40Z</time>
      </trkpt>
      <trkpt lat="48.05542" lon="-2.30764">
        <ele>61.66</ele>
        <time>2012-08-16T15:55:47Z</time>
      </trkpt>
      <trkpt lat="48.05569" lon="-2.30731">
        <ele>63.58</ele>
        <time>2012-08-16T15:55:55Z</time>
      </trkpt>
      <trkpt lat="48.05593" lon="-2.30701">
        <ele>64.55</ele>
        <time>2012-08-16T15:56:02Z</time>
      </trkpt>
      <trkpt lat="48.05619" lon="-2.30662">
        <ele>63.1</ele>
        <time>2012-08-16T15:56:11Z</time>
      </trkpt>
      <trkpt lat="48.05632" lon="-2.30646">
        <ele>62.14</ele>
        <time>2012-08-16T15:56:17Z</time>
      </trkpt>
      <trkpt lat="48.0565" lon="-2.30628">
        <ele>63.1</ele>
        <time>2012-08-16T15:56:24Z</time>
      </trkpt>
      <trkpt lat="48.05669" lon="-2.306">
        <ele>61.66</ele>
        <time>2012-08-16T15:56:31Z</time>
      </trkpt>
      <trkpt lat="48.05698" lon="-2.30563">
        <ele>62.62</ele>
        <time>2012-08-16T15:56:40Z</time>
      </trkpt>
      <trkpt lat="48.05723" lon="-2.30529">
        <ele>64.55</ele>
        <time>2012-08-16T15:56:48Z</time>
      </trkpt>
      <trkpt lat="48.05756" lon="-2.3049">
        <ele>65.99</ele>
        <time>2012-08-16T15:56:56Z</time>
      </trkpt>
      <trkpt lat="48.05787" lon="-2.30451">
        <ele>66.47</ele>
        <time>2012-08-16T15:57:04Z</time>
      </trkpt>
      <trkpt lat="48.05803" lon="-2.30431">
        <ele>66.47</ele>
        <time>2012-08-16T15:57:08Z</time>
      </trkpt>
      <trkpt lat="48.05843" lon="-2.30391">
        <ele>65.99</ele>
        <time>2012-08-16T15:57:17Z</time>
      </trkpt>
      <trkpt lat="48.0588" lon="-2.30359">
        <ele>64.55</ele>
        <time>2012-08-16T15:57:25Z</time>
      </trkpt>
      <trkpt lat="48.05921" lon="-2.30334">
        <ele>63.1</ele>
        <time>2012-08-16T15:57:33Z</time>
      </trkpt>
      <trkpt lat="48.05953" lon="-2.30317">
        <ele>62.62</ele>
        <time>2012-08-16T15:57:40Z</time>
      </trkpt>
      <trkpt lat="48.05998" lon="-2.30302">
        <ele>61.18</ele>
        <time>2012-08-16T15:57:49Z</time>
      </trkpt>
      <trkpt lat="48.06039" lon="-2.30294">
        <ele>61.18</ele>
        <time>2012-08-16T15:57:56Z</time>
      </trkpt>
      <trkpt lat="48.06086" lon="-2.30291">
        <ele>60.7</ele>
        <time>2012-08-16T15:58:05Z</time>
      </trkpt>
      <trkpt lat="48.06122" lon="-2.30296">
        <ele>60.7</ele>
        <time>2012-08-16T15:58:12Z</time>
      </trkpt>
      <trkpt lat="48.06128" lon="-2.30297">
        <ele>61.18</ele>
        <time>2012-08-16T15:58:13Z</time>
      </trkpt>
      <trkpt lat="48.06133" lon="-2.30298">
        <ele>61.18</ele>
        <time>2012-08-16T15:58:14Z</time>
      </trkpt>
      <trkpt lat="48.06173" lon="-2.30303">
        <ele>63.1</ele>
        <time>2012-08-16T15:58:22Z</time>
      </trkpt>
      <trkpt lat="48.06204" lon="-2.30307">
        <ele>65.03</ele>
        <time>2012-08-16T15:58:28Z</time>
      </trkpt>
      <trkpt lat="48.06245" lon="-2.30311">
        <ele>66.95</ele>
        <time>2012-08-16T15:58:36Z</time>
      </trkpt>
      <trkpt lat="48.06286" lon="-2.30317">
        <ele>69.83</ele>
        <time>2012-08-16T15:58:44Z</time>
      </trkpt>
      <trkpt lat="48.06316" lon="-2.30317">
        <ele>71.76</ele>
        <time>2012-08-16T15:58:51Z</time>
      </trkpt>
      <trkpt lat="48.06351" lon="-2.30314">
        <ele>72.72</ele>
        <time>2012-08-16T15:58:59Z</time>
      </trkpt>
      <trkpt lat="48.06387" lon="-2.30307">
        <ele>75.12</ele>
        <time>2012-08-16T15:59:08Z</time>
      </trkpt>
      <trkpt lat="48.06432" lon="-2.30292">
        <ele>75.6</ele>
        <time>2012-08-16T15:59:17Z</time>
      </trkpt>
      <trkpt lat="48.06466" lon="-2.30275">
        <ele>74.64</ele>
        <time>2012-08-16T15:59:25Z</time>
      </trkpt>
      <trkpt lat="48.06501" lon="-2.30252">
        <ele>76.08</ele>
        <time>2012-08-16T15:59:33Z</time>
      </trkpt>
      <trkpt lat="48.0654" lon="-2.30221">
        <ele>76.56</ele>
        <time>2012-08-16T15:59:41Z</time>
      </trkpt>
      <trkpt lat="48.06576" lon="-2.30187">
        <ele>79.93</ele>
        <time>2012-08-16T15:59:49Z</time>
      </trkpt>
      <trkpt lat="48.0661" lon="-2.30143">
        <ele>81.85</ele>
        <time>2012-08-16T15:59:57Z</time>
      </trkpt>
      <trkpt lat="48.06636" lon="-2.301">
        <ele>82.33</ele>
        <time>2012-08-16T16:00:04Z</time>
      </trkpt>
      <trkpt lat="48.06662" lon="-2.30051">
        <ele>80.89</ele>
        <time>2012-08-16T16:00:11Z</time>
      </trkpt>
      <trkpt lat="48.06688" lon="-2.3">
        <ele>80.89</ele>
        <time>2012-08-16T16:00:19Z</time>
      </trkpt>
      <trkpt lat="48.06707" lon="-2.29957">
        <ele>79.93</ele>
        <time>2012-08-16T16:00:26Z</time>
      </trkpt>
      <trkpt lat="48.06725" lon="-2.29907">
        <ele>78.48</ele>
        <time>2012-08-16T16:00:34Z</time>
      </trkpt>
      <trkpt lat="48.06739" lon="-2.29852">
        <ele>78.48</ele>
        <time>2012-08-16T16:00:42Z</time>
      </trkpt>
      <trkpt lat="48.06745" lon="-2.29831">
        <ele>78</ele>
        <time>2012-08-16T16:00:45Z</time>
      </trkpt>
      <trkpt lat="48.06767" lon="-2.29733">
        <ele>73.2</ele>
        <time>2012-08-16T16:00:57Z</time>
      </trkpt>
      <trkpt lat="48.06777" lon="-2.29684">
        <ele>71.76</ele>
        <time>2012-08-16T16:01:04Z</time>
      </trkpt>
      <trkpt lat="48.06788" lon="-2.29635">
        <ele>70.79</ele>
        <time>2012-08-16T16:01:11Z</time>
      </trkpt>
      <trkpt lat="48.06804" lon="-2.29566">
        <ele>70.31</ele>
        <time>2012-08-16T16:01:20Z</time>
      </trkpt>
      <trkpt lat="48.06813" lon="-2.29523">
        <ele>68.39</ele>
        <time>2012-08-16T16:01:26Z</time>
      </trkpt>
      <trkpt lat="48.06816" lon="-2.29508">
        <ele>67.91</ele>
        <time>2012-08-16T16:01:28Z</time>
      </trkpt>
      <trkpt lat="48.06821" lon="-2.29474">
        <ele>65.99</ele>
        <time>2012-08-16T16:01:34Z</time>
      </trkpt>
      <trkpt lat="48.06828" lon="-2.29449">
        <ele>65.03</ele>
        <time>2012-08-16T16:01:39Z</time>
      </trkpt>
      <trkpt lat="48.06829" lon="-2.29442">
        <ele>65.03</ele>
        <time>2012-08-16T16:01:40Z</time>
      </trkpt>
      <trkpt lat="48.06837" lon="-2.2941">
        <ele>64.55</ele>
        <time>2012-08-16T16:01:45Z</time>
      </trkpt>
      <trkpt lat="48.06857" lon="-2.29335">
        <ele>62.62</ele>
        <time>2012-08-16T16:01:56Z</time>
      </trkpt>
      <trkpt lat="48.06868" lon="-2.29299">
        <ele>62.14</ele>
        <time>2012-08-16T16:02:01Z</time>
      </trkpt>
      <trkpt lat="48.0687" lon="-2.29293">
        <ele>61.66</ele>
        <time>2012-08-16T16:02:02Z</time>
      </trkpt>
      <trkpt lat="48.06891" lon="-2.29241">
        <ele>60.7</ele>
        <time>2012-08-16T16:02:10Z</time>
      </trkpt>
      <trkpt lat="48.06914" lon="-2.29193">
        <ele>61.66</ele>
        <time>2012-08-16T16:02:18Z</time>
      </trkpt>
      <trkpt lat="48.06939" lon="-2.29152">
        <ele>62.14</ele>
        <time>2012-08-16T16:02:25Z</time>
      </trkpt>
      <trkpt lat="48.06953" lon="-2.29129">
        <ele>62.14</ele>
        <time>2012-08-16T16:02:29Z</time>
      </trkpt>
      <trkpt lat="48.06981" lon="-2.29092">
        <ele>61.18</ele>
        <time>2012-08-16T16:02:36Z</time>
      </trkpt>
      <trkpt lat="48.07008" lon="-2.2906">
        <ele>61.18</ele>
        <time>2012-08-16T16:02:43Z</time>
      </trkpt>
      <trkpt lat="48.07036" lon="-2.2903">
        <ele>61.18</ele>
        <time>2012-08-16T16:02:50Z</time>
      </trkpt>
      <trkpt lat="48.0704" lon="-2.29026">
        <ele>61.18</ele>
        <time>2012-08-16T16:02:51Z</time>
      </trkpt>
      <trkpt lat="48.0707" lon="-2.28995">
        <ele>61.18</ele>
        <time>2012-08-16T16:02:58Z</time>
      </trkpt>
      <trkpt lat="48.07096" lon="-2.28968">
        <ele>59.74</ele>
        <time>2012-08-16T16:03:05Z</time>
      </trkpt>
      <trkpt lat="48.07131" lon="-2.28933">
        <ele>58.78</ele>
        <time>2012-08-16T16:03:14Z</time>
      </trkpt>
      <trkpt lat="48.07168" lon="-2.28894">
        <ele>60.22</ele>
        <time>2012-08-16T16:03:24Z</time>
      </trkpt>
      <trkpt lat="48.07183" lon="-2.28881">
        <ele>61.18</ele>
        <time>2012-08-16T16:03:29Z</time>
      </trkpt>
      <trkpt lat="48.07195" lon="-2.28863">
        <ele>61.66</ele>
        <time>2012-08-16T16:03:34Z</time>
      </trkpt>
      <trkpt lat="48.07198" lon="-2.28861">
        <ele>61.66</ele>
        <time>2012-08-16T16:03:35Z</time>
      </trkpt>
      <trkpt lat="48.07218" lon="-2.28841">
        <ele>62.62</ele>
        <time>2012-08-16T16:03:42Z</time>
      </trkpt>
      <trkpt lat="48.07242" lon="-2.28816">
        <ele>63.1</ele>
        <time>2012-08-16T16:03:49Z</time>
      </trkpt>
      <trkpt lat="48.07283" lon="-2.28776">
        <ele>63.58</ele>
        <time>2012-08-16T16:03:59Z</time>
      </trkpt>
      <trkpt lat="48.073" lon="-2.28759">
        <ele>63.58</ele>
        <time>2012-08-16T16:04:03Z</time>
      </trkpt>
      <trkpt lat="48.07329" lon="-2.2873">
        <ele>63.1</ele>
        <time>2012-08-16T16:04:10Z</time>
      </trkpt>
      <trkpt lat="48.07357" lon="-2.28701">
        <ele>62.62</ele>
        <time>2012-08-16T16:04:17Z</time>
      </trkpt>
      <trkpt lat="48.07375" lon="-2.2868">
        <ele>62.14</ele>
        <time>2012-08-16T16:04:22Z</time>
      </trkpt>
      <trkpt lat="48.07378" lon="-2.28676">
        <ele>62.14</ele>
        <time>2012-08-16T16:04:23Z</time>
      </trkpt>
      <trkpt lat="48.07382" lon="-2.28673">
        <ele>62.14</ele>
        <time>2012-08-16T16:04:24Z</time>
      </trkpt>
      <trkpt lat="48.07386" lon="-2.28669">
        <ele>62.14</ele>
        <time>2012-08-16T16:04:25Z</time>
      </trkpt>
      <trkpt lat="48.07389" lon="-2.28666">
        <ele>62.14</ele>
        <time>2012-08-16T16:04:26Z</time>
      </trkpt>
      <trkpt lat="48.07415" lon="-2.2864">
        <ele>61.18</ele>
        <time>2012-08-16T16:04:33Z</time>
      </trkpt>
      <trkpt lat="48.07419" lon="-2.28637">
        <ele>61.18</ele>
        <time>2012-08-16T16:04:34Z</time>
      </trkpt>
      <trkpt lat="48.07447" lon="-2.28607">
        <ele>60.22</ele>
        <time>2012-08-16T16:04:41Z</time>
      </trkpt>
      <trkpt lat="48.07481" lon="-2.28566">
        <ele>59.74</ele>
        <time>2012-08-16T16:04:49Z</time>
      </trkpt>
      <trkpt lat="48.07513" lon="-2.28524">
        <ele>59.74</ele>
        <time>2012-08-16T16:04:57Z</time>
      </trkpt>
      <trkpt lat="48.07543" lon="-2.28479">
        <ele>59.26</ele>
        <time>2012-08-16T16:05:04Z</time>
      </trkpt>
      <trkpt lat="48.07587" lon="-2.28418">
        <ele>60.22</ele>
        <time>2012-08-16T16:05:14Z</time>
      </trkpt>
      <trkpt lat="48.0762" lon="-2.28369">
        <ele>61.66</ele>
        <time>2012-08-16T16:05:22Z</time>
      </trkpt>
      <trkpt lat="48.07658" lon="-2.28314">
        <ele>63.58</ele>
        <time>2012-08-16T16:05:31Z</time>
      </trkpt>
      <trkpt lat="48.077" lon="-2.28252">
        <ele>65.99</ele>
        <time>2012-08-16T16:05:41Z</time>
      </trkpt>
      <trkpt lat="48.07733" lon="-2.28206">
        <ele>66.95</ele>
        <time>2012-08-16T16:05:49Z</time>
      </trkpt>
      <trkpt lat="48.07764" lon="-2.28158">
        <ele>67.43</ele>
        <time>2012-08-16T16:05:57Z</time>
      </trkpt>
      <trkpt lat="48.07805" lon="-2.28096">
        <ele>65.99</ele>
        <time>2012-08-16T16:06:07Z</time>
      </trkpt>
      <trkpt lat="48.07836" lon="-2.28049">
        <ele>65.03</ele>
        <time>2012-08-16T16:06:15Z</time>
      </trkpt>
      <trkpt lat="48.07865" lon="-2.28008">
        <ele>65.03</ele>
        <time>2012-08-16T16:06:23Z</time>
      </trkpt>
      <trkpt lat="48.07892" lon="-2.27968">
        <ele>65.51</ele>
        <time>2012-08-16T16:06:31Z</time>
      </trkpt>
      <trkpt lat="48.07921" lon="-2.27927">
        <ele>65.51</ele>
        <time>2012-08-16T16:06:39Z</time>
      </trkpt>
      <trkpt lat="48.07955" lon="-2.27876">
        <ele>65.03</ele>
        <time>2012-08-16T16:06:48Z</time>
      </trkpt>
      <trkpt lat="48.07989" lon="-2.27825">
        <ele>64.55</ele>
        <time>2012-08-16T16:06:57Z</time>
      </trkpt>
      <trkpt lat="48.08019" lon="-2.2778">
        <ele>64.07</ele>
        <time>2012-08-16T16:07:05Z</time>
      </trkpt>
      <trkpt lat="48.08053" lon="-2.27729">
        <ele>62.62</ele>
        <time>2012-08-16T16:07:14Z</time>
      </trkpt>
      <trkpt lat="48.08082" lon="-2.27687">
        <ele>62.62</ele>
        <time>2012-08-16T16:07:21Z</time>
      </trkpt>
      <trkpt lat="48.08124" lon="-2.27627">
        <ele>64.55</ele>
        <time>2012-08-16T16:07:31Z</time>
      </trkpt>
      <trkpt lat="48.08161" lon="-2.27571">
        <ele>65.03</ele>
        <time>2012-08-16T16:07:40Z</time>
      </trkpt>
      <trkpt lat="48.08194" lon="-2.27523">
        <ele>65.03</ele>
        <time>2012-08-16T16:07:48Z</time>
      </trkpt>
      <trkpt lat="48.08204" lon="-2.27504">
        <ele>65.03</ele>
        <time>2012-08-16T16:07:51Z</time>
      </trkpt>
      <trkpt lat="48.08207" lon="-2.27499">
        <ele>65.03</ele>
        <time>2012-08-16T16:07:52Z</time>
      </trkpt>
      <trkpt lat="48.0821" lon="-2.27495">
        <ele>65.03</ele>
        <time>2012-08-16T16:07:53Z</time>
      </trkpt>
      <trkpt lat="48.08213" lon="-2.27492">
        <ele>65.03</ele>
        <time>2012-08-16T16:07:54Z</time>
      </trkpt>
      <trkpt lat="48.08216" lon="-2.27489">
        <ele>65.03</ele>
        <time>2012-08-16T16:07:55Z</time>
      </trkpt>
      <trkpt lat="48.08219" lon="-2.27487">
        <ele>65.03</ele>
        <time>2012-08-16T16:07:56Z</time>
      </trkpt>
      <trkpt lat="48.08222" lon="-2.27485">
        <ele>65.03</ele>
        <time>2012-08-16T16:07:57Z</time>
      </trkpt>
      <trkpt lat="48.08226" lon="-2.27485">
        <ele>65.03</ele>
        <time>2012-08-16T16:07:58Z</time>
      </trkpt>
      <trkpt lat="48.08229" lon="-2.27488">
        <ele>65.03</ele>
        <time>2012-08-16T16:07:59Z</time>
      </trkpt>
      <trkpt lat="48.08231" lon="-2.27491">
        <ele>65.51</ele>
        <time>2012-08-16T16:08:00Z</time>
      </trkpt>
      <trkpt lat="48.08233" lon="-2.27495">
        <ele>65.03</ele>
        <time>2012-08-16T16:08:01Z</time>
      </trkpt>
      <trkpt lat="48.0825" lon="-2.27513">
        <ele>65.99</ele>
        <time>2012-08-16T16:08:08Z</time>
      </trkpt>
      <trkpt lat="48.08266" lon="-2.27497">
        <ele>65.99</ele>
        <time>2012-08-16T16:08:13Z</time>
      </trkpt>
      <trkpt lat="48.08287" lon="-2.27469">
        <ele>65.51</ele>
        <time>2012-08-16T16:08:19Z</time>
      </trkpt>
      <trkpt lat="48.0829" lon="-2.27464">
        <ele>65.03</ele>
        <time>2012-08-16T16:08:20Z</time>
      </trkpt>
      <trkpt lat="48.08301" lon="-2.27446">
        <ele>65.03</ele>
        <time>2012-08-16T16:08:23Z</time>
      </trkpt>
      <trkpt lat="48.08305" lon="-2.27442">
        <ele>65.03</ele>
        <time>2012-08-16T16:08:24Z</time>
      </trkpt>
      <trkpt lat="48.0831" lon="-2.2744">
        <ele>65.03</ele>
        <time>2012-08-16T16:08:25Z</time>
      </trkpt>
      <trkpt lat="48.08314" lon="-2.27441">
        <ele>64.55</ele>
        <time>2012-08-16T16:08:26Z</time>
      </trkpt>
      <trkpt lat="48.08318" lon="-2.27443">
        <ele>64.55</ele>
        <time>2012-08-16T16:08:27Z</time>
      </trkpt>
      <trkpt lat="48.08322" lon="-2.27445">
        <ele>64.07</ele>
        <time>2012-08-16T16:08:28Z</time>
      </trkpt>
      <trkpt lat="48.08351" lon="-2.27458">
        <ele>65.03</ele>
        <time>2012-08-16T16:08:36Z</time>
      </trkpt>
      <trkpt lat="48.08379" lon="-2.27474">
        <ele>66.47</ele>
        <time>2012-08-16T16:08:44Z</time>
      </trkpt>
      <trkpt lat="48.08408" lon="-2.27489">
        <ele>67.43</ele>
        <time>2012-08-16T16:08:52Z</time>
      </trkpt>
      <trkpt lat="48.08432" lon="-2.27501">
        <ele>68.87</ele>
        <time>2012-08-16T16:08:59Z</time>
      </trkpt>
      <trkpt lat="48.08463" lon="-2.27518">
        <ele>71.76</ele>
        <time>2012-08-16T16:09:09Z</time>
      </trkpt>
      <trkpt lat="48.08464" lon="-2.27519">
        <ele>72.24</ele>
        <time>2012-08-16T16:09:14Z</time>
      </trkpt>
      <trkpt lat="48.08466" lon="-2.27521">
        <ele>72.24</ele>
        <time>2012-08-16T16:09:17Z</time>
      </trkpt>
      <trkpt lat="48.08466" lon="-2.27522">
        <ele>72.72</ele>
        <time>2012-08-16T16:09:18Z</time>
      </trkpt>
      <trkpt lat="48.08466" lon="-2.27536">
        <ele>72.72</ele>
        <time>2012-08-16T16:09:22Z</time>
      </trkpt>
      <trkpt lat="48.08462" lon="-2.27548">
        <ele>72.24</ele>
        <time>2012-08-16T16:09:25Z</time>
      </trkpt>
      <trkpt lat="48.08459" lon="-2.27558">
        <ele>72.24</ele>
        <time>2012-08-16T16:09:27Z</time>
      </trkpt>
      <trkpt lat="48.08465" lon="-2.27575">
        <ele>72.24</ele>
        <time>2012-08-16T16:09:32Z</time>
      </trkpt>
      <trkpt lat="48.0847" lon="-2.27576">
        <ele>72.24</ele>
        <time>2012-08-16T16:09:34Z</time>
      </trkpt>
      <trkpt lat="48.08497" lon="-2.27587">
        <ele>73.68</ele>
        <time>2012-08-16T16:09:44Z</time>
      </trkpt>
      <trkpt lat="48.08517" lon="-2.27596">
        <ele>75.12</ele>
        <time>2012-08-16T16:09:51Z</time>
      </trkpt>
      <trkpt lat="48.08525" lon="-2.27585">
        <ele>75.6</ele>
        <time>2012-08-16T16:09:55Z</time>
      </trkpt>
      <trkpt lat="48.08541" lon="-2.27538">
        <ele>77.04</ele>
        <time>2012-08-16T16:10:06Z</time>
      </trkpt>
      <trkpt lat="48.08551" lon="-2.27503">
        <ele>77.04</ele>
        <time>2012-08-16T16:10:13Z</time>
      </trkpt>
      <trkpt lat="48.08554" lon="-2.27497">
        <ele>77.04</ele>
        <time>2012-08-16T16:10:14Z</time>
      </trkpt>
      <trkpt lat="48.08558" lon="-2.27493">
        <ele>77.04</ele>
        <time>2012-08-16T16:10:15Z</time>
      </trkpt>
      <trkpt lat="48.08563" lon="-2.27491">
        <ele>76.56</ele>
        <time>2012-08-16T16:10:16Z</time>
      </trkpt>
      <trkpt lat="48.08568" lon="-2.27491">
        <ele>76.56</ele>
        <time>2012-08-16T16:10:17Z</time>
      </trkpt>
      <trkpt lat="48.08572" lon="-2.27493">
        <ele>76.56</ele>
        <time>2012-08-16T16:10:18Z</time>
      </trkpt>
      <trkpt lat="48.08577" lon="-2.27496">
        <ele>76.56</ele>
        <time>2012-08-16T16:10:19Z</time>
      </trkpt>
      <trkpt lat="48.08604" lon="-2.27512">
        <ele>75.6</ele>
        <time>2012-08-16T16:10:27Z</time>
      </trkpt>
      <trkpt lat="48.08612" lon="-2.27515">
        <ele>76.08</ele>
        <time>2012-08-16T16:10:30Z</time>
      </trkpt>
      <trkpt lat="48.08614" lon="-2.27512">
        <ele>76.08</ele>
        <time>2012-08-16T16:10:31Z</time>
      </trkpt>
      <trkpt lat="48.08615" lon="-2.27509">
        <ele>76.08</ele>
        <time>2012-08-16T16:10:32Z</time>
      </trkpt>
      <trkpt lat="48.08616" lon="-2.27506">
        <ele>76.08</ele>
        <time>2012-08-16T16:10:33Z</time>
      </trkpt>
      <trkpt lat="48.08617" lon="-2.27502">
        <ele>75.6</ele>
        <time>2012-08-16T16:10:34Z</time>
      </trkpt>
      <trkpt lat="48.08618" lon="-2.275">
        <ele>75.6</ele>
        <time>2012-08-16T16:10:35Z</time>
      </trkpt>
      <trkpt lat="48.08619" lon="-2.27496">
        <ele>75.6</ele>
        <time>2012-08-16T16:10:41Z</time>
      </trkpt>
      <trkpt lat="48.08618" lon="-2.27497">
        <ele>74.64</ele>
        <time>2012-08-16T16:10:47Z</time>
      </trkpt>
      <trkpt lat="48.08618" lon="-2.27498">
        <ele>74.16</ele>
        <time>2012-08-16T16:10:57Z</time>
      </trkpt>
      <trkpt lat="48.08618" lon="-2.275">
        <ele>73.68</ele>
        <time>2012-08-16T16:11:11Z</time>
      </trkpt>
      <trkpt lat="48.08618" lon="-2.27501">
        <ele>75.6</ele>
        <time>2012-08-16T16:11:30Z</time>
      </trkpt>
      <trkpt lat="48.08618" lon="-2.27501">
        <ele>75.12</ele>
        <time>2012-08-16T16:11:46Z</time>
      </trkpt>
      <trkpt lat="48.08617" lon="-2.27502">
        <ele>75.6</ele>
        <time>2012-08-16T16:12:03Z</time>
      </trkpt>
      <trkpt lat="48.08617" lon="-2.27502">
        <ele>75.6</ele>
        <time>2012-08-16T16:12:17Z</time>
      </trkpt>
      <trkpt lat="48.08617" lon="-2.27502">
        <ele>75.6</ele>
        <time>2012-08-16T16:12:32Z</time>
      </trkpt>
      <trkpt lat="48.08617" lon="-2.27502">
        <ele>76.08</ele>
        <time>2012-08-16T16:12:50Z</time>
      </trkpt>
      <trkpt lat="48.08617" lon="-2.27502">
        <ele>77.04</ele>
        <time>2012-08-16T16:13:08Z</time>
      </trkpt>
      <trkpt lat="48.08617" lon="-2.27502">
        <ele>77.52</ele>
        <time>2012-08-16T16:13:23Z</time>
      </trkpt>
      <trkpt lat="48.08617" lon="-2.27502">
        <ele>78</ele>
        <time>2012-08-16T16:13:41Z</time>
      </trkpt>
      <trkpt lat="48.08616" lon="-2.27502">
        <ele>78.48</ele>
        <time>2012-08-16T16:13:58Z</time>
      </trkpt>
      <trkpt lat="48.08615" lon="-2.27502">
        <ele>78.48</ele>
        <time>2012-08-16T16:14:12Z</time>
      </trkpt>
      <trkpt lat="48.08615" lon="-2.27503">
        <ele>78</ele>
        <time>2012-08-16T16:14:29Z</time>
      </trkpt>
      <trkpt lat="48.08615" lon="-2.27504">
        <ele>77.52</ele>
        <time>2012-08-16T16:14:47Z</time>
      </trkpt>
      <trkpt lat="48.08615" lon="-2.27504">
        <ele>77.52</ele>
        <time>2012-08-16T16:15:02Z</time>
      </trkpt>
      <trkpt lat="48.08615" lon="-2.27504">
        <ele>77.52</ele>
        <time>2012-08-16T16:15:15Z</time>
      </trkpt>
      <trkpt lat="48.08616" lon="-2.27504">
        <ele>77.52</ele>
        <time>2012-08-16T16:15:24Z</time>
      </trkpt>
      <trkpt lat="48.08616" lon="-2.27503">
        <ele>77.52</ele>
        <time>2012-08-16T16:15:32Z</time>
      </trkpt>
      <trkpt lat="48.08616" lon="-2.27503">
        <ele>77.52</ele>
        <time>2012-08-16T16:15:44Z</time>
      </trkpt>
    </trkseg>
  </trk>
</gpx>